[[{"header":{"parameterUnit":"m.s-1","parameterCategory":1,"la1":31.0,"la2":29.5877,"lo1":-88.7671,"lo2":-86.6584,"dy":0.0162,"dx":0.0185,"nx":115,"ny":88,"refTime":"2023-09-01T12:00:00:Z","depth":0,"parameterNumber":2,"parameterNumberName":"U-component_of_WINDS"},"data":[0.0,0.0,0.0,0.0,0.0,0.0,0.0,0.0,0.0,0.0,0.0,0.0,0.0,0.0,0.0,0.0,0.0,0.0,0.0,0.0,0.0,0.0,0.0,0.0,0.0,0.0,0.0,0.0,0.0,0.0,0.0,0.0,0.0,0.0,0.0,0.0,0.0,0.0,0.0,0.0,0.0,0.0,0.0,0.0,0.0,0.0,0.0,0.0,0.0,0.0,0.0,0.0,0.0,0.0,0.0,0.0,0.0,0.0,0.0,0.0,0.0,0.0,0.0,0.0,0.0,0.0,0.0,0.0,0.0,0.0,0.0,0.0,0.0,0.0,0.0,0.0,0.0,0.0,0.0,0.0,0.0,0.0,0.0,0.0,0.0,0.0,0.0,0.0,0.0,0.0,0.0,0.0,0.0,0.0,0.0,0.0,0.0,0.0,0.0,0.0,0.0,0.0,0.0,0.0,0.0,0.0,0.0,0.0,0.0,0.0,0.0,0.0,0.0,0.0,0.0,0.0,0.0,0.0,0.0,0.0,0.0,0.0,0.0,0.0,0.0,0.0,0.0,0.0,0.0,0.0,0.0,0.0,0.0,0.0,0.0,0.0,0.0,0.0,0.0,0.0,0.0,0.0,0.0,0.0,0.0,0.0,0.0,0.0,0.0,0.0,0.0,0.0,0.0,0.0,0.0,0.0,0.0,0.0,0.0,0.0,0.0,0.0,0.0,0.0,0.0,0.0,0.0,0.0,0.0,0.0,0.0,0.0,0.0,0.0,0.0,0.0,0.0,0.0,0.0,0.0,0.0,0.0,0.0,0.0,0.0,0.0,0.0,0.0,0.0,0.0,0.0,0.0,0.0,0.0,0.0,0.0,0.0,0.0,0.0,0.0,0.0,0.0,0.0,0.0,0.0,0.0,0.0,0.0,0.0,0.0,0.0,0.0,0.0,0.0,0.0,0.0,0.0,0.0,0.0,0.0,0.0,0.0,0.0,0.0,0.0,0.0,0.0,0.0,0.0,0.0,0.0,0.0,0.0,0.0,0.0,0.0,0.0,0.0,0.0,0.0,0.0,0.0,0.0,0.0,0.0,0.0,0.0,0.0,0.0,0.0,0.0,0.0,0.0,0.0,0.0,0.0,0.0,0.0,0.0,0.0,0.0,0.0,0.0,0.0,0.0,0.0,0.0,0.0,0.0,0.0,0.0,0.0,0.0,0.0,0.0,0.0,0.0,0.0,0.0,0.0,0.0,0.0,0.0,0.0,0.0,0.0,0.0,0.0,0.0,0.0,0.0,0.0,0.0,0.0,0.0,0.0,0.0,0.0,0.0,0.0,0.0,0.0,0.0,0.0,0.0,0.0,0.0,0.0,0.0,0.0,0.0,0.0,0.0,0.0,0.0,0.0,0.0,0.0,0.0,0.0,0.0,0.0,0.0,0.0,0.0,0.0,0.0,0.0,0.0,0.0,0.0,0.0,0.0,0.0,0.0,0.0,0.0,0.0,0.0,0.0,0.0,0.0,0.0,0.0,0.0,0.0,0.0,0.0,0.0,0.0,0.0,0.0,0.0,0.0,0.0,0.0,0.0,0.0,0.0,0.0,0.0,0.0,0.0,0.0,0.0,0.0,0.0,0.0,0.0,0.0,0.0,0.0,0.0,0.0,0.0,0.0,0.0,0.0,0.0,0.0,0.0,0.0,0.0,0.0,0.0,0.0,0.0,0.0,0.0,0.0,0.0,0.0,0.0,0.0,0.0,0.0,0.0,0.0,0.0,0.0,0.0,0.0,0.0,0.0,0.0,0.0,0.0,0.0,0.0,0.0,0.0,0.0,0.0,0.0,0.0,0.0,0.0,0.0,0.0,0.0,0.0,0.0,0.0,0.0,0.0,0.0,0.0,0.0,0.0,0.0,0.0,0.0,0.0,0.0,0.0,0.0,0.0,0.0,0.0,0.0,0.0,0.0,0.0,0.0,0.0,0.0,0.0,0.0,0.0,0.0,0.0,0.0,0.0,0.0,0.0,0.0,0.0,0.0,0.0,0.0,0.0,0.0,0.0,0.0,0.0,0.0,0.0,0.0,0.0,0.0,0.0,0.0,0.0,0.0,0.0,0.0,0.0,0.0,0.0,0.0,0.0,0.0,0.0,0.0,0.0,0.0,0.0,0.0,0.0,0.0,0.0,0.0,0.0,0.0,0.0,0.0,0.0,0.0,0.0,0.0,0.0,0.0,0.0,0.0,0.0,0.0,0.0,0.0,0.0,0.0,0.0,0.0,0.0,0.0,0.0,0.0,0.0,0.0,0.0,0.0,0.0,0.0,0.0,0.0,0.0,0.0,0.0,0.0,0.0,0.0,0.0,0.0,0.0,0.0,0.0,0.0,0.0,0.0,0.0,0.0,0.0,0.0,0.0,0.0,0.0,0.0,0.0,0.0,0.0,0.0,0.0,0.0,0.0,0.0,0.0,0.0,0.0,0.0,0.0,0.0,0.0,0.0,0.0,0.0,0.0,0.0,0.0,0.0,0.0,0.0,0.0,0.0,0.0,0.0,0.0,0.0,0.0,0.0,0.0,0.0,0.0,0.0,0.0,0.0,0.0,0.0,0.0,0.0,0.0,0.0,0.0,0.0,0.0,0.0,0.0,0.0,0.0,0.0,0.0,0.0,0.0,0.0,0.0,0.0,0.0,0.0,0.0,0.0,0.0,0.0,0.0,0.0,0.0,0.0,0.0,0.0,0.0,0.0,0.0,0.0,0.0,0.0,0.0,0.0,0.0,0.0,0.0,0.0,0.0,0.0,0.0,0.0,0.0,0.0,0.0,0.0,0.0,0.0,0.0,0.0,0.0,0.0,0.0,0.0,0.0,0.0,0.0,0.0,0.0,0.0,0.0,0.0,0.0,0.0,0.0,0.0,0.0,0.0,0.0,0.0,0.0,0.0,0.0,0.0,0.0,0.0,0.0,0.0,0.0,0.0,0.0,0.0,0.0,0.0,0.0,0.0,0.0,0.0,0.0,0.0,0.0,0.0,0.0,0.0,0.0,0.0,0.0,0.0,0.0,0.0,0.0,0.0,0.0,0.0,0.0,0.0,0.0,0.0,0.0,0.0,0.0,0.0,0.0,0.0,0.0,0.0,0.0,0.0,0.0,0.0,0.0,0.0,0.0,0.0,0.0,0.0,0.0,0.0,0.0,0.0,0.0,0.0,0.0,0.0,0.0,0.0,0.0,0.0,0.0,0.0,0.0,0.0,0.0,0.0,0.0,0.0,0.0,0.0,0.0,0.0,0.0,0.0,0.0,0.0,0.0,0.0,0.0,0.0,0.0,0.0,0.0,0.0,0.0,0.0,0.0,0.0,0.0,0.0,0.0,0.0,0.0,0.0,0.0,0.0,0.0,0.0,0.0,0.0,0.0,0.0,0.0,0.0,0.0,0.0,0.0,0.0,0.0,0.0,0.0,0.0,0.0,0.0,0.0,0.0,0.0,0.0,0.0,0.0,0.0,0.0,0.0,0.0,0.0,0.0,0.0,0.0,0.0,0.0,0.0,0.0,0.0,0.0,0.0,0.0,0.0,0.0,0.0,0.0,0.0,0.0,0.0,0.0,0.0,0.0,0.0,0.0,0.0,0.0,0.0,0.0,0.0,0.0,0.0,0.0,0.0,0.0,0.0,0.0,0.0,0.0,0.0,0.0,0.0,0.0,0.0,0.0,0.0,0.0,0.0,0.0,0.0,0.0,0.0,0.0,0.0,0.0,0.0,0.0,0.0,0.0,0.0,0.0,0.0,0.0,0.0,0.0,0.0,0.0,0.0,0.0,0.0,0.0,0.0,0.0,0.0,0.0,0.0,0.0,0.0,0.0,0.0,0.0,0.0,0.0,0.0,0.0,0.0,0.0,0.0,0.0,0.0,0.0,0.0,0.0,0.0,0.0,0.0,0.0,0.0,0.0,0.0,0.0,0.0,0.0,0.0,0.0,0.0,0.0,0.0,0.0,0.0,0.0,0.0,0.0,0.0,0.0,0.0,0.0,0.0,0.0,0.0,0.0,0.0,0.0,0.0,0.0,0.0,0.0,0.0,0.0,0.0,0.0,0.0,0.0,0.0,0.0,0.0,0.0,0.0,0.0,0.0,0.0,0.0,0.0,0.0,0.0,0.0,0.0,0.0,0.0,0.0,0.0,0.0,0.0,0.0,0.0,0.0,0.0,0.0,0.0,0.0,0.0,0.0,0.0,0.0,0.0,0.0,0.0,0.0,0.0,0.0,0.0,0.0,0.0,0.0,0.0,-0.8003,0.0,0.0,0.0,0.0,0.0,0.0,0.0,0.0,0.0,0.0,0.0,0.0,0.0,0.0,0.0,0.0,0.0,0.0,0.0,0.0,0.0,0.0,0.0,0.0,0.0,0.0,0.0,0.0,0.0,0.0,0.0,0.0,0.0,0.0,0.0,0.0,0.0,0.0,0.0,0.0,0.0,0.0,0.0,0.0,0.0,0.0,0.0,0.0,0.0,0.0,0.0,0.0,0.0,0.0,0.0,0.0,0.0,0.0,0.0,0.0,0.0,0.0,0.0,0.0,0.0,0.0,0.0,0.0,0.0,0.0,0.0,0.0,0.0,0.0,0.0,0.0,0.0,0.0,0.0,0.0,0.0,0.0,0.0,0.0,0.0,0.0,0.0,0.0,0.0,0.0,0.0,0.0,0.0,0.0,0.0,0.0,0.0,0.0,0.0,0.0,0.0,0.0,0.0,0.0,0.0,0.0,0.0,0.0,0.0,0.0,-0.9123,-0.8772,-0.8865,-0.8691,-0.8109,0.0,0.0,0.0,0.0,0.0,0.0,0.0,0.0,0.0,0.0,0.0,0.0,0.0,0.0,0.0,0.0,0.0,0.0,0.0,0.0,0.0,0.0,0.0,0.0,0.0,0.0,0.0,0.0,0.0,0.0,0.0,0.0,0.0,0.0,0.0,0.0,0.0,0.0,0.0,0.0,0.0,0.0,0.0,0.0,0.0,0.0,0.0,0.0,0.0,0.0,0.0,0.0,0.0,0.0,0.0,0.0,0.0,0.0,0.0,0.0,0.0,0.0,0.0,0.0,0.0,0.0,0.0,0.0,0.0,0.0,0.0,0.0,0.0,0.0,0.0,0.0,0.0,0.0,0.0,0.0,0.0,0.0,0.0,0.0,0.0,0.0,0.0,0.0,0.0,0.0,0.0,0.0,0.0,0.0,0.0,0.0,0.0,0.0,0.0,0.0,0.0,0.0,0.0,0.0,0.0,0.0,0.0,0.0,0.0,0.0,0.0,0.0,-0.9188,-0.8943,-0.8338,0.0,0.0,0.0,0.0,0.0,0.0,0.0,0.0,0.0,0.0,0.0,0.0,0.0,0.0,0.0,0.0,0.0,0.0,0.0,0.0,0.0,0.0,0.0,0.0,0.0,0.0,0.0,0.0,0.0,0.0,0.0,0.0,0.0,0.0,0.0,0.0,0.0,0.0,0.0,0.0,0.0,0.0,0.0,0.0,0.0,0.0,0.0,0.0,0.0,0.0,0.0,0.0,0.0,0.0,0.0,0.0,0.0,0.0,0.0,0.0,0.0,0.0,0.0,0.0,0.0,0.0,0.0,0.0,0.0,0.0,0.0,0.0,0.0,0.0,0.0,0.0,0.0,0.0,0.0,0.0,0.0,0.0,0.0,0.0,0.0,0.0,0.0,0.0,0.0,0.0,0.0,0.0,0.0,0.0,0.0,0.0,0.0,0.0,0.0,0.0,0.0,0.0,0.0,0.0,0.0,0.0,0.0,0.0,0.0,0.0,-0.9521,-0.9351,-0.9373,0.0,-0.8919,0.0,0.0,0.0,0.0,0.0,0.0,0.0,0.0,0.0,0.0,0.0,0.0,0.0,0.0,0.0,0.0,0.0,0.0,0.0,0.0,0.0,0.0,0.0,0.0,0.0,0.0,0.0,0.0,0.0,0.0,0.0,0.0,0.0,0.0,0.0,0.0,0.0,0.0,0.0,0.0,0.0,0.0,0.0,0.0,0.0,0.0,0.0,0.0,0.0,0.0,0.0,0.0,0.0,0.0,0.0,0.0,0.0,0.0,0.0,0.0,0.0,0.0,0.0,0.0,0.0,0.0,0.0,0.0,0.0,0.0,0.0,0.0,0.0,0.0,0.0,0.0,0.0,0.0,0.0,0.0,0.0,0.0,0.0,0.0,0.0,0.0,0.0,0.0,0.0,0.0,0.0,0.0,0.0,0.0,0.0,0.0,0.0,0.0,0.0,0.0,0.0,0.0,0.0,0.0,0.0,0.0,0.0,0.0,0.0,0.0,-0.9588,-0.951,-0.9361,-0.9185,0.0,0.0,0.0,0.0,0.0,0.0,0.0,0.0,0.0,0.0,0.0,0.0,0.0,0.0,0.0,0.0,0.0,0.0,0.0,0.0,0.0,0.0,0.0,0.0,0.0,0.0,0.0,0.0,0.0,0.0,0.0,0.0,0.0,0.0,0.0,0.0,0.0,0.0,0.0,0.0,0.0,0.0,0.0,0.0,0.0,0.0,0.0,0.0,0.0,0.0,0.0,0.0,0.0,0.0,0.0,0.0,0.0,0.0,0.0,0.0,0.0,0.0,0.0,0.0,0.0,0.0,0.0,0.0,0.0,0.0,0.0,0.0,0.0,0.0,0.0,0.0,0.0,0.0,0.0,0.0,0.0,0.0,0.0,0.0,0.0,0.0,0.0,0.0,0.0,0.0,0.0,0.0,0.0,0.0,0.0,0.0,0.0,0.0,0.0,0.0,0.0,0.0,0.0,0.0,0.0,0.0,0.0,0.0,0.0,0.0,-0.9614,-0.9614,-0.9588,-0.9335,-0.9159,-0.9061,0.0,0.0,0.0,0.0,0.0,0.0,0.0,0.0,0.0,0.0,0.0,0.0,0.0,0.0,0.0,0.0,0.0,0.0,0.0,0.0,0.0,0.0,0.0,0.0,0.0,0.0,0.0,0.0,0.0,0.0,0.0,0.0,0.0,0.0,0.0,0.0,0.0,0.0,0.0,0.0,0.0,0.0,0.0,0.0,0.0,0.0,0.0,0.0,0.0,0.0,0.0,0.0,0.0,0.0,0.0,0.0,0.0,0.0,0.0,0.0,0.0,0.0,0.0,0.0,0.0,0.0,0.0,0.0,0.0,0.0,0.0,0.0,0.0,0.0,0.0,0.0,0.0,0.0,0.0,0.0,0.0,0.0,0.0,0.0,0.0,0.0,0.0,0.0,0.0,0.0,0.0,0.0,0.0,0.0,0.0,0.0,0.0,0.0,0.0,0.0,0.0,0.0,0.0,0.0,0.0,0.0,0.0,0.0,-0.9614,-0.9614,-0.9614,-0.9588,-0.9335,-0.9185,0.0,0.0,0.0,0.0,0.0,0.0,0.0,0.0,0.0,0.0,0.0,0.0,0.0,0.0,0.0,0.0,0.0,0.0,0.0,0.0,0.0,0.0,0.0,0.0,0.0,0.0,0.0,0.0,0.0,0.0,0.0,0.0,0.0,0.0,0.0,0.0,0.0,0.0,0.0,0.0,0.0,0.0,0.0,0.0,0.0,0.0,0.0,0.0,0.0,0.0,0.0,0.0,0.0,0.0,0.0,0.0,0.0,0.0,0.0,0.0,0.0,0.0,0.0,0.0,0.0,0.0,0.0,0.0,0.0,0.0,0.0,0.0,0.0,0.0,0.0,0.0,0.0,0.0,0.0,0.0,0.0,0.0,0.0,0.0,0.0,0.0,0.0,0.0,0.0,0.0,0.0,0.0,0.0,0.0,0.0,0.0,0.0,0.0,0.0,0.0,0.0,0.0,0.0,0.0,0.0,0.0,0.0,0.0,0.0,-0.9614,-0.9614,-0.9614,-0.9588,-0.9342,-0.9178,0.0,0.0,0.0,0.0,0.0,0.0,0.0,0.0,0.0,0.0,0.0,0.0,0.0,0.0,0.0,0.0,0.0,0.0,0.0,0.0,0.0,0.0,0.0,0.0,0.0,0.0,0.0,0.0,0.0,0.0,0.0,0.0,0.0,0.0,0.0,0.0,0.0,0.0,0.0,0.0,0.0,0.0,0.0,0.0,0.0,0.0,0.0,0.0,0.0,0.0,0.0,0.0,0.0,0.0,0.0,0.0,0.0,0.0,0.0,0.0,0.0,0.0,0.0,0.0,0.0,0.0,0.0,0.0,0.0,0.0,0.0,0.0,0.0,0.0,0.0,0.0,0.0,0.0,0.0,0.0,0.0,0.0,0.0,0.0,0.0,0.0,0.0,0.0,0.0,0.0,0.0,0.0,0.0,0.0,0.0,0.0,0.0,0.0,0.0,0.0,0.0,0.0,0.0,0.0,0.0,0.0,0.0,0.0,0.0,-0.9614,0.0,-0.9614,-0.9588,-0.9335,-0.9178,0.0,0.0,0.0,0.0,0.0,0.0,0.0,0.0,0.0,0.0,0.0,0.0,0.0,0.0,0.0,0.0,0.0,0.0,0.0,0.0,0.0,0.0,0.0,0.0,0.0,0.0,0.0,0.0,0.0,0.0,0.0,0.0,0.0,0.0,0.0,0.0,0.0,0.0,0.0,0.0,0.0,0.0,0.0,0.0,0.0,0.0,0.0,0.0,0.0,0.0,0.0,0.0,0.0,0.0,0.0,0.0,0.0,0.0,0.0,0.0,0.0,0.0,0.0,0.0,0.0,0.0,0.0,0.0,0.0,0.0,0.0,0.0,0.0,0.0,0.0,0.0,0.0,0.0,0.0,0.0,0.0,0.0,0.0,0.0,0.0,0.0,0.0,0.0,0.0,0.0,0.0,0.0,0.0,0.0,0.0,0.0,0.0,0.0,0.0,0.0,0.0,0.0,0.0,0.0,0.0,0.0,0.0,0.0,-0.9629,-0.9614,-0.9614,-0.9614,-0.9588,-0.9342,-0.9178,0.0,0.0,0.0,0.0,0.0,0.0,0.0,0.0,0.0,0.0,0.0,0.0,0.0,0.0,0.0,0.0,0.0,0.0,0.0,0.0,0.0,0.0,0.0,0.0,0.0,0.0,0.0,0.0,0.0,0.0,0.0,0.0,0.0,0.0,0.0,0.0,0.0,0.0,0.0,0.0,0.0,0.0,0.0,0.0,0.0,0.0,0.0,0.0,0.0,0.0,0.0,0.0,0.0,0.0,0.0,0.0,0.0,0.0,0.0,0.0,0.0,0.0,0.0,0.0,0.0,0.0,0.0,0.0,0.0,0.0,0.0,0.0,0.0,0.0,0.0,0.0,0.0,0.0,0.0,0.0,0.0,0.0,0.0,0.0,0.0,0.0,0.0,0.0,0.0,0.0,0.0,0.0,0.0,0.0,0.0,0.0,0.0,0.0,0.0,0.0,0.0,0.0,0.0,0.0,0.0,0.0,0.0,0.0,0.0,-0.9621,-0.9614,-0.9614,-0.9588,-0.9335,-0.9178,0.0,0.0,0.0,0.0,0.0,0.0,0.0,0.0,0.0,0.0,0.0,0.0,0.0,0.0,0.0,0.0,0.0,0.0,0.0,0.0,0.0,0.0,0.0,0.0,0.0,0.0,0.0,0.0,0.0,0.0,0.0,0.0,0.0,0.0,0.0,0.0,0.0,0.0,0.0,0.0,0.0,0.0,0.0,0.0,0.0,0.0,0.0,0.0,0.0,0.0,0.0,0.0,0.0,0.0,0.0,0.0,0.0,0.0,0.0,0.0,0.0,0.0,0.0,0.0,0.0,0.0,0.0,0.0,0.0,0.0,0.0,0.0,0.0,0.0,0.0,0.0,0.0,0.0,0.0,0.0,0.0,0.0,0.0,0.0,0.0,0.0,0.0,0.0,0.0,0.0,0.0,0.0,0.0,0.0,0.0,0.0,0.0,0.0,0.0,0.0,0.0,0.0,0.0,0.0,0.0,0.0,0.0,0.0,0.0,-1.0168,-0.9791,-0.9614,-0.9614,-0.9387,-0.923,-0.9211,0.0,0.0,0.0,0.0,0.0,0.0,0.0,0.0,0.0,0.0,0.0,0.0,0.0,0.0,0.0,0.0,0.0,0.0,0.0,0.0,0.0,0.0,0.0,0.0,0.0,0.0,0.0,0.0,0.0,0.0,0.0,0.0,0.0,0.0,0.0,0.0,0.0,0.0,0.0,0.0,0.0,0.0,0.0,0.0,0.0,0.0,0.0,0.0,0.0,0.0,0.0,0.0,0.0,0.0,0.0,0.0,0.0,0.0,0.0,0.0,0.0,0.0,0.0,0.0,0.0,0.0,0.0,0.0,0.0,0.0,0.0,0.0,0.0,0.0,0.0,0.0,0.0,0.0,0.0,0.0,0.0,0.0,0.0,0.0,0.0,0.0,0.0,0.0,0.0,0.0,0.0,0.0,0.0,0.0,0.0,0.0,0.0,0.0,0.0,0.0,0.0,0.0,0.0,0.0,0.0,0.0,0.0,0.0,-1.113,-1.0183,-0.9691,-0.965,-0.9542,-0.9377,0.0,0.0,0.0,0.0,0.0,0.0,0.0,0.0,0.0,0.0,0.0,0.0,0.0,0.0,0.0,0.0,0.0,0.0,0.0,0.0,0.0,0.0,0.0,0.0,0.0,0.0,0.0,0.0,0.0,0.0,0.0,0.0,0.0,0.0,0.0,0.0,0.0,0.0,0.0,0.0,0.0,0.0,0.0,0.0,0.0,0.0,0.0,0.0,0.0,0.0,0.0,0.0,0.0,0.0,0.0,0.0,0.0,0.0,0.0,0.0,0.0,0.0,0.0,0.0,0.0,0.0,0.0,0.0,0.0,0.0,0.0,0.0,0.0,0.0,0.0,0.0,0.0,0.0,0.0,0.0,0.0,0.0,0.0,0.0,0.0,0.0,0.0,0.0,0.0,0.0,0.0,0.0,0.0,0.0,0.0,0.0,0.0,0.0,0.0,0.0,0.0,0.0,0.0,0.0,0.0,0.0,0.0,0.0,0.0,-1.1818,-1.1082,-1.0469,-0.9994,-1.0076,-0.9893,0.0,0.0,0.0,0.0,0.0,0.0,0.0,0.0,0.0,0.0,0.0,0.0,0.0,0.0,0.0,0.0,0.0,0.0,0.0,0.0,0.0,0.0,0.0,0.0,0.0,0.0,0.0,0.0,0.0,0.0,0.0,0.0,0.0,0.0,0.0,0.0,0.0,0.0,0.0,0.0,0.0,0.0,0.0,0.0,0.0,0.0,0.0,0.0,0.0,0.0,0.0,0.0,0.0,0.0,0.0,0.0,0.0,0.0,0.0,0.0,0.0,0.0,0.0,0.0,0.0,0.0,0.0,0.0,0.0,0.0,0.0,0.0,0.0,0.0,0.0,0.0,0.0,0.0,0.0,0.0,0.0,0.0,0.0,0.0,0.0,0.0,0.0,0.0,0.0,0.0,0.0,0.0,0.0,0.0,0.0,0.0,0.0,0.0,0.0,0.0,0.0,0.0,0.0,0.0,0.0,0.0,0.0,0.0,-1.2468,-1.2489,-1.1955,-1.1368,-1.0741,-1.0565,-1.0278,0.0,0.0,0.0,0.0,0.0,0.0,0.0,0.0,0.0,0.0,0.0,0.0,0.0,0.0,0.0,0.0,0.0,0.0,0.0,0.0,0.0,0.0,0.0,0.0,0.0,0.0,0.0,0.0,0.0,0.0,0.0,0.0,0.0,0.0,0.0,0.0,0.0,0.0,0.0,0.0,0.0,0.0,0.0,0.0,0.0,0.0,0.0,0.0,0.0,0.0,0.0,0.0,0.0,0.0,0.0,0.0,0.0,0.0,0.0,0.0,0.0,0.0,0.0,0.0,0.0,0.0,0.0,0.0,0.0,0.0,0.0,0.0,0.0,0.0,0.0,0.0,0.0,0.0,0.0,0.0,0.0,0.0,0.0,0.0,0.0,0.0,0.0,0.0,0.0,0.0,0.0,0.0,0.0,0.0,0.0,0.0,0.0,0.0,0.0,0.0,0.0,0.0,0.0,0.0,0.0,0.0,0.0,0.0,-1.3103,-1.3186,-1.2797,-1.2302,-1.1786,-1.1099,-1.0653,0.0,0.0,0.0,0.0,0.0,0.0,0.0,0.0,0.0,0.0,0.0,0.0,0.0,0.0,0.0,0.0,0.0,0.0,0.0,0.0,0.0,0.0,0.0,0.0,0.0,0.0,0.0,0.0,0.0,0.0,0.0,0.0,0.0,0.0,0.0,0.0,0.0,0.0,0.0,0.0,0.0,0.0,0.0,0.0,0.0,0.0,0.0,0.0,0.0,0.0,0.0,0.0,0.0,0.0,0.0,0.0,0.0,0.0,0.0,0.0,0.0,0.0,0.0,0.0,0.0,0.0,0.0,0.0,0.0,0.0,0.0,0.0,0.0,0.0,0.0,0.0,0.0,0.0,0.0,0.0,0.0,0.0,0.0,0.0,0.0,0.0,0.0,0.0,0.0,0.0,0.0,0.0,0.0,0.0,0.0,0.0,0.0,0.0,0.0,0.0,0.0,0.0,0.0,0.0,0.0,0.0,0.0,0.0,-1.3752,-1.4449,-1.3467,-1.2909,-1.294,-1.2179,-1.1383,0.0,0.0,0.0,0.0,0.0,0.0,0.0,0.0,0.0,0.0,0.0,0.0,0.0,0.0,0.0,0.0,0.0,0.0,0.0,0.0,0.0,0.0,0.0,0.0,0.0,0.0,0.0,0.0,0.0,0.0,0.0,0.0,0.0,0.0,0.0,0.0,0.0,0.0,0.0,0.0,0.0,0.0,0.0,0.0,0.0,0.0,0.0,0.0,-0.0308,0.0,0.0,0.0,0.0,0.0,0.0,0.0,0.0,0.0,0.0,0.0,0.0,0.0,0.0,0.0,0.0,0.0,0.0,0.0,0.0,0.0,0.0,0.0,0.0,0.0,0.0,0.0,0.0,0.0,0.0,0.0,0.0,0.0,0.0,0.0,0.0,0.0,0.0,0.0,0.0,0.0,0.0,0.0,0.0,0.0,0.0,0.0,0.0,0.0,0.0,0.0,0.0,0.0,0.0,0.0,0.0,0.0,0.0,0.0,-1.4936,-1.5139,-1.4528,-1.4049,-1.3816,-1.3001,-1.2104,0.0,0.0,0.0,0.0,0.0,0.0,0.0,0.0,0.0,0.0,0.0,0.0,0.0,0.0,0.0,0.0,0.0,0.0,0.0,0.0,0.0,0.0,0.0,0.0,0.0,0.0,0.0,0.0,0.0,0.0,0.0,0.0,0.0,0.0,0.0,0.0,0.0,0.0,0.0,0.0,0.0,0.0,0.0,0.0,0.0,0.0,0.0,0.0,0.0,0.0,0.0,0.0,0.0,0.0,0.0,0.0,0.0,0.0,0.0,0.0,0.0,0.0,0.0,0.0,0.0,0.0,0.0,0.0,0.0,0.0,0.0,0.0,0.0,0.0,0.0,0.0,0.0,0.0,0.0,0.0,0.0,0.0,0.0,0.0,0.0,0.0,0.0,0.0,0.0,0.0,0.0,0.0,0.0,0.0,0.0,0.0,0.0,0.0,0.0,0.0,0.0,0.0,0.0,0.0,0.0,0.0,0.0,-1.6109,-1.6119,-1.5744,-1.5583,-1.5163,-1.4495,-1.3684,-1.2789,-1.1805,0.0,0.0,0.0,0.0,0.0,0.0,0.0,0.0,0.0,0.0,0.0,0.0,0.0,0.0,0.0,0.0,0.0,0.0,0.0,0.0,0.0,0.0,0.0,0.0,0.0,0.0,0.0,0.0,0.0,0.0,0.0,0.0,0.0,0.0,0.0,0.0,0.0,0.0,-0.2847,-0.2903,0.0,0.0,0.0,0.0,0.0,0.0,0.0,0.0,-0.0617,0.0,0.0,0.0,0.0,0.0,0.0,0.0,0.0,0.0,0.0,0.0,0.0,0.0,0.0,0.0,0.0,0.0,0.0,0.0,0.0,0.0,0.0,0.0,0.0,0.0,0.0,0.0,0.0,0.0,0.0,0.0,0.0,0.0,0.0,0.0,0.0,0.0,0.0,0.0,0.0,0.0,0.0,0.0,0.0,0.0,0.0,0.0,0.0,0.0,0.0,0.0,0.0,0.0,0.0,0.0,0.0,-1.6743,-1.6459,-1.6437,-1.6626,-1.5904,-1.5298,-1.4815,-1.4303,-1.3517,-1.25,0.0,0.0,0.0,0.0,0.0,0.0,0.0,0.0,0.0,0.0,0.0,0.0,0.0,0.0,0.0,0.0,0.0,0.0,0.0,0.0,0.0,0.0,0.0,0.0,0.0,0.0,0.0,0.0,0.0,0.0,0.0,0.0,0.0,0.0,0.0,0.0,0.0,0.0,0.0,-0.3904,-0.379,0.0,0.0,0.0,0.0,0.0,0.0,0.0,0.0,-0.0869,0.0,0.0,0.0,0.0,0.0,0.0,0.0,0.0,0.0,0.0,0.0,0.0,0.0,0.0,0.0,0.0,0.0,0.0,0.0,0.0,0.0,0.0,0.0,0.0,0.0,0.0,0.0,0.0,0.0,0.0,0.0,0.0,0.0,0.0,0.0,0.0,0.0,0.0,0.0,0.0,0.0,0.0,0.0,0.0,0.0,0.0,0.0,0.0,0.0,0.0,0.0,0.0,0.0,0.0,0.0,-1.792,-1.78,-1.7723,-1.7602,-1.6878,-1.6311,-1.5935,-1.4999,-1.4038,0.0,0.0,0.0,0.0,0.0,0.0,0.0,0.0,0.0,0.0,0.0,0.0,0.0,0.0,0.0,0.0,0.0,0.0,0.0,0.0,0.0,0.0,0.0,0.0,0.0,0.0,0.0,0.0,0.0,0.0,0.0,0.0,0.0,0.0,0.0,0.0,0.0,0.0,0.0,0.0,-0.4325,-0.4211,-0.3378,0.0,0.0,0.0,0.0,0.0,0.0,-0.1903,-0.1902,0.0,0.0,0.0,0.0,0.0,0.0,0.0,0.0,0.0,0.0,0.0,0.0,0.0,0.0,0.0,0.0,0.0,0.0,0.0,0.0,0.0,0.0,0.0,0.0,0.0,0.0,0.0,0.0,0.0,0.0,0.0,0.0,0.0,0.0,0.0,0.0,0.0,0.0,0.0,0.0,0.0,0.0,0.0,0.0,0.0,0.0,0.0,0.0,0.0,0.0,0.0,0.0,0.0,0.0,0.0,-1.9046,-1.906,-1.8839,-1.8385,-1.7687,-1.7144,-1.6849,-1.5614,-1.4545,0.0,0.0,0.0,0.0,0.0,0.0,0.0,0.0,0.0,0.0,0.0,0.0,0.0,0.0,0.0,0.0,0.0,0.0,0.0,0.0,0.0,0.0,0.0,0.0,0.0,0.0,0.0,0.0,0.0,0.0,0.0,0.0,0.0,0.0,0.0,0.0,0.0,0.0,0.0,0.0,0.0,-0.4408,-0.4018,-0.3907,0.0,0.0,0.0,0.0,-0.2792,-0.2847,0.0,0.0,0.0,0.0,0.0,0.0,0.0,0.0,0.0,0.0,0.0,0.0,0.0,0.0,0.0,0.0,0.0,0.0,0.0,0.0,0.0,0.0,0.0,0.0,0.0,0.0,0.0,0.0,0.0,0.0,0.0,0.0,0.0,0.0,0.0,0.0,0.0,0.0,0.0,0.0,0.0,0.0,0.0,0.0,0.0,0.0,0.0,0.0,0.0,0.0,0.0,0.0,0.0,0.0,0.0,0.0,-1.9922,-1.9276,-1.8878,-1.8683,-1.7561,-1.6852,-1.6642,-1.6052,-1.5248,0.0,0.0,0.0,0.0,0.0,0.0,0.0,0.0,0.0,0.0,0.0,0.0,0.0,0.0,0.0,0.0,0.0,0.0,0.0,0.0,0.0,0.0,0.0,0.0,0.0,0.0,0.0,0.0,0.0,0.0,0.0,0.0,0.0,0.0,0.0,0.0,0.0,0.0,0.0,0.0,0.0,-0.466,-0.4605,-0.4577,-0.4408,0.0,0.0,-0.3544,-0.3121,-0.3065,0.0,0.0,0.0,0.0,0.0,0.0,0.0,0.0,0.0,0.0,0.0,0.0,0.0,0.0,0.0,0.0,0.0,0.0,0.0,0.0,0.0,0.0,0.0,0.0,0.0,0.0,0.0,0.0,0.0,0.0,0.0,0.0,0.0,0.0,0.0,0.0,0.0,0.0,0.0,0.0,0.0,0.0,0.0,0.0,0.0,0.0,0.0,0.0,0.0,0.0,0.0,0.0,0.0,0.0,0.0,-2.0797,-2.1274,-2.0729,-2.0315,-2.0041,-1.8881,-1.7996,-1.7448,-1.6625,-1.5745,0.0,0.0,0.0,0.0,0.0,0.0,0.0,0.0,0.0,0.0,0.0,0.0,0.0,0.0,0.0,0.0,0.0,0.0,0.0,0.0,0.0,0.0,0.0,0.0,0.0,0.0,0.0,0.0,0.0,0.0,0.0,0.0,0.0,0.0,0.0,0.0,0.0,0.0,0.0,0.0,0.0,0.0,-0.5123,-0.494,0.0,0.0,0.0,-0.4644,-0.4436,0.0,0.0,0.0,0.0,0.0,0.0,0.0,0.0,0.0,0.0,0.0,0.0,0.0,0.0,0.0,0.0,0.0,0.0,0.0,0.0,0.0,0.0,0.0,0.0,0.0,0.0,0.0,0.0,0.0,0.0,0.0,0.0,0.0,0.0,0.0,0.0,0.0,0.0,0.0,0.0,0.0,0.0,0.0,0.0,0.0,0.0,0.0,0.0,0.0,0.0,0.0,0.0,0.0,0.0,0.0,0.0,0.0,-2.2297,-2.1819,-2.1498,-2.1304,-2.0172,-1.9248,-1.8627,-1.7532,0.0,0.0,0.0,0.0,0.0,0.0,0.0,0.0,0.0,0.0,0.0,0.0,0.0,0.0,0.0,0.0,0.0,0.0,0.0,0.0,0.0,0.0,0.0,0.0,0.0,0.0,0.0,-0.6993,0.0,0.0,0.0,0.0,0.0,0.0,0.0,0.0,0.0,0.0,0.0,0.0,0.0,0.0,-0.5891,-0.5519,-0.5253,-0.5256,0.0,0.0,-0.5498,-0.5536,-0.5642,-0.5638,0.0,0.0,0.0,0.0,0.0,0.0,0.0,0.0,0.0,0.0,0.0,0.0,0.0,0.0,0.0,0.0,0.0,0.0,0.0,0.0,0.0,0.0,0.0,0.0,0.0,0.0,0.0,0.0,0.0,0.0,0.0,0.0,0.0,0.0,0.0,0.0,0.0,0.0,0.0,0.0,0.0,0.0,0.0,0.0,0.0,0.0,0.0,0.0,0.0,0.0,0.0,0.0,0.0,0.0,-2.2616,-2.2628,-2.1879,-2.1733,-2.2068,-2.0886,-2.0174,-2.0032,-1.9021,-1.8056,0.0,0.0,0.0,0.0,0.0,0.0,0.0,0.0,0.0,0.0,0.0,0.0,0.0,0.0,0.0,0.0,0.0,0.0,0.0,0.0,0.0,0.0,0.0,0.0,0.0,0.0,0.0,0.0,0.0,0.0,0.0,0.0,0.0,0.0,0.0,0.0,0.0,0.0,0.0,0.0,0.0,-0.6407,-0.5769,-0.5671,-0.5705,0.0,-0.5751,-0.5721,-0.5858,-0.5862,-0.5669,-0.4961,0.0,0.0,0.0,0.0,0.0,0.0,0.0,0.0,0.0,0.0,0.0,0.0,0.0,0.0,0.0,0.0,0.0,0.0,0.0,0.0,0.0,0.0,0.0,0.0,0.0,0.0,0.0,0.0,0.0,0.0,0.0,0.0,0.0,0.0,0.0,0.0,0.0,0.0,0.0,0.0,0.0,0.0,0.0,0.0,0.0,0.0,0.0,0.0,0.0,0.0,0.0,0.0,0.0,-2.3305,-2.3603,-2.3314,-2.3137,-2.3046,-2.2215,-2.1543,-2.1006,-1.9995,-1.9025,0.0,0.0,0.0,0.0,0.0,0.0,0.0,0.0,0.0,0.0,0.0,0.0,0.0,0.0,0.0,0.0,0.0,0.0,0.0,0.0,0.0,0.0,0.0,0.0,0.0,0.0,0.0,0.0,-0.9241,-0.9449,-0.9499,0.0,0.0,0.0,0.0,0.0,0.0,0.0,0.0,0.0,0.0,-0.7793,-0.7568,-0.6938,0.0,0.0,-0.6612,-0.6274,-0.6233,-0.6217,-0.6117,-0.5822,-0.579,0.0,0.0,0.0,0.0,0.0,0.0,0.0,0.0,0.0,0.0,0.0,0.0,0.0,0.0,0.0,0.0,0.0,0.0,0.0,0.0,0.0,0.0,0.0,0.0,0.0,0.0,0.0,0.0,0.0,0.0,0.0,0.0,0.0,0.0,0.0,0.0,0.0,0.0,0.0,0.0,0.0,0.0,0.0,0.0,0.0,0.0,0.0,0.0,0.0,0.0,0.0,0.0,-2.3877,-2.4395,-2.4407,-2.434,-2.4228,-2.3638,-2.306,-2.2364,-2.109,-2.0017,0.0,0.0,0.0,0.0,0.0,0.0,0.0,0.0,0.0,0.0,0.0,0.0,0.0,0.0,0.0,0.0,0.0,0.0,0.0,0.0,0.0,0.0,0.0,0.0,0.0,0.0,0.0,0.0,-1.0122,-1.0333,-1.0392,0.0,0.0,0.0,0.0,0.0,0.0,0.0,0.0,0.0,0.0,-0.8992,-0.8951,-0.8194,-0.7834,-0.8306,-0.7841,-0.7377,-0.7225,-0.7046,-0.6945,-0.6949,0.0,0.0,0.0,0.0,0.0,0.0,0.0,0.0,0.0,0.0,0.0,0.0,0.0,0.0,0.0,0.0,0.0,0.0,0.0,0.0,0.0,0.0,0.0,0.0,0.0,0.0,0.0,-1.5707,0.0,0.0,-1.7012,0.0,0.0,0.0,0.0,0.0,0.0,0.0,0.0,0.0,0.0,0.0,0.0,0.0,0.0,0.0,0.0,0.0,0.0,0.0,0.0,0.0,0.0,-2.443,-2.4852,-2.49,-2.5142,-2.5585,-2.5127,-2.4664,-2.4276,-2.2442,-2.1104,-2.0459,0.0,0.0,0.0,0.0,0.0,0.0,0.0,0.0,0.0,0.0,0.0,0.0,0.0,0.0,0.0,0.0,0.0,0.0,0.0,0.0,0.0,0.0,0.0,0.0,0.0,0.0,-1.0214,-1.0438,-1.0657,0.0,0.0,0.0,0.0,0.0,0.0,0.0,0.0,0.0,-0.9736,-0.9831,-0.9873,-0.9573,-0.9475,-0.9545,-0.9886,-0.9436,-0.9029,-0.8994,-0.8514,-0.8181,0.0,0.0,0.0,0.0,0.0,0.0,0.0,0.0,0.0,0.0,0.0,0.0,0.0,0.0,0.0,0.0,0.0,0.0,0.0,0.0,0.0,0.0,0.0,0.0,0.0,0.0,0.0,-1.8473,-1.8483,0.0,0.0,0.0,0.0,0.0,0.0,0.0,0.0,0.0,0.0,0.0,-2.2183,-2.2922,0.0,0.0,0.0,0.0,0.0,0.0,0.0,0.0,0.0,0.0,0.0,0.0,-2.5279,-2.544,-2.544,-2.5532,-2.5704,-2.5543,-2.5375,-2.526,-2.4338,-2.303,-2.1302,0.0,0.0,0.0,0.0,0.0,0.0,0.0,0.0,0.0,0.0,0.0,0.0,0.0,0.0,0.0,0.0,0.0,0.0,0.0,0.0,0.0,0.0,0.0,0.0,0.0,-1.0965,0.0,0.0,0.0,0.0,0.0,0.0,0.0,0.0,0.0,0.0,-1.1808,-1.1775,-1.1565,-1.1327,-1.1296,-1.1458,-1.0924,-1.0548,0.0,0.0,0.0,0.0,0.0,0.0,0.0,0.0,0.0,0.0,0.0,0.0,0.0,0.0,-0.7099,-0.6328,-0.6184,-0.5977,-0.546,0.0,0.0,0.0,0.0,0.0,0.0,0.0,0.0,0.0,0.0,0.0,0.0,0.0,0.0,-2.0298,-2.0333,-2.0369,0.0,0.0,0.0,0.0,0.0,0.0,0.0,0.0,-2.357,-2.3766,-2.4155,-2.4658,-2.5122,-2.5527,-2.566,-2.5326,0.0,0.0,0.0,0.0,0.0,0.0,0.0,0.0,-2.6016,-2.619,-2.6135,-2.6166,-2.6327,-2.6099,-2.598,-2.5968,-2.52,-2.3903,-2.211,-2.1438,-2.0406,0.0,0.0,0.0,0.0,0.0,0.0,0.0,0.0,0.0,0.0,0.0,0.0,0.0,0.0,0.0,0.0,0.0,0.0,0.0,0.0,0.0,0.0,0.0,-1.2154,0.0,0.0,0.0,0.0,0.0,0.0,0.0,0.0,0.0,-1.3005,-1.2923,-1.2923,-1.2923,-1.2654,-1.2596,-1.3014,0.0,0.0,0.0,0.0,0.0,0.0,0.0,-0.9873,-0.9479,-0.9129,-0.8768,-0.8447,-0.837,-0.8374,-0.8374,0.0,0.0,-0.737,-0.7206,-0.7059,-0.6587,-0.5997,-0.5504,-0.5221,-0.4426,-0.3756,0.0,0.0,0.0,0.0,-2.1358,0.0,0.0,0.0,-2.1298,-2.1309,0.0,-2.1528,0.0,0.0,0.0,0.0,-2.4548,-2.4684,0.0,0.0,-2.524,-2.5735,-2.5789,-2.6486,-2.6885,-2.6922,-2.6898,-2.6922,-2.6884,-2.6531,0.0,0.0,0.0,0.0,0.0,0.0,-2.66,-2.7082,-2.692,-2.7046,-2.7424,-2.6846,-2.6524,-2.6485,-2.5103,-2.3926,-2.3041,-2.2767,-2.2079,-2.083,-2.0397,0.0,0.0,0.0,0.0,0.0,0.0,0.0,0.0,0.0,0.0,0.0,0.0,0.0,0.0,0.0,0.0,0.0,0.0,0.0,0.0,-1.3708,0.0,0.0,0.0,0.0,0.0,0.0,0.0,0.0,0.0,-1.4164,-1.3894,-1.3772,-1.374,-1.3731,0.0,0.0,0.0,0.0,-1.3792,-1.4078,-1.3317,-1.27,-1.2627,-1.2146,-1.1732,-1.1695,0.0,0.0,-0.9022,-0.8832,-0.8832,-0.8799,-0.8832,-0.8524,-0.7834,-0.7695,-0.753,-0.7164,-0.6646,-0.6269,-0.6197,-0.5747,-0.535,-2.6193,0.0,0.0,0.0,0.0,-2.5253,-2.4909,-2.4401,-2.4401,-2.4363,-2.4412,-2.445,0.0,0.0,0.0,0.0,0.0,0.0,-2.6188,-2.6095,-2.6403,-2.6546,-2.6572,-2.6784,-2.709,-2.745,-2.7462,-2.7654,-2.8041,-2.7936,-2.7654,-2.7296,0.0,0.0,0.0,0.0,-2.7505,-2.7646,-2.7618,-2.7556,-2.751,-2.7302,-2.7152,-2.7001,-2.6569,-2.5783,-2.46,-2.4354,-2.3645,-2.2322,-2.201,0.0,0.0,0.0,0.0,0.0,0.0,0.0,0.0,0.0,0.0,0.0,0.0,0.0,0.0,0.0,0.0,0.0,0.0,0.0,-1.37,-1.3924,-1.4138,0.0,0.0,0.0,0.0,0.0,0.0,0.0,0.0,0.0,-1.5984,-1.5007,-1.4434,0.0,0.0,-1.4912,-1.5271,-1.5237,-1.5202,-1.5304,-1.5048,0.0,-1.3844,-1.3575,-1.3229,-1.2544,-1.2193,-1.1875,-1.16,-1.1162,-1.0847,-1.0841,-1.0423,-0.9905,-0.9419,-0.8799,-0.8393,-0.8179,-0.7742,-0.7354,-0.7309,-0.664,-0.5982,-2.8462,-2.8074,-2.7258,-2.6885,-2.6885,-2.6885,-2.6621,-2.6191,-2.618,-2.6191,-2.618,-2.6168,-2.642,-2.691,-2.7114,0.0,0.0,0.0,-2.7414,-2.7222,-2.7426,-2.7522,-2.756,-2.751,-2.7717,-2.799,-2.8029,-2.8198,-2.851,-2.851,-2.8354,-2.8053,0.0,-2.7989,-2.8299,-2.8203,-2.8122,-2.8122,-2.8042,-2.795,-2.7765,-2.7696,-2.7534,-2.733,-2.7342,-2.6896,-2.6021,-2.5854,-2.5175,-2.3889,-2.3685,-2.3287,0.0,0.0,0.0,0.0,0.0,0.0,0.0,0.0,0.0,0.0,0.0,-1.6057,-1.5757,0.0,0.0,0.0,-1.5243,-1.5243,-1.5243,-1.533,0.0,0.0,0.0,0.0,0.0,0.0,0.0,-1.6593,-1.6773,-1.6918,-1.6872,-1.6108,-1.5614,-1.5856,-1.5889,-1.5979,-1.6201,0.0,-1.5988,-1.5988,-1.5881,-1.5574,-1.4941,-1.4824,-1.4545,-1.3724,-1.3567,-1.3449,-1.3245,-1.2837,-1.2566,-1.2334,-1.1976,-1.1462,-1.0813,-1.0216,-0.9611,-0.8995,-0.8471,-0.8183,-0.8141,-0.7636,-0.7188,-3.0146,-2.9989,-2.8017,-2.7162,-2.715,-2.715,-2.715,-2.7138,-2.7114,-2.709,-2.7078,-2.7042,-2.703,-2.7042,-2.7522,0.0,-2.7762,-2.8282,-2.8234,-2.7762,-2.8242,-2.8534,-2.857,-2.857,-2.8595,-2.8643,-2.8631,-2.8631,-2.8655,-2.8655,-2.8631,-2.8643,-2.8631,-2.8595,-2.851,-2.851,-2.851,-2.851,-2.8299,-2.8219,-2.8179,-2.8002,-2.7788,-2.7563,-2.7522,-2.7412,-2.7219,-2.7231,-2.6635,-2.5433,-2.5348,-2.4684,-2.3276,0.0,0.0,0.0,0.0,0.0,0.0,0.0,0.0,0.0,0.0,0.0,0.0,0.0,0.0,-1.7623,-1.7614,0.0,-1.7614,-1.7371,0.0,0.0,0.0,-1.7016,-1.7051,-1.7051,-1.7051,-1.7051,0.0,0.0,-1.7093,-1.7119,-1.7136,-1.7098,-1.7021,-1.6978,-1.6966,-1.6678,-1.6436,-1.6486,-1.6201,-1.5978,-1.5957,-1.5863,-1.5638,-1.5116,-1.5048,-1.4844,-1.4366,-1.4155,-1.3944,-1.3584,-1.3431,-1.3041,-1.2009,-1.1715,-1.1261,-0.9592,-0.9028,-0.8794,-0.8803,-0.8722,-0.8636,-3.073,-3.0657,-2.9725,-2.934,-2.934,-2.934,-2.934,-2.9304,-2.8919,-2.8739,-2.8703,-2.8306,-2.8138,-2.8138,-2.827,-2.833,-2.8318,-2.845,-2.845,-2.8342,-2.8462,-2.8727,-2.9112,-2.9112,-2.9328,-2.9689,-2.9713,-2.9713,-2.9713,-2.9713,-2.9713,-2.9713,-2.9725,-2.9316,-2.8546,-2.851,-2.851,-2.851,-2.8471,-2.8339,-2.8219,-2.799,-2.7881,-2.78,-2.7615,-2.7482,-2.7441,-2.7301,-2.704,-2.6762,-2.6751,-2.6222,-2.5191,-2.5609,0.0,0.0,0.0,0.0,0.0,0.0,0.0,0.0,0.0,-1.9193,-1.883,0.0,-1.9247,0.0,-1.7614,-1.7614,-1.7614,-1.7539,0.0,0.0,-1.784,-1.7925,-1.8224,-1.8259,-1.8259,-1.8268,-1.8554,-1.8739,-1.873,-1.8813,-1.8872,-1.8854,-1.7989,-1.7441,-1.7675,-1.7647,-1.7607,-1.7607,-1.7479,-1.7376,-1.7047,-1.6694,-1.6444,-1.6314,-1.6282,-1.6233,-1.6064,-1.5642,-1.5268,-1.5097,-1.4687,-1.3987,-1.2935,-1.2591,-1.2034,-1.081,-1.0095,-0.9692,-0.9692,-0.9452,-0.9216,-3.1949,-3.1925,-3.1637,-3.1517,-3.1444,-3.0494,-3.0086,-3.0062,-2.9785,-2.9653,-2.9629,-2.934,-2.9208,-2.9208,-2.922,-2.9208,-2.9208,-2.922,-2.9208,-2.9208,-2.922,-2.9364,-2.9653,-2.9653,-2.9809,-3.0086,-3.0086,-3.0086,-3.0086,-3.0086,-3.0086,-3.0086,-3.0086,-2.9785,-2.9232,-2.922,-2.922,-2.9208,-2.922,-2.9047,-2.871,-2.8576,-2.836,-2.8054,-2.7898,-2.7765,-2.7696,-2.7557,-2.7435,-2.733,-2.733,-2.7074,-2.6475,-2.666,-2.6206,0.0,0.0,0.0,0.0,0.0,0.0,0.0,0.0,0.0,0.0,0.0,-2.0115,-1.8973,-1.8885,-1.8876,-1.8885,-1.8806,-1.8816,-1.9021,-1.895,-1.8998,-1.922,-1.9247,-1.9247,-1.9256,-1.9434,-1.9567,-1.9567,-1.9618,-1.9674,-1.9665,-1.9029,-1.8583,-1.8535,-1.8537,-1.8554,-1.8545,-1.8545,-1.8462,-1.8213,-1.7996,-1.7837,-1.7795,-1.7787,-1.7829,-1.7787,-1.7373,-1.6929,-1.6705,-1.6265,-1.5545,-1.4434,-1.4116,-1.3629,-1.2409,-1.1689,-1.1106,-1.0426,-1.0095,-0.9943,-3.338,-3.338,-3.332,-3.3284,-3.314,-3.1288,-3.0458,-3.0386,-3.0326,-3.0206,-3.0086,-3.0086,-3.0086,-3.0086,-3.0086,-3.0086,-3.0086,-3.0086,-3.0086,-3.0086,-3.0086,-3.0164,-3.0182,-3.0182,-3.0218,-3.029,-3.029,-3.029,-3.029,-3.029,-3.0332,-3.029,-3.0332,-3.029,-3.029,-3.0278,-3.0218,-3.0098,-3.0086,-2.9869,-2.9412,-2.94,-2.909,-2.8486,-2.8362,-2.8205,-2.8068,-2.7968,-2.7788,-2.7574,-2.7563,-2.7493,-2.7313,-2.7313,-2.6921,0.0,-2.608,0.0,0.0,0.0,0.0,0.0,0.0,0.0,0.0,-2.1816,-2.088,-2.1006,-2.0922,-2.0838,-2.0838,-2.0614,-2.0446,-2.0404,-2.0141,-2.0005,-1.9963,-1.9963,-1.9963,-1.9954,-2.0007,-2.0043,-2.0077,-2.0079,-2.0081,-2.0116,-2.0047,-1.984,-1.9514,-1.9333,-1.9281,-1.9307,-1.9256,-1.9161,-1.9102,-1.9136,-1.9093,-1.9153,-1.9076,-1.9179,-1.9093,-1.8837,-1.8489,-1.8121,-1.7805,-1.7228,-1.6163,-1.5921,-1.5371,-1.3786,-1.3224,-1.2584,-1.117,-1.0726,-1.0683,-3.385,-3.3814,-3.3452,-3.3284,-3.3248,-3.2851,-3.243,-3.2022,-3.1609,-3.0922,-3.0098,-3.0086,-3.0086,-3.0086,-3.0086,-3.0086,-3.0086,-3.0086,-3.0086,-3.0086,-3.0086,-3.0314,-3.0754,-3.0766,-3.0995,-3.1392,-3.1416,-3.1416,-3.1404,-3.1404,-3.1416,-3.1404,-3.1404,-3.1404,-3.1404,0.0,0.0,0.0,-3.0086,-3.0025,-2.9941,-2.9941,-2.9893,-2.9743,-2.9159,0.0,-2.8756,-2.8226,-2.7893,-2.7841,-2.7841,0.0,0.0,0.0,0.0,0.0,0.0,0.0,0.0,0.0,0.0,0.0,-2.6214,-2.5259,-2.4306,-2.3323,-2.3041,-2.3674,-2.3162,-2.2757,-2.2757,-2.2032,-2.1598,-2.1556,-2.0848,-2.0395,-2.0395,-2.0395,-2.0395,-2.0395,-2.0668,-2.0859,-2.0878,-2.1029,-2.1104,-2.1077,-2.0918,-2.0775,-2.0669,-2.0157,-1.9777,-1.9759,-1.9641,-1.9393,-1.9213,-1.9247,-1.929,-1.9179,-1.9179,-1.9239,-1.9247,-1.9196,-1.911,-1.8931,-1.888,-1.8455,-1.738,-1.718,-1.653,-1.4559,-1.4116,-1.3523,-1.1875,-1.1342,-1.1171,-3.4774,-3.475,-3.4542,-3.4433,0.0,-3.4433,-3.4035,-3.3409,-3.2786,-3.201,-3.1288,-3.1276,-3.112,-3.091,-3.0867,-3.0867,-3.0922,-3.1156,-3.1276,-3.13,-3.1553,-3.1817,-3.207,-3.207,-3.2202,-3.2454,-3.2466,-3.2466,-3.2478,-3.2466,-3.2466,-3.2466,-3.2512,-3.2512,-3.2512,-3.2512,-3.1982,-3.0867,-3.0867,-3.0747,-3.0537,-3.0513,-3.035,-3.0098,-2.9738,0.0,0.0,0.0,0.0,0.0,0.0,0.0,0.0,-2.7881,0.0,-2.7881,-2.7441,-2.7226,-2.7185,-2.6753,-2.6723,-2.7185,-2.7185,-2.6497,-2.4916,-2.4434,-2.4311,-2.4598,-2.427,-2.3991,-2.3888,-2.3472,-2.302,-2.2546,-2.2451,-2.2163,-2.1333,-2.153,-2.1779,-2.1755,-2.1544,-2.1542,-2.2004,-2.1708,-2.1562,-2.1562,-2.1419,-2.132,-2.1293,-2.0846,-2.0455,-2.0447,-2.0359,-2.0237,-2.0105,-2.0105,-2.0061,-2.007,-1.9982,-1.9938,-1.9938,-1.966,-1.9453,-1.9444,-1.9316,-1.8947,-1.8535,-1.8319,-1.7869,-1.6455,-1.5963,-1.5273,-1.3573,-1.258,-1.2004,-3.5842,-3.5756,-3.5756,-3.5706,-3.5633,-3.5633,-3.5219,-3.453,-3.3689,0.0,0.0,-3.2635,-3.2382,-3.2006,-3.1994,-3.1994,-3.203,-3.243,-3.2647,-3.2659,-3.308,-3.3284,-3.3284,-3.3284,-3.3284,-3.3284,-3.3284,-3.3284,-3.3284,-3.3284,-3.3284,-3.3284,-3.3284,-3.3284,-3.3284,-3.3284,-3.2851,-3.2042,-3.191,-3.1645,-3.1223,-3.1115,-3.0862,-3.0374,-3.0278,-3.023,-3.0218,-3.0134,-2.9851,-2.9242,-2.9218,-2.8916,-2.8349,-2.8273,-2.8238,-2.8103,-2.7434,-2.6944,-2.6864,-2.6141,-2.6058,-2.6812,-2.7563,-2.7319,-2.5724,-2.5599,-2.5515,-2.5347,-2.5347,-2.5316,-2.5126,-2.4956,-2.4563,-2.378,-2.4092,-2.3617,-2.228,-2.2457,-2.2717,-2.2755,-2.2085,-2.1989,-2.2604,-2.2113,-2.1687,-2.1687,-2.1687,-2.1687,-2.1642,-2.1329,-2.1105,-2.1016,-2.0989,-2.1006,-2.0979,-2.0953,-2.0997,-2.0881,-2.0782,-2.0699,-2.061,-2.0223,-1.9855,-1.9838,-1.9564,-1.9436,-1.9393,-1.9384,-1.9055,-1.8149,-1.7834,-1.7157,-1.5341,-1.4085,-1.3186,-3.6764,-3.6321,-3.6309,-3.599,-3.5633,-3.5633,-3.5523,-3.5316,-3.3893,-3.3248,-3.3176,-3.3188,-3.314,-3.3068,-3.3068,-3.3056,-3.3068,-3.314,-3.3176,-3.3176,-3.326,-3.3284,-3.3284,-3.3284,-3.3284,-3.3284,-3.3296,-3.3284,-3.3284,-3.3296,-3.3284,-3.3296,-3.3284,-3.3308,-3.3284,-3.3284,-3.3212,-3.3044,-3.2611,-3.2346,-3.2274,-3.1805,-3.1573,-3.1476,-3.1055,-3.0771,-3.0759,-3.0338,-3.005,-2.9947,-2.9935,-2.9899,-2.9798,-2.9762,-2.9582,-2.915,-2.898,-2.8683,-2.8255,-2.8087,-2.8087,-2.8207,-2.8339,-2.8151,-2.7574,-2.7493,-2.7493,-2.7464,-2.736,-2.7464,-2.7371,-2.667,-2.611,-2.585,-2.4532,-2.3434,-2.3052,-2.2467,-2.2033,-2.2033,-2.182,-2.1731,-2.1989,-2.1865,-2.1687,-2.1687,-2.1687,-2.1687,-2.1687,-2.1651,-2.1517,-2.1392,-2.1347,-2.1248,-2.1096,-2.0997,-2.1042,-2.0997,-2.0871,-2.0744,-2.0744,-2.0449,-2.0262,-2.0206,-2.0148,-2.0131,-2.0086,-2.0138,-1.9701,-1.8883,-1.8648,-1.7972,-1.6158,-1.5471,-1.4746,-3.7518,-3.7307,-3.7258,-3.7109,-3.6848,-3.6465,-3.6072,-3.574,-3.4772,-3.4147,-3.3905,-3.374,-3.3549,-3.3296,-3.3284,-3.3284,-3.3296,-3.3573,-3.3693,-3.3729,-3.3994,-3.4126,-3.4126,-3.4126,-3.4126,-3.4126,-3.4126,-3.4126,-3.4114,-3.4114,-3.4126,-3.4126,-3.4126,-3.4126,-3.4126,-3.4126,-3.4126,-3.4102,-3.3332,-3.2923,-3.2923,-3.2683,-3.2584,-3.2551,-3.2298,-3.2046,-3.1769,-3.1529,-3.1132,-3.053,-3.0518,-3.0429,-3.011,-3.0086,-2.9977,-2.9737,-2.9725,-2.9617,-2.9376,-2.9376,-2.9364,-2.9376,-2.9364,-2.9282,-2.9129,-2.8564,-2.8203,-2.8082,-2.807,-2.799,-2.7921,-2.7493,-2.6876,-2.5902,-2.5316,-2.4425,-2.3028,-2.2765,-2.2633,-2.2422,-2.1989,-2.1909,-2.2422,-2.2043,-2.1687,-2.1687,-2.1687,-2.1687,-2.1687,-2.1687,-2.1651,-2.1571,-2.1571,-2.1517,-2.1419,-2.1365,-2.1365,-2.1365,-2.1203,-2.1069,-2.1069,-2.0835,-2.0654,-2.0564,-2.0518,-2.0428,-2.0337,-2.0292,-2.0056,-1.9828,-1.9629,-1.8934,-1.7762,-1.6633,-1.5222,-3.8304,-3.8203,-3.8203,-3.8128,-3.7965,-3.7342,-3.6771,-3.625,-3.5732,-3.5246,-3.4734,-3.4365,-3.3994,-3.3657,-3.3645,-3.3645,-3.3693,-3.403,-3.4162,-3.421,-3.4583,-3.4775,-3.4775,-3.4775,-3.4775,-3.4775,-3.4775,-3.4775,-3.4775,-3.4775,-3.4775,-3.4775,-3.4775,-3.4775,-3.4775,-3.4775,-3.4775,-3.4727,-3.4054,-3.3585,-3.3464,-3.3344,-3.3284,-3.3284,-3.3284,-3.3104,-3.2707,-3.2671,-3.2298,-3.1536,-3.13,-3.106,-3.0663,-3.0506,-3.0398,-3.029,-3.0266,-3.0218,-3.0098,-3.0086,-3.0001,-2.9779,-2.9779,-2.9767,-2.9719,-2.8999,-2.8576,-2.8605,-2.8664,-2.8612,-2.8485,-2.842,-2.783,-2.6526,-2.6621,-2.6074,-2.4058,-2.3785,-2.3785,-2.3423,-2.2577,-2.2227,-2.259,-2.2213,-2.1731,-2.1687,-2.1687,-2.1687,-2.1687,-2.1687,-2.1687,-2.1687,-2.1687,-2.1687,-2.1687,-2.1687,-2.1687,-2.1687,-2.1526,-2.1392,-2.1302,-2.115,-2.0952,-2.0781,-2.0736,-2.0645,-2.0473,-2.0382,-2.0337,-2.0238,-2.0147,-1.9866,-1.8796,-1.6821,-1.5231,-3.9233,-3.8818,-3.8793,-3.8479,-3.804,-3.7903,-3.7577,-3.71,-3.676,-3.6377,-3.5787,-3.5054,-3.4739,-3.4691,-3.4655,-3.4631,-3.4643,-3.4727,-3.4739,-3.4739,-3.4751,-3.4775,-3.4775,-3.4775,-3.4775,-3.4775,-3.4775,-3.4775,-3.4775,-3.4775,-3.4775,-3.4775,-3.4775,-3.4775,-3.4775,-3.4775,-3.4775,-3.4775,-3.4739,-3.4451,-3.3934,-3.3525,-3.3284,-3.3284,-3.3296,-3.3272,-3.3224,-3.3224,-3.3164,-3.3032,-3.2587,-3.2322,-3.2226,-3.1793,-3.1356,-3.0922,-3.0862,-3.0591,-3.017,-3.0086,-2.9784,-2.8838,-2.8896,-2.8896,-2.8896,-2.8694,-2.8966,-2.9624,-2.9899,-2.9803,-2.9887,-2.9768,-2.9445,-2.8869,-2.8328,-2.8076,-2.726,-2.6136,-2.4922,-2.4695,-2.3353,-2.2592,-2.2454,-2.2106,-2.1769,-2.1815,-2.1787,-2.176,-2.1751,-2.1705,-2.1687,-2.1687,-2.1687,-2.1687,-2.1687,-2.1687,-2.1687,-2.1696,-2.1517,-2.1437,-2.1392,-2.1239,-2.0997,-2.1006,-2.0952,-2.0916,-2.0744,-2.0654,-2.0564,-2.0374,-2.0238,-1.992,-1.8788,-1.6633,-1.4686,-3.9572,-3.9371,-3.9358,-3.9032,-3.8555,-3.8504,-3.8191,-3.7639,-3.7405,-3.7133,-3.6923,-3.6456,-3.5917,-3.5296,-3.5271,-3.5271,-3.5271,-3.5259,-3.5175,-3.503,-3.503,-3.4981,-3.4823,-3.4775,-3.4775,-3.4775,-3.4775,-3.4775,-3.4775,-3.4775,-3.4775,-3.4775,-3.4775,-3.4775,-3.4775,-3.4775,-3.4775,-3.4775,-3.4775,-3.4667,-3.4474,-3.4318,-3.4198,-3.4198,-3.4198,-3.403,-3.3765,-3.3729,-3.3597,-3.3308,-3.308,-3.2959,-3.2971,-3.2743,-3.2539,-3.2298,-3.1997,-3.1601,-3.1091,-3.1067,-3.0881,-3.0422,-3.0422,-3.0434,-3.0422,-2.9927,-2.9739,-3.0045,-3.0105,-2.9863,-2.9355,-2.9192,-2.8806,-2.7787,-2.7128,-2.6685,-2.5868,-2.5164,-2.4441,-2.4144,-2.366,-2.3186,-2.2945,-2.2594,-2.2419,-2.2373,-2.2227,-2.2044,-2.2025,-2.1842,-2.1696,-2.1687,-2.1687,-2.1687,-2.1687,-2.1687,-2.1687,-2.1696,-2.1651,-2.1607,-2.1562,-2.1517,-2.141,-2.1284,-2.1239,-2.1141,-2.0916,-2.0744,-2.0654,-2.0419,-1.9675,-1.9117,-1.8133,-1.6452,-1.514,-3.9697,-3.9697,-3.9697,-3.9459,-3.9158,-3.9094,-3.8781,-3.8278,-3.8029,-3.7892,-3.7693,-3.7556,-3.7035,-3.6319,-3.6099,-3.5989,-3.5842,-3.5745,-3.5563,-3.5187,-3.5126,-3.503,-3.492,-3.4835,-3.4823,-3.4872,-3.4835,-3.4775,-3.4775,-3.4775,-3.4775,-3.4775,-3.4775,-3.4775,-3.4775,-3.4775,-3.4775,-3.4775,-3.4775,-3.4775,-3.4763,-3.4775,-3.4775,-3.4775,-3.4775,-3.4595,-3.4222,-3.421,-3.4042,-3.3729,-3.3585,-3.3489,-3.3501,-3.3368,-3.3284,-3.326,-3.2935,-3.2539,-3.2175,-3.2163,-3.2016,-3.1734,-3.1496,-3.1382,-3.1496,-3.0778,-3.0353,-3.0583,-3.0522,-3.0089,-2.8828,-2.863,-2.7999,-2.6798,-2.6582,-2.6206,-2.5603,-2.5176,-2.4925,-2.4568,-2.4313,-2.3786,-2.3364,-2.3084,-2.2934,-2.2812,-2.262,-2.2446,-2.2428,-2.2227,-2.2025,-2.1879,-2.1861,-2.1806,-2.1723,-2.1687,-2.1687,-2.1687,-2.1696,-2.1696,-2.1687,-2.1687,-2.1696,-2.1472,-2.1472,-2.1338,-2.1051,-2.0871,-2.0699,-2.0419,-1.9629,-1.865,-1.8141,-1.6734,-1.5656,-3.9697,-3.9697,-3.9697,-3.9672,-3.9647,-3.9634,-3.9346,-3.8831,-3.8818,-3.8542,-3.8078,-3.8028,-3.7953,-3.7841,-3.7456,-3.6924,-3.6383,-3.6198,-3.5856,-3.5357,-3.5053,-3.5005,-3.5175,-3.492,-3.4957,-3.5211,-3.5028,-3.4883,-3.4847,-3.4823,-3.4775,-3.4859,-3.4871,-3.4823,-3.4919,-3.4883,-3.4859,-3.4895,-3.4895,-3.4823,-3.4823,-3.4823,-3.4847,-3.4823,-3.4775,-3.4751,-3.4715,-3.4787,-3.4751,-3.4691,-3.421,-3.3958,-3.3922,-3.3585,-3.3356,-3.332,-3.3284,-3.319,-3.3118,-3.2965,-3.2593,-3.1783,-3.0836,-3.0615,-3.1443,-3.0611,-3.0323,-3.1333,-3.1056,-3.033,-2.8907,-2.856,-2.8492,-2.8239,-2.8329,-2.8168,-2.8236,-2.6982,-2.6927,-2.637,-2.532,-2.4412,-2.3505,-2.3299,-2.3251,-2.3081,-2.2913,-2.2876,-2.2858,-2.284,-2.262,-2.2364,-2.2227,-2.2171,-2.1806,-2.1696,-2.1696,-2.1687,-2.1687,-2.1687,-2.1687,-2.1687,-2.1696,-2.1696,-2.1651,-2.1463,-2.1132,-2.0907,-2.0736,-2.0275,-1.9347,-1.8511,-1.8048,-1.6828,-1.5704,-3.9697,-3.9697,-3.9697,-3.9697,-3.9697,-3.9697,-3.9584,-3.9396,-3.9408,-3.9283,-3.912,-3.9082,-3.9082,-3.9082,-3.8929,-3.8328,-3.7481,-3.7332,-3.7109,-3.6727,-3.6431,-3.6294,-3.6183,-3.5945,-3.5833,-3.5945,-3.5883,-3.5833,-3.5833,-3.5833,-3.5833,-3.5833,-3.5833,-3.5845,-3.5833,-3.5833,-3.5833,-3.5833,-3.5833,-3.5833,-3.5809,-3.5833,-3.5689,-3.534,-3.4955,-3.4775,-3.4775,-3.4775,-3.4775,-3.4775,-3.4595,-3.4486,-3.4486,-3.4378,-3.4114,-3.3719,-3.3125,-3.2591,-3.2205,-3.1565,-3.1086,-3.0689,-3.0301,-3.0177,-3.0398,-2.9704,-2.9261,-2.9469,-2.8985,-2.827,-2.7955,-2.7928,-2.7829,-2.6996,-2.6802,-2.6928,-2.6754,-2.6466,-2.6187,-2.6032,-2.546,-2.4929,-2.4544,-2.4284,-2.4042,-2.3918,-2.3549,-2.3306,-2.3242,-2.3087,-2.2876,-2.2739,-2.2675,-2.2638,-2.2529,-2.197,-2.1696,-2.1696,-2.1687,-2.1687,-2.1687,-2.1687,-2.1696,-2.1696,-2.1687,-2.1642,-2.132,-2.1042,-2.0871,-2.0456,-1.9484,-1.865,-1.7855,-1.664,-1.5561,-3.9697,-3.9697,-3.9697,-3.9697,-3.9697,-3.9697,-3.9697,-3.9697,-3.9697,-3.9697,-3.9697,-3.9697,-3.9697,-3.9697,-3.9697,-3.9308,-3.8567,-3.8266,-3.7979,-3.7606,-3.7369,-3.7168,-3.7017,-3.6715,-3.6563,-3.6601,-3.6449,-3.6411,-3.6411,-3.6411,-3.6411,-3.6398,-3.6411,-3.6411,-3.6411,-3.6411,-3.6411,-3.6411,-3.6411,-3.6398,-3.6411,-3.6411,-3.6254,-3.5881,-3.5471,-3.516,-3.4811,-3.4775,-3.4775,-3.4775,-3.4775,-3.4775,-3.4775,-3.4775,-3.4619,-3.4198,-3.3245,-3.2509,-3.2054,-3.1096,-3.0564,-3.0465,-3.0167,-3.0056,-3.0355,-2.9566,-2.9011,-2.8757,-2.8411,-2.7837,-2.7402,-2.7602,-2.7342,-2.6339,-2.6093,-2.6103,-2.6093,-2.6152,-2.6103,-2.5977,-2.5654,-2.5382,-2.5186,-2.4824,-2.4559,-2.444,-2.3984,-2.3749,-2.3694,-2.3538,-2.3215,-2.3133,-2.3105,-2.3014,-2.2858,-2.2437,-2.208,-2.2025,-2.1815,-2.1769,-2.1769,-2.1751,-2.1723,-2.1705,-2.1687,-2.1642,-2.1508,-2.123,-2.0961,-2.0645,-2.0039,-1.9209,-1.7948,-1.6452,-1.5561,-3.9697,-3.9697,-3.9697,-3.9697,-3.9697,-3.9697,-3.9697,-3.9697,-3.9697,-3.9697,-3.9697,-3.9697,-3.9697,-3.9697,-3.9697,-3.9647,-3.942,-3.8853,-3.8315,-3.7842,-3.7554,-3.7554,-3.7655,-3.7189,-3.7112,-3.7239,-3.6737,-3.6483,-3.6606,-3.6579,-3.6567,-3.6495,-3.6555,-3.6615,-3.6471,-3.6567,-3.6507,-3.6555,-3.6579,-3.6531,-3.6435,-3.6543,-3.6519,-3.6423,-3.6362,-3.5918,-3.4907,-3.4835,-3.4847,-3.4823,-3.4787,-3.4775,-3.4775,-3.4775,-3.4763,-3.4569,-3.3735,-3.3178,-3.2932,-3.1871,-3.1014,-3.0963,-3.0379,-3.0088,-3.0613,-3.014,-2.9579,-2.9506,-2.9464,-2.9142,-2.7934,-2.7774,-2.7557,-2.708,-2.6865,-2.6855,-2.6914,-2.6973,-2.6846,-2.6445,-2.6054,-2.5537,-2.5107,-2.4958,-2.482,-2.4449,-2.4196,-2.4119,-2.4101,-2.4045,-2.3914,-2.3666,-2.3499,-2.3425,-2.3169,-2.2885,-2.2638,-2.24,-2.2108,-2.1934,-2.197,-2.197,-2.1897,-2.1861,-2.1714,-2.166,-2.1562,-2.1329,-2.1051,-2.0736,-2.0184,-1.9438,-1.818,-1.6828,-1.5798,-3.9697,-3.9697,-3.9697,-3.9697,-3.9697,-3.9697,-3.9697,-3.9697,-3.9697,-3.9697,-3.9697,-3.9697,-3.9697,-3.9697,-3.9697,-3.9697,-3.9672,-3.9393,-3.9231,-3.9004,-3.8775,-3.866,-3.866,-3.8364,-3.8246,-3.8233,-3.7962,-3.7742,-3.773,-3.7561,-3.7481,-3.7493,-3.7469,-3.7493,-3.7445,-3.7493,-3.7493,-3.7493,-3.7493,-3.7493,-3.7493,-3.7481,-3.7324,-3.6988,-3.694,-3.6603,-3.5954,-3.5569,-3.5388,-3.5364,-3.4967,-3.4775,-3.4775,-3.4775,-3.4775,-3.4628,-3.3051,-3.2083,-3.188,-3.0453,-2.9418,-2.9323,-2.9016,-2.8963,-2.927,-2.9059,-2.8857,-2.8804,-2.8794,-2.8512,-2.8231,-2.8096,-2.7783,-2.71,-2.7012,-2.706,-2.709,-2.7041,-2.6963,-2.6855,-2.6699,-2.6413,-2.5961,-2.5676,-2.5213,-2.4712,-2.4418,-2.4229,-2.4211,-2.4211,-2.4192,-2.4027,-2.3941,-2.3877,-2.3666,-2.3455,-2.3197,-2.2922,-2.2593,-2.2291,-2.2272,-2.2227,-2.2144,-2.2062,-2.1897,-2.1743,-2.1626,-2.1473,-2.1275,-2.051,-1.9704,-1.9018,-1.8326,-1.7203,-1.5893,-3.9697,-3.9697,-3.9697,-3.9697,-3.9697,-3.9697,-3.9697,-3.9697,-3.9697,-3.9697,-3.9697,-3.9697,-3.9697,-3.9697,-3.9697,-3.9697,-3.9697,-3.9697,-3.9697,-3.9697,-3.953,-3.9426,-3.9426,-3.9154,-3.8893,-3.8788,-3.8631,-3.8473,-3.8356,-3.825,-3.8092,-3.8027,-3.7974,-3.795,-3.7974,-3.7974,-3.7974,-3.7974,-3.7962,-3.7974,-3.7974,-3.7974,-3.7829,-3.7529,-3.7493,-3.7312,-3.6976,-3.6113,-3.5631,-3.5657,-3.5042,-3.4521,-3.4447,-3.3936,-3.361,-3.325,-3.2072,-3.0959,-3.0805,-2.9365,-2.8301,-2.8301,-2.8301,-2.8291,-2.8301,-2.8291,-2.8301,-2.8301,-2.8291,-2.8301,-2.8291,-2.8291,-2.8018,-2.7568,-2.7519,-2.749,-2.748,-2.7353,-2.7275,-2.7226,-2.71,-2.6844,-2.6497,-2.6249,-2.5673,-2.5123,-2.4771,-2.4421,-2.4325,-2.4211,-2.4211,-2.4211,-2.4156,-2.4128,-2.4146,-2.396,-2.3794,-2.351,-2.3151,-2.2858,-2.2693,-2.2611,-2.2519,-2.251,-2.2391,-2.219,-2.2099,-2.1926,-2.1662,-2.0557,-1.9671,-1.8826,-1.818,-1.664,-1.5425,-3.9697,-3.9697,-3.9697,-3.9697,-3.9697,-3.9697,-3.9697,-3.9697,-3.9697,-3.9697,-3.9697,-3.9697,-3.9697,-3.9697,-3.9697,-3.9697,-3.9697,-3.9697,-3.9697,-3.9697,-3.9697,-3.9645,-3.9645,-3.9413,-3.9154,-3.8893,-3.8841,-3.8684,-3.8473,-3.8409,-3.8303,-3.808,-3.8027,-3.7974,-3.7974,-3.7974,-3.7974,-3.7974,-3.7974,-3.7974,-3.7974,-3.7814,-3.7802,-3.7725,-3.7701,-3.7678,-3.7387,-3.6285,-3.5672,-3.5888,-3.4569,-3.3891,-3.3646,-3.2456,-3.2006,-3.1962,-3.0651,-3.0172,-2.9796,-2.9006,-2.8291,-2.8301,-2.8301,-2.8301,-2.8301,-2.8301,-2.8301,-2.8301,-2.8301,-2.8301,-2.8301,-2.8301,-2.8252,-2.8281,-2.8144,-2.8154,-2.8223,-2.791,-2.7725,-2.7637,-2.7353,-2.6968,-2.6763,-2.6683,-2.6206,-2.5607,-2.5273,-2.4931,-2.4522,-2.4389,-2.4257,-2.4229,-2.4211,-2.4202,-2.4192,-2.4165,-2.396,-2.3859,-2.362,-2.3446,-2.3151,-2.3041,-2.2831,-2.2821,-2.2831,-2.2638,-2.2492,-2.2327,-2.2108,-2.1486,-2.0448,-1.9236,-1.8001,-1.6793,-1.5634,-3.9697,-3.9697,-3.9697,-3.9697,-3.9697,-3.9697,-3.9697,-3.9697,-3.9697,-3.9697,-3.9697,-3.9697,-3.9697,-3.9697,-3.9697,-3.9697,-3.9697,-3.9697,-3.9697,-3.9697,-3.9697,-3.9697,-3.9697,-3.9633,-3.9413,-3.9206,-3.9154,-3.901,-3.8684,-3.8514,-3.8421,-3.8303,-3.8092,-3.8027,-3.7974,-3.7974,-3.7974,-3.7974,-3.7974,-3.7974,-3.7814,-3.7108,-3.6677,-3.6677,-3.6677,-3.6665,-3.6677,-3.6268,-3.5202,-3.388,-3.349,-3.3179,-3.3179,-3.2656,-3.2153,-3.1726,-3.099,-3.0221,-2.9773,-2.895,-2.8374,-2.8301,-2.834,-2.8301,-2.8301,-2.8301,-2.8301,-2.8301,-2.8301,-2.8301,-2.8301,-2.8301,-2.8301,-2.8301,-2.8301,-2.8301,-2.8271,-2.8213,-2.8125,-2.8115,-2.7988,-2.7731,-2.7464,-2.7201,-2.6891,-2.6288,-2.589,-2.5479,-2.5043,-2.4743,-2.4684,-2.4312,-2.422,-2.4211,-2.4202,-2.4202,-2.4174,-2.4156,-2.4055,-2.4009,-2.3739,-2.3574,-2.3224,-2.2986,-2.3087,-2.3024,-2.2867,-2.2757,-2.2471,-2.2094,-2.1109,-1.9825,-1.8887,-1.7779,-1.6416,-3.9697,-3.9697,-3.9697,-3.9697,-3.9697,-3.9697,-3.9697,-3.9697,-3.9697,-3.9697,-3.9697,-3.9697,-3.9697,-3.9697,-3.9697,-3.9697,-3.9697,-3.9697,-3.9697,-3.9697,-3.9697,-3.9697,-3.9697,-3.9697,-3.9581,-3.9362,-3.9426,-3.9218,-3.8905,-3.8788,-3.8671,-3.8409,-3.825,-3.808,-3.7974,-3.7429,-3.7548,-3.7761,-3.7536,-3.7215,-3.7162,-3.6611,-3.5904,-3.5619,-3.5454,-3.5289,-3.4858,-3.4725,-3.4428,-3.4009,-3.3269,-3.2488,-3.2456,-3.1808,-3.1391,-3.1056,-3.0526,-3.0025,-2.9789,-2.9134,-2.8785,-2.8603,-2.8564,-2.8457,-2.835,-2.8301,-2.8301,-2.8301,-2.8301,-2.8301,-2.8301,-2.8301,-2.8301,-2.8301,-2.8301,-2.8301,-2.8301,-2.8291,-2.8291,-2.8301,-2.8281,-2.8232,-2.8002,-2.7814,-2.7433,-2.7006,-2.6664,-2.6116,-2.5577,-2.5368,-2.5006,-2.4633,-2.4422,-2.4431,-2.4321,-2.4266,-2.4229,-2.4211,-2.4192,-2.4211,-2.4119,-2.3914,-2.3749,-2.3492,-2.3464,-2.34,-2.3233,-2.3019,-2.2598,-2.2072,-2.1278,-2.0361,-1.9277,-1.8234,-1.6926,-3.9697,-3.9697,-3.9697,-3.9697,-3.9697,-3.9697,-3.9697,-3.9697,-3.9697,-3.9697,-3.9697,-3.9697,-3.9697,-3.9697,-3.9697,-3.9697,-3.9697,-3.9697,-3.9697,-3.9697,-3.9697,-3.9697,-3.9697,-3.9697,-3.953,-3.9374,-3.9581,-3.9374,-3.9062,-3.9166,-3.8945,-3.8566,-3.8409,-3.808,-3.759,-3.6785,-3.6785,-3.7042,-3.6437,-3.6002,-3.5947,-3.5619,-3.5013,-3.4391,-3.4224,-3.4011,-3.3402,-3.313,-3.3575,-3.5663,-3.3292,-3.2064,-3.1702,-3.0446,-2.9921,-2.9928,-2.9898,-2.9767,-2.9653,-2.9545,-2.9375,-2.9062,-2.8984,-2.8848,-2.8623,-2.8574,-2.8535,-2.8447,-2.8359,-2.8379,-2.8301,-2.8301,-2.8301,-2.8301,-2.8301,-2.8301,-2.8301,-2.8301,-2.8301,-2.8301,-2.8301,-2.8301,-2.8301,-2.8262,-2.8082,-2.7602,-2.7266,-2.676,-2.6262,-2.5871,-2.5441,-2.4964,-2.4808,-2.4716,-2.4532,-2.433,-2.4275,-2.4229,-2.4211,-2.4211,-2.4211,-2.4128,-2.4165,-2.4082,-2.384,-2.3721,-2.3648,-2.3278,-2.2861,-2.2197,-2.158,-2.0418,-1.9166,-1.8123,-1.6903,-3.9697,-3.9697,-3.9697,-3.9697,-3.9697,-3.9697,-3.9697,-3.9697,-3.9697,-3.9697,-3.9697,-3.9697,-3.9697,-3.9697,-3.9697,-3.9697,-3.9697,-3.9697,-3.9697,-3.9697,-3.9697,-3.9697,-3.9697,-3.9697,-3.9542,-3.9438,-3.9581,-3.9478,-3.927,-3.9218,-3.9089,-3.8671,-3.825,-3.7761,-3.6611,-3.6165,-3.5729,-3.5333,-3.4891,-3.4836,-3.4614,-3.4011,-3.3515,-3.3063,-3.3063,-3.3448,-3.373,-3.3187,-3.296,-3.2928,-3.2136,-3.1242,-3.1106,-3.0827,-3.0448,-3.0137,-3.0059,-2.9932,-2.9678,-2.9639,-2.9607,-2.9463,-2.9424,-2.9394,-2.9336,-2.9248,-2.9092,-2.8896,-2.8779,-2.8662,-2.8398,-2.831,-2.831,-2.832,-2.8301,-2.8301,-2.8301,-2.8301,-2.8301,-2.8301,-2.8301,-2.8301,-2.8301,-2.8301,-2.8169,-2.8038,-2.7781,-2.7391,-2.6901,-2.6449,-2.5915,-2.535,-2.5258,-2.5148,-2.4836,-2.4606,-2.4459,-2.4339,-2.4266,-2.4211,-2.4211,-2.4211,-2.4211,-2.4211,-2.4174,-2.4024,-2.3895,-2.3892,-2.3528,-2.2731,-2.1736,-2.0482,-1.9255,-1.8079,-1.7225,-3.9697,-3.9697,-3.9697,-3.9697,-3.9697,-3.9697,-3.9697,-3.9697,-3.9697,-3.9697,-3.9697,-3.9697,-3.9697,-3.9697,-3.9697,-3.9697,-3.9697,-3.9697,-3.9697,-3.9697,-3.9697,-3.9697,-3.9697,-3.9697,-3.9594,-3.9374,-3.9594,-3.953,-3.9374,-3.9154,-3.8828,-3.8015,-3.7684,-3.6696,-3.5399,-3.4902,-3.4558,-3.4391,-3.3843,-3.3618,-3.3448,-3.3073,-3.2295,-3.195,-3.1835,-3.2227,-3.2504,-3.217,-3.1903,-3.1682,-3.1286,-3.0898,-3.0898,-3.0898,-3.0752,-3.0596,-3.0518,-3.0439,-3.0234,-3.0176,-3.0117,-2.9863,-2.9863,-2.9736,-2.9639,-2.958,-2.9538,-2.9297,-2.9189,-2.9053,-2.8652,-2.8594,-2.8535,-2.833,-2.8301,-2.8301,-2.8301,-2.8301,-2.8301,-2.8301,-2.8301,-2.8301,-2.8301,-2.8301,-2.8281,-2.816,-2.7936,-2.7617,-2.7315,-2.6805,-2.6324,-2.589,-2.5736,-2.5552,-2.5203,-2.4876,-2.4656,-2.4532,-2.4358,-2.4266,-2.4211,-2.4211,-2.4211,-2.4211,-2.4211,-2.4211,-2.4079,-2.4102,-2.3637,-2.2231,-2.1089,-2.0268,-1.9317,-1.8105,-1.7457,-3.9697,-3.9697,-3.9697,-3.9697,-3.9697,-3.9697,-3.9697,-3.9697,-3.9697,-3.9697,-3.9697,-3.9697,-3.9697,-3.9697,-3.9697,-3.9697,-3.9645,-3.9362,-3.9258,-3.9685,-3.8985,-3.9037,-3.9089,-3.8985,-3.8764,-3.8881,-3.9102,-3.9102,-3.8712,-3.8712,-3.7779,-3.6911,-3.6522,-3.5597,-3.4224,-3.3346,-3.3063,-3.3335,-3.2789,-3.2399,-3.2399,-3.2295,-3.1797,-3.1286,-3.1054,-3.1112,-3.1286,-3.1122,-3.1005,-3.0898,-3.0898,-3.0898,-3.0898,-3.0898,-3.0898,-3.0879,-3.084,-3.0791,-3.0742,-3.0762,-3.0635,-3.0312,-3.0303,-3.0166,-2.9922,-2.9873,-2.9814,-2.9734,-2.9616,-2.9375,-2.9062,-2.9023,-2.8809,-2.8535,-2.8398,-2.8359,-2.8301,-2.8301,-2.8301,-2.8301,-2.8301,-2.8301,-2.8301,-2.8301,-2.8301,-2.8237,-2.8014,-2.7799,-2.7476,-2.7114,-2.6612,-2.6367,-2.6159,-2.5938,-2.5589,-2.5221,-2.495,-2.4721,-2.4542,-2.4395,-2.4275,-2.4211,-2.4211,-2.4211,-2.4211,-2.4211,-2.4211,-2.4152,-2.3288,-2.17,-2.0759,-2.02,-1.9236,-1.814,-1.7522,-3.9697,-3.9697,-3.9697,-3.9697,-3.9697,-3.9697,-3.9645,-3.9697,-3.9645,-3.9697,-3.9697,-3.9697,-3.9697,-3.9697,-3.9697,-3.9697,-3.9258,-3.8659,-3.8647,-3.8921,-3.7991,-3.7382,-3.7991,-3.7554,-3.7007,-3.7019,-3.7566,-3.7619,-3.7007,-3.6402,-3.6348,-3.5695,-3.5311,-3.4436,-3.3346,-3.2685,-3.218,-3.2008,-3.1556,-3.1392,-3.1392,-3.1344,-3.1286,-3.0898,-3.0898,-3.0898,-3.0898,-3.0898,-3.0898,-3.0898,-3.0898,-3.0898,-3.0898,-3.0898,-3.0898,-3.0898,-3.0898,-3.0898,-3.0898,-3.0889,-3.0859,-3.0781,-3.0732,-3.0742,-3.0635,-3.0596,-3.0371,-3.0107,-2.9824,-2.957,-2.9492,-2.9463,-2.9248,-2.8965,-2.8799,-2.8691,-2.8437,-2.835,-2.833,-2.8301,-2.8301,-2.8301,-2.8301,-2.8301,-2.8301,-2.8184,-2.797,-2.7745,-2.7485,-2.7161,-2.6825,-2.6644,-2.6499,-2.6233,-2.5931,-2.5589,-2.5277,-2.5005,-2.4776,-2.4587,-2.445,-2.4266,-2.4211,-2.4211,-2.4211,-2.4211,-2.4211,-2.4211,-2.3079,-2.1497,-2.0826,-2.0261,-1.8708,-1.7305,-1.6882,-3.9697,-3.9697,-3.9697,-3.9697,-3.9581,-3.9037,-3.9141,-3.9594,-3.9089,-3.9141,-3.9581,-3.9697,-3.9697,-3.953,-3.8973,-3.8477,-3.7832,-3.7394,-3.7394,-3.7501,-3.678,-3.6402,-3.6954,-3.636,-3.587,-3.5663,-3.5881,-3.6251,-3.6185,-3.5979,-3.5256,-3.4659,-3.4213,-3.3279,-3.2227,-3.1777,-3.1508,-3.0947,-3.0898,-3.0898,-3.0898,-3.0898,-3.0898,-3.0898,-3.0898,-3.0898,-3.0898,-3.0898,-3.0898,-3.0898,-3.0898,-3.0898,-3.0898,-3.0898,-3.0898,-3.0898,-3.0898,-3.0898,-3.0898,-3.0898,-3.0889,-3.0889,-3.0898,-3.0898,-3.0898,-3.084,-3.0771,-3.0586,-3.0439,-3.0146,-2.9941,-2.9902,-2.9687,-2.9375,-2.9258,-2.9053,-2.876,-2.8652,-2.8525,-2.8389,-2.833,-2.833,-2.8301,-2.8301,-2.8301,-2.813,-2.7862,-2.7647,-2.7431,-2.7116,-2.6791,-2.6691,-2.6582,-2.6472,-2.6206,-2.5922,-2.5626,-2.5335,-2.5115,-2.4886,-2.4638,-2.4542,-2.4349,-2.4229,-2.4229,-2.4211,-2.4202,-2.4152,-2.2719,-2.1497,-2.0877,-1.9952,-1.7975,-1.6617,-1.6358,-3.953,-3.931,-3.931,-3.9206,-3.8868,-3.7991,-3.8056,-3.8659,-3.7938,-3.8043,-3.8921,-3.8921,-3.8868,-3.8712,-3.7991,-3.7061,-3.6185,-3.6088,-3.6088,-3.6197,-3.5597,-3.5487,-3.5815,-3.5487,-3.4891,-3.4078,-3.4078,-3.4569,-3.5002,-3.4836,-3.4346,-3.3618,-3.2949,-3.2227,-3.1383,-3.117,-3.0947,-3.0898,-3.0898,-3.0898,-3.0898,-3.0898,-3.0898,-3.0898,-3.0898,-3.0898,-3.0898,-3.0898,-3.0898,-3.0898,-3.0898,-3.0898,-3.0898,-3.0898,-3.0898,-3.0898,-3.0898,-3.0898,-3.0898,-3.0898,-3.0898,-3.0898,-3.0898,-3.0898,-3.0898,-3.0898,-3.0879,-3.0898,-3.084,-3.0703,-3.04,-3.0342,-3.0127,-2.9824,-2.9668,-2.9551,-2.9219,-2.9004,-2.8838,-2.8672,-2.8476,-2.8369,-2.8359,-2.8301,-2.8301,-2.813,-2.7853,-2.7593,-2.7323,-2.6899,-2.6636,-2.6636,-2.6582,-2.6582,-2.6444,-2.6298,-2.5986,-2.5782,-2.5537,-2.5326,-2.506,-2.4803,-2.4643,-2.4422,-2.422,-2.4211,-2.4202,-2.3895,-2.2769,-2.1802,-2.0987,-1.9797,-1.8073,-1.6882,-1.6311,-3.9089,-3.8108,-3.8108,-3.7566,-3.6738,-3.6522,-3.6468,-3.6684,-3.6522,-3.6457,-3.69,-3.6738,-3.6792,-3.663,-3.6576,-3.6294,-3.5804,-3.5113,-3.5057,-3.5377,-3.4179,-3.3864,-3.4368,-3.3558,-3.331,-3.281,-3.2696,-3.2706,-3.3197,-3.2856,-3.2467,-3.2123,-3.1787,-3.1122,-3.1112,-3.0947,-3.0898,-3.0898,-3.0898,-3.0898,-3.0898,-3.0898,-3.0898,-3.0898,-3.0898,-3.0898,-3.0898,-3.0898,-3.0898,-3.0898,-3.0898,-3.0898,-3.0898,-3.0898,-3.0898,-3.0898,-3.0898,-3.0898,-3.0898,-3.0898,-3.0898,-3.0898,-3.0898,-3.0898,-3.0898,-3.0898,-3.0898,-3.0898,-3.0898,-3.0869,-3.0762,-3.0781,-3.0557,-3.0322,-3.0117,-2.9902,-2.9609,-2.9473,-2.9297,-2.9033,-2.8867,-2.8594,-2.8437,-2.8359,-2.8291,-2.8077,-2.7853,-2.7593,-2.7269,-2.6854,-2.6646,-2.6591,-2.6591,-2.6591,-2.6582,-2.6444,-2.6316,-2.6131,-2.5949,-2.5757,-2.5463,-2.517,-2.4876,-2.4707,-2.4468,-2.4031,-2.3795,-2.3338,-2.2728,-2.1751,-2.0629,-1.9583,-1.8485,-1.7457,-1.6318,-3.7607,-3.7844,-3.7222,-3.6684,-3.6143,-3.5553,-3.5597,-3.5979,-3.5498,-3.5597,-3.6131,-3.6185,-3.5859,-3.5333,-3.5234,-3.4847,-3.4235,-3.3639,-3.347,-3.3955,-3.2913,-3.2534,-3.2753,-3.2477,-3.2143,-3.2076,-3.2028,-3.2133,-3.2028,-3.1971,-3.1787,-3.173,-3.1334,-3.1218,-3.1064,-3.0947,-3.0947,-3.0898,-3.0898,-3.0898,-3.0898,-3.0898,-3.0898,-3.0898,-3.0898,-3.0898,-3.0898,-3.0898,-3.0898,-3.0898,-3.0898,-3.0898,-3.0898,-3.0898,-3.0898,-3.0898,-3.0898,-3.0898,-3.0898,-3.0898,-3.0898,-3.0898,-3.0898,-3.0898,-3.0898,-3.0898,-3.0898,-3.0898,-3.0898,-3.0898,-3.0898,-3.0898,-3.0791,-3.0635,-3.0518,-3.0293,-3.0059,-2.9971,-2.9795,-2.9521,-2.9248,-2.8994,-2.8701,-2.8467,-2.8379,-2.8184,-2.7862,-2.7485,-2.7215,-2.6899,-2.6691,-2.6591,-2.6591,-2.6591,-2.6591,-2.6536,-2.6518,-2.6362,-2.6362,-2.6142,-2.5839,-2.5546,-2.5262,-2.495,-2.4725,-2.4203,-2.3545,-2.2878,-2.2316,-2.1242,-2.0063,-1.902,-1.8028,-1.7199,-1.6264,-3.5913,-3.6965,-3.6154,-3.5597,-3.5278,-3.4424,-3.4469,-3.5113,-3.4413,-3.4525,-3.5113,-3.5157,-3.4614,-3.4145,-3.3864,-3.348,-3.2716,-3.243,-3.243,-3.2315,-3.2133,-3.2086,-3.219,-3.2018,-3.1913,-3.1672,-3.1672,-3.1614,-3.1566,-3.1566,-3.1556,-3.1672,-3.1286,-3.116,-3.1102,-3.1005,-3.0898,-3.0898,-3.0898,-3.0898,-3.0898,-3.0898,-3.0898,-3.0898,-3.0898,-3.0898,-3.0898,-3.0898,-3.0898,-3.0898,-3.0898,-3.0898,-3.0898,-3.0898,-3.0898,-3.0898,-3.0898,-3.0898,-3.0898,-3.0898,-3.0898,-3.0898,-3.0898,-3.0898,-3.0898,-3.0898,-3.0898,-3.0898,-3.0898,-3.0898,-3.0898,-3.0898,-3.0859,-3.085,-3.083,-3.0635,-3.0459,-3.0361,-3.0185,-2.9893,-2.9648,-2.9473,-2.9141,-2.8711,-2.8432,-2.8233,-2.7862,-2.7431,-2.7116,-2.6854,-2.6745,-2.6591,-2.6591,-2.6591,-2.6591,-2.6591,-2.6591,-2.6591,-2.6591,-2.6499,-2.6178,-2.5913,-2.5656,-2.5326,-2.5005,-2.4212,-2.3498,-2.2698,-2.1861,-2.0834,-1.9746,-1.8454,-1.7463,-1.669,-1.6217,-3.4134,-3.4758,-3.4647,-3.4043,-3.3048,-3.2887,-3.2887,-3.3264,-3.2991,-3.3001,-3.3208,-3.281,-3.2856,-3.2592,-3.2696,-3.2592,-3.2315,-3.2555,-3.2555,-3.2555,-3.2612,-3.2315,-3.2143,-3.196,-3.1855,-3.1441,-3.1325,-3.1218,-3.1054,-3.1122,-3.117,-3.1276,-3.1112,-3.0995,-3.0937,-3.0947,-3.0898,-3.0898,-3.0898,-3.0898,-3.0898,-3.0898,-3.0898,-3.0898,-3.0898,-3.0898,-3.0898,-3.0898,-3.0898,-3.0898,-3.0898,-3.0898,-3.0898,-3.0898,-3.0898,-3.0898,-3.0898,-3.0898,-3.0898,-3.0898,-3.0898,-3.0898,-3.0898,-3.0898,-3.0898,-3.0898,-3.0898,-3.0898,-3.0898,-3.0898,-3.0898,-3.0898,-3.0898,-3.0898,-3.0898,-3.083,-3.0723,-3.0742,-3.0557,-3.0264,-3.0059,-2.9912,-2.9668,-2.9258,-2.876,-2.854,-2.7774,-2.7323,-2.6954,-2.6691,-2.6691,-2.6591,-2.6591,-2.6591,-2.6591,-2.6591,-2.6591,-2.6591,-2.6591,-2.6591,-2.649,-2.6243,-2.6004,-2.58,-2.5374,-2.4425,-2.3375,-2.2373,-2.1412,-2.0462,-1.9376,-1.7982,-1.7147,-1.6624,-1.6205,-3.2742,-3.314,-3.314,-3.2991,-3.2669,-3.2498,-3.2555,-3.2669,-3.2555,-3.2545,-3.2669,-3.243,-3.2315,-3.2258,-3.2248,-3.219,-3.2086,-3.2315,-3.2315,-3.2086,-3.1913,-3.1797,-3.1672,-3.1566,-3.1286,-3.1112,-3.1054,-3.1054,-3.0947,-3.0898,-3.0947,-3.0947,-3.0947,-3.0947,-3.0889,-3.0898,-3.0898,-3.0898,-3.0898,-3.0898,-3.0898,-3.0898,-3.0898,-3.0898,-3.0898,-3.0898,-3.0898,-3.0898,-3.0898,-3.0898,-3.0898,-3.0898,-3.0898,-3.0898,-3.0898,-3.0898,-3.0898,-3.0898,-3.0898,-3.0898,-3.0898,-3.0898,-3.0898,-3.0898,-3.0898,-3.0898,-3.0898,-3.0898,-3.0898,-3.0898,-3.0898,-3.0898,-3.0898,-3.0898,-3.0898,-3.0898,-3.0898,-3.0898,-3.085,-3.0527,-3.0478,-3.042,-3.0137,-2.9834,-2.9307,-2.8783,-2.7994,-2.7225,-2.6854,-2.6591,-2.6591,-2.6591,-2.6591,-2.6591,-2.6591,-2.6591,-2.6591,-2.6591,-2.6591,-2.6591,-2.6591,-2.6564,-2.6325,-2.614,-2.5583,-2.4571,-2.338,-2.2061,-2.0891,-1.9851,-1.8667,-1.7371,-1.6789,-1.6465,-1.6199,-3.196,-3.2133,-3.2133,-3.2315,-3.2545,-3.2487,-3.2498,-3.2555,-3.2498,-3.243,-3.2555,-3.2258,-3.2076,-3.2028,-3.1971,-3.196,-3.1903,-3.2018,-3.2086,-3.196,-3.1845,-3.1498,-3.1334,-3.1286,-3.1228,-3.1005,-3.0898,-3.0898,-3.0898,-3.0898,-3.0947,-3.0947,-3.0898,-3.0898,-3.0898,-3.0898,-3.0898,-3.0898,-3.0898,-3.0898,-3.0898,-3.0898,-3.0898,-3.0898,-3.0898,-3.0898,-3.0898,-3.0898,-3.0898,-3.0898,-3.0898,-3.0898,-3.0898,-3.0898,-3.0898,-3.0898,-3.0898,-3.0898,-3.0898,-3.0898,-3.0898,-3.0898,-3.0898,-3.0898,-3.0898,-3.0898,-3.0898,-3.0898,-3.0898,-3.0898,-3.0898,-3.0898,-3.0898,-3.0898,-3.0898,-3.0898,-3.0898,-3.0898,-3.0898,-3.0801,-3.0771,-3.0703,-3.045,-3.0052,-2.93,-2.8826,-2.8189,-2.7422,-2.68,-2.6591,-2.6591,-2.6591,-2.6591,-2.6591,-2.6591,-2.6591,-2.6591,-2.6591,-2.6591,-2.6591,-2.6591,-2.6582,-2.6227,-2.562,-2.5073,-2.4503,-2.3493,-2.217,-2.0666,-1.9153,-1.8007,-1.6902,-1.6583,-1.6258,-1.6099,-3.1787,-3.1787,-3.1797,-3.2028,-3.2248,-3.2555,-3.2498,-3.2373,-3.2555,-3.2545,-3.2305,-3.196,-3.1672,-3.1498,-3.1508,-3.1566,-3.173,-3.1845,-3.196,-3.2076,-3.196,-3.173,-3.1556,-3.1392,-3.1228,-3.1005,-3.0898,-3.0898,-3.0898,-3.0898,-3.0898,-3.0898,-3.0898,-3.0898,-3.0898,-3.0898,-3.0898,-3.0898,-3.0898,-3.0898,-3.0898,-3.0898,-3.0898,-3.0898,-3.0898,-3.0898,-3.0898,-3.0898,-3.0898,-3.0898,-3.0898,-3.0898,-3.0898,-3.0898,-3.0898,-3.0898,-3.0898,-3.0898,-3.0898,-3.0898,-3.0898,-3.0898,-3.0898,-3.0898,-3.0898,-3.0898,-3.0898,-3.0898,-3.0898,-3.0898,-3.0898,-3.0898,-3.0898,-3.0898,-3.0898,-3.0898,-3.0898,-3.0898,-3.0898,-3.0898,-3.0898,-3.0859,-3.0606,-3.0219,-2.9391,-2.8772,-2.8281,-2.7666,-2.6911,-2.6591,-2.6591,-2.6591,-2.6591,-2.6591,-2.6591,-2.6591,-2.6591,-2.6591,-2.6591,-2.6591,-2.6473,-2.63,-2.5826,-2.516,-2.4624,-2.4116,-2.3269,-2.2355,-2.0543,-1.8779,-1.7609,-1.669,-1.6371,-1.6105,-1.5998,-3.1614,-3.1787,-3.1556,-3.1556,-3.1614,-3.174,-3.1971,-3.2258,-3.2373,-3.2373,-3.219,-3.173,-3.1441,-3.1325,-3.1325,-3.1392,-3.1508,-3.1787,-3.1903,-3.1903,-3.1787,-3.1556,-3.1325,-3.1228,-3.1112,-3.0947,-3.0898,-3.0898,-3.0898,-3.0898,-3.0898,-3.0898,-3.0898,-3.0898,-3.0898,-3.0898,-3.0898,-3.0898,-3.0898,-3.0898,-3.0898,-3.0898,-3.0898,-3.0898,-3.0898,-3.0898,-3.0898,-3.0898,-3.0898,-3.0898,-3.0898,-3.0898,-3.0898,-3.0898,-3.0898,-3.0898,-3.0898,-3.0898,-3.0898,-3.0898,-3.0898,-3.0898,-3.0898,-3.0898,-3.0898,-3.0898,-3.0898,-3.0898,-3.0898,-3.0898,-3.0898,-3.0898,-3.0898,-3.0898,-3.0898,-3.0898,-3.0898,-3.0898,-3.0898,-3.0898,-3.0898,-3.0898,-3.0752,-3.0442,-2.9661,-2.8928,-2.8446,-2.779,-2.7114,-2.6719,-2.66,-2.6591,-2.6591,-2.6591,-2.6591,-2.6591,-2.6591,-2.6591,-2.6591,-2.6591,-2.6418,-2.619,-2.5395,-2.4744,-2.4245,-2.3718,-2.26,-2.1402,-1.9946,-1.8494,-1.7583,-1.691,-1.664,-1.6301,-1.5939,-3.1392,-3.145,-3.1334,-3.1276,-3.1218,-3.1392,-3.174,-3.2076,-3.2133,-3.2076,-3.1845,-3.1498,-3.1218,-3.1218,-3.116,-3.1267,-3.1334,-3.1392,-3.1624,-3.1566,-3.1441,-3.1267,-3.1112,-3.1054,-3.1064,-3.0947,-3.0898,-3.0898,-3.0898,-3.0898,-3.0898,-3.0898,-3.0898,-3.0898,-3.0898,-3.0898,-3.0898,-3.0898,-3.0898,-3.0898,-3.0898,-3.0898,-3.0898,-3.0898,-3.0898,-3.0898,-3.0898,-3.0898,-3.0898,-3.0898,-3.0898,-3.0898,-3.0898,-3.0898,-3.0898,-3.0898,-3.0898,-3.0898,-3.0898,-3.0898,-3.0898,-3.0898,-3.0898,-3.0898,-3.0898,-3.0898,-3.0898,-3.0898,-3.0898,-3.0898,-3.0898,-3.0898,-3.0898,-3.0898,-3.0898,-3.0898,-3.0898,-3.0898,-3.0898,-3.0898,-3.0898,-3.0898,-3.0889,-3.049,-3.0005,-2.9268,-2.8604,-2.7938,-2.7335,-2.7022,-2.6664,-2.6591,-2.6591,-2.6591,-2.6591,-2.6591,-2.6591,-2.6591,-2.6591,-2.6591,-2.6527,-2.6309,-2.5348,-2.4445,-2.415,-2.3455,-2.176,-2.0401,-1.964,-1.882,-1.7967,-1.7421,-1.6981,-1.6511,-1.6041,-3.117,-3.1005,-3.116,-3.116,-3.1005,-3.145,-3.173,-3.1787,-3.1787,-3.1624,-3.1325,-3.1325,-3.117,-3.0947,-3.0889,-3.1054,-3.1208,-3.1112,-3.117,-3.1276,-3.1267,-3.1112,-3.1054,-3.1112,-3.1054,-3.0947,-3.0898,-3.0898,-3.0898,-3.0898,-3.0898,-3.0898,-3.0898,-3.0898,-3.0898,-3.0898,-3.0898,-3.0898,-3.0898,-3.0898,-3.0898,-3.0898,-3.0898,-3.0898,-3.0898,-3.0898,-3.0898,-3.0898,-3.0898,-3.0898,-3.0898,-3.0898,-3.0898,-3.0898,-3.0898,-3.0898,-3.0898,-3.0898,-3.0898,-3.0898,-3.0898,-3.0898,-3.0898,-3.0898,-3.0898,-3.0898,-3.0898,-3.0898,-3.0898,-3.0898,-3.0898,-3.0898,-3.0898,-3.0898,-3.0898,-3.0898,-3.0898,-3.0898,-3.0898,-3.0898,-3.0898,-3.0898,-3.083,-3.0567,-3.0246,-2.9723,-2.9055,-2.8412,-2.7787,-2.727,-2.6912,-2.6591,-2.6591,-2.6591,-2.6591,-2.6591,-2.6591,-2.6591,-2.6591,-2.6591,-2.6527,-2.619,-2.5008,-2.4278,-2.4167,-2.3183,-2.1123,-2.0273,-2.0026,-1.9207,-1.8368,-1.7695,-1.7226,-1.6611,-1.6161,-3.1112,-3.116,-3.1054,-3.0995,-3.0947,-3.1112,-3.1228,-3.1441,-3.1441,-3.1383,-3.1267,-3.1112,-3.1005,-3.0898,-3.0898,-3.1064,-3.1112,-3.1112,-3.117,-3.117,-3.1112,-3.1005,-3.0947,-3.1005,-3.0947,-3.0947,-3.0898,-3.0898,-3.0898,-3.0898,-3.0898,-3.0898,-3.0898,-3.0898,-3.0898,-3.0898,-3.0898,-3.0898,-3.0898,-3.0898,-3.0898,-3.0898,-3.0898,-3.0898,-3.0898,-3.0898,-3.0898,-3.0898,-3.0898,-3.0898,-3.0898,-3.0898,-3.0898,-3.0898,-3.0898,-3.0898,-3.0898,-3.0898,-3.0898,-3.0898,-3.0898,-3.0898,-3.0898,-3.0898,-3.0898,-3.0898,-3.0898,-3.0898,-3.0898,-3.0898,-3.0898,-3.0898,-3.0898,-3.0898,-3.0898,-3.0898,-3.0898,-3.0898,-3.0898,-3.0889,-3.0889,-3.082,-3.0762,-3.0645,-3.0323,-3.0011,-2.9489,-2.8842,-2.8212,-2.762,-2.7188,-2.6857,-2.6591,-2.6591,-2.6591,-2.6591,-2.6591,-2.6591,-2.6591,-2.6582,-2.6418,-2.5852,-2.4667,-2.36,-2.2757,-2.1631,-2.0155,-1.9699,-1.9761,-1.9455,-1.8724,-1.8043,-1.7425,-1.6859,-1.63,-3.0995,-3.1112,-3.0995,-3.0898,-3.0898,-3.0898,-3.0995,-3.1112,-3.116,-3.116,-3.1112,-3.0947,-3.0898,-3.0898,-3.0898,-3.1005,-3.1112,-3.1005,-3.1005,-3.1005,-3.1005,-3.0947,-3.0898,-3.0898,-3.0947,-3.0898,-3.0898,-3.0898,-3.0898,-3.0898,-3.0898,-3.0898,-3.0898,-3.0898,-3.0898,-3.0898,-3.0898,-3.0898,-3.0898,-3.0898,-3.0898,-3.0898,-3.0898,-3.0898,-3.0898,-3.0898,-3.0898,-3.0898,-3.0898,-3.0898,-3.0898,-3.0898,-3.0898,-3.0898,-3.0898,-3.0898,-3.0898,-3.0898,-3.0898,-3.0898,-3.0898,-3.0898,-3.0898,-3.0898,-3.0898,-3.0898,-3.0898,-3.0898,-3.0898,-3.0898,-3.0898,-3.0898,-3.0898,-3.0898,-3.0898,-3.0898,-3.0898,-3.0898,-3.0889,-3.0879,-3.082,-3.0694,-3.0635,-3.0577,-3.0401,-2.9912,-2.9474,-2.9074,-2.8443,-2.7877,-2.738,-2.7059,-2.6802,-2.6591,-2.6591,-2.6591,-2.6591,-2.6591,-2.6591,-2.6527,-2.6364,-2.5514,-2.427,-2.2587,-2.0838,-2.0046,-1.954,-1.9482,-1.9479,-1.9214,-1.9097,-1.8577,-1.7912,-1.7138,-1.6635,-3.0898,-3.0898,-3.0898,-3.0898,-3.0898,-3.0898,-3.0898,-3.0898,-3.0947,-3.0898,-3.0889,-3.0889,-3.0898,-3.0898,-3.0898,-3.0898,-3.0947,-3.0947,-3.0898,-3.0898,-3.0957,-3.0898,-3.0898,-3.0898,-3.0898,-3.0898,-3.0898,-3.0898,-3.0898,-3.0898,-3.0898,-3.0898,-3.0898,-3.0898,-3.0898,-3.0898,-3.0898,-3.0898,-3.0898,-3.0898,-3.0898,-3.0898,-3.0898,-3.0898,-3.0898,-3.0898,-3.0898,-3.0898,-3.0898,-3.0898,-3.0898,-3.0898,-3.0898,-3.0898,-3.0898,-3.0898,-3.0898,-3.0898,-3.0898,-3.0898,-3.0898,-3.0898,-3.0898,-3.0898,-3.0898,-3.0898,-3.0898,-3.0898,-3.0898,-3.0898,-3.0898,-3.0898,-3.0898,-3.0898,-3.0898,-3.0898,-3.0898,-3.0898,-3.0889,-3.082,-3.0694,-3.0567,-3.045,-3.0392,-3.0108,-2.9686,-2.9453,-2.9195,-2.871,-2.8162,-2.7655,-2.7298,-2.6976,-2.6738,-2.6591,-2.6591,-2.6591,-2.6591,-2.6527,-2.6591,-2.6473,-2.5348,-2.3824,-2.2361,-2.0895,-1.9931,-1.9424,-1.9424,-1.9424,-1.9345,-1.9228,-1.9039,-1.8451,-1.7663,-1.7015,-3.0898,-3.0898,-3.0898,-3.0898,-3.0898,-3.0898,-3.0898,-3.0898,-3.0898,-3.0898,-3.0898,-3.0898,-3.0898,-3.0898,-3.0898,-3.0898,-3.0898,-3.0898,-3.0898,-3.0898,-3.0898,-3.0898,-3.0898,-3.0898,-3.0898,-3.0898,-3.0898,-3.0898,-3.0898,-3.0898,-3.0898,-3.0898,-3.0898,-3.0898,-3.0898,-3.0898,-3.0898,-3.0898,-3.0898,-3.0898,-3.0898,-3.0898,-3.0898,-3.0898,-3.0898,-3.0898,-3.0898,-3.0898,-3.0898,-3.0898,-3.0898,-3.0898,-3.0898,-3.0898,-3.0898,-3.0898,-3.0898,-3.0898,-3.0898,-3.0898,-3.0898,-3.0898,-3.0898,-3.0898,-3.0898,-3.0898,-3.0898,-3.0898,-3.0898,-3.0898,-3.0898,-3.0898,-3.0898,-3.0898,-3.0898,-3.0898,-3.0898,-3.0898,-3.0898,-3.0762,-3.0577,-3.0392,-3.0323,-3.0089,-2.9804,-2.9627,-2.9568,-2.9307,-2.8969,-2.8452,-2.7948,-2.7536,-2.7224,-2.6976,-2.6774,-2.6527,-2.6473,-2.6364,-2.6309,-2.6418,-2.6473,-2.4723,-2.2926,-2.2305,-2.1288,-2.0162,-1.9424,-1.9424,-1.9424,-1.9424,-1.9352,-1.9221,-1.8866,-1.8204,-1.7489,-3.0898,-3.0898,-3.0898,-3.0898,-3.0898,-3.0898,-3.0898,-3.0898,-3.0898,-3.0898,-3.0898,-3.0898,-3.0898,-3.0898,-3.0898,-3.0898,-3.0898,-3.0898,-3.0898,-3.0898,-3.0898,-3.0898,-3.0898,-3.0898,-3.0898,-3.0898,-3.0898,-3.0898,-3.0898,-3.0898,-3.0898,-3.0898,-3.0898,-3.0898,-3.0898,-3.0898,-3.0898,-3.0898,-3.0898,-3.0898,-3.0898,-3.0898,-3.0898,-3.0898,-3.0898,-3.0898,-3.0898,-3.0898,-3.0898,-3.0898,-3.0898,-3.0898,-3.0898,-3.0898,-3.0898,-3.0898,-3.0898,-3.0898,-3.0898,-3.0898,-3.0898,-3.0898,-3.0898,-3.0898,-3.0898,-3.0898,-3.0898,-3.0898,-3.0898,-3.0898,-3.0898,-3.0898,-3.0898,-3.0898,-3.0898,-3.0898,-3.0898,-3.0898,-3.0889,-3.083,-3.0577,-3.0157,-3.0039,-2.9853,-2.9627,-2.94,-2.9331,-2.9331,-2.9052,-2.8801,-2.8297,-2.7866,-2.7572,-2.7242,-2.6995,-2.6655,-2.6309,-2.619,-2.5971,-2.5348,-2.4834,-2.332,-2.1964,-2.1631,-2.101,-1.9931,-1.9424,-1.9424,-1.9424,-1.9424,-1.9366,-1.9345,-1.8989,-1.8686,-1.809,-3.0898,-3.0898,-3.0898,-3.0898,-3.0898,-3.0898,-3.0898,-3.0898,-3.0898,-3.0898,-3.0898,-3.0898,-3.0898,-3.0898,-3.0898,-3.0898,-3.0898,-3.0898,-3.0898,-3.0898,-3.0898,-3.0898,-3.0898,-3.0898,-3.0898,-3.0898,-3.0898,-3.0898,-3.0898,-3.0898,-3.0898,-3.0898,-3.0898,-3.0898,-3.0898,-3.0898,-3.0898,-3.0898,-3.0898,-3.0898,-3.0898,-3.0898,-3.0898,-3.0898,-3.0898,-3.0898,-3.0898,-3.0898,-3.0898,-3.0898,-3.0898,-3.0898,-3.0898,-3.0898,-3.0898,-3.0898,-3.0898,-3.0898,-3.0898,-3.0898,-3.0898,-3.0898,-3.0898,-3.0898,-3.0898,-3.0898,-3.0898,-3.0898,-3.0898,-3.0898,-3.0898,-3.0898,-3.0898,-3.0898,-3.0898,-3.0898,-3.0898,-3.0898,-3.0889,-3.0889,-3.047,-3.0049,-2.9804,-2.9686,-2.939,-2.9163,-2.9103,-2.9094,-2.9076,-2.8961,-2.8645,-2.8278,-2.7976,-2.7646,-2.7233,-2.6865,-2.6463,-2.5578,-2.5183,-2.4223,-2.3255,-2.2361,-2.1623,-2.1231,-2.05,-1.9649,-1.9424,-1.9424,-1.9424,-1.9424,-1.9424,-1.9359,-1.9229,-1.8925,-1.8564,-3.0898,-3.0898,-3.0898,-3.0898,-3.0898,-3.0898,-3.0898,-3.0898,-3.0898,-3.0898,-3.0898,-3.0898,-3.0898,-3.0898,-3.0898,-3.0898,-3.0898,-3.0898,-3.0898,-3.0898,-3.0898,-3.0898,-3.0898,-3.0898,-3.0898,-3.0898,-3.0898,-3.0898,-3.0898,-3.0898,-3.0898,-3.0898,-3.0898,-3.0898,-3.0898,-3.0898,-3.0898,-3.0898,-3.0898,-3.0898,-3.0898,-3.0898,-3.0898,-3.0898,-3.0898,-3.0898,-3.0898,-3.0898,-3.0898,-3.0898,-3.0898,-3.0898,-3.0898,-3.0898,-3.0898,-3.0898,-3.0898,-3.0898,-3.0898,-3.0898,-3.0898,-3.0898,-3.0898,-3.0898,-3.0898,-3.0898,-3.0898,-3.0898,-3.0898,-3.0898,-3.0898,-3.0898,-3.0898,-3.0898,-3.0898,-3.0898,-3.0898,-3.0898,-3.0889,-3.0704,-3.0343,-3.0049,-2.9872,-2.9568,-2.9153,-2.9044,-2.9044,-2.9035,-2.9035,-2.9016,-2.8938,-2.8663,-2.8352,-2.782,-2.7325,-2.7178,-2.6681,-2.5626,-2.439,-2.3376,-2.2523,-2.1964,-2.1345,-2.106,-2.0385,-1.954,-1.9424,-1.9424,-1.9424,-1.9424,-1.9424,-1.9366,-1.9307,-1.9171,-1.8809]},{"header":{"parameterUnit":"m.s-1","parameterCategory":1,"la1":31.0,"la2":29.5877,"lo1":-88.7671,"lo2":-86.6584,"dy":0.0162,"dx":0.0185,"nx":115,"ny":88,"refTime":"2023-09-01T12:00:00:Z","depth":0,"parameterNumber":3,"parameterNumberName":"V-component_of_WINDS"},"data":[0.0,0.0,0.0,0.0,0.0,0.0,0.0,0.0,0.0,0.0,0.0,0.0,0.0,0.0,0.0,0.0,0.0,0.0,0.0,0.0,0.0,0.0,0.0,0.0,0.0,0.0,0.0,0.0,0.0,0.0,0.0,0.0,0.0,0.0,0.0,0.0,0.0,0.0,0.0,0.0,0.0,0.0,0.0,0.0,0.0,0.0,0.0,0.0,0.0,0.0,0.0,0.0,0.0,0.0,0.0,0.0,0.0,0.0,0.0,0.0,0.0,0.0,0.0,0.0,0.0,0.0,0.0,0.0,0.0,0.0,0.0,0.0,0.0,0.0,0.0,0.0,0.0,0.0,0.0,0.0,0.0,0.0,0.0,0.0,0.0,0.0,0.0,0.0,0.0,0.0,0.0,0.0,0.0,0.0,0.0,0.0,0.0,0.0,0.0,0.0,0.0,0.0,0.0,0.0,0.0,0.0,0.0,0.0,0.0,0.0,0.0,0.0,0.0,0.0,0.0,0.0,0.0,0.0,0.0,0.0,0.0,0.0,0.0,0.0,0.0,0.0,0.0,0.0,0.0,0.0,0.0,0.0,0.0,0.0,0.0,0.0,0.0,0.0,0.0,0.0,0.0,0.0,0.0,0.0,0.0,0.0,0.0,0.0,0.0,0.0,0.0,0.0,0.0,0.0,0.0,0.0,0.0,0.0,0.0,0.0,0.0,0.0,0.0,0.0,0.0,0.0,0.0,0.0,0.0,0.0,0.0,0.0,0.0,0.0,0.0,0.0,0.0,0.0,0.0,0.0,0.0,0.0,0.0,0.0,0.0,0.0,0.0,0.0,0.0,0.0,0.0,0.0,0.0,0.0,0.0,0.0,0.0,0.0,0.0,0.0,0.0,0.0,0.0,0.0,0.0,0.0,0.0,0.0,0.0,0.0,0.0,0.0,0.0,0.0,0.0,0.0,0.0,0.0,0.0,0.0,0.0,0.0,0.0,0.0,0.0,0.0,0.0,0.0,0.0,0.0,0.0,0.0,0.0,0.0,0.0,0.0,0.0,0.0,0.0,0.0,0.0,0.0,0.0,0.0,0.0,0.0,0.0,0.0,0.0,0.0,0.0,0.0,0.0,0.0,0.0,0.0,0.0,0.0,0.0,0.0,0.0,0.0,0.0,0.0,0.0,0.0,0.0,0.0,0.0,0.0,0.0,0.0,0.0,0.0,0.0,0.0,0.0,0.0,0.0,0.0,0.0,0.0,0.0,0.0,0.0,0.0,0.0,0.0,0.0,0.0,0.0,0.0,0.0,0.0,0.0,0.0,0.0,0.0,0.0,0.0,0.0,0.0,0.0,0.0,0.0,0.0,0.0,0.0,0.0,0.0,0.0,0.0,0.0,0.0,0.0,0.0,0.0,0.0,0.0,0.0,0.0,0.0,0.0,0.0,0.0,0.0,0.0,0.0,0.0,0.0,0.0,0.0,0.0,0.0,0.0,0.0,0.0,0.0,0.0,0.0,0.0,0.0,0.0,0.0,0.0,0.0,0.0,0.0,0.0,0.0,0.0,0.0,0.0,0.0,0.0,0.0,0.0,0.0,0.0,0.0,0.0,0.0,0.0,0.0,0.0,0.0,0.0,0.0,0.0,0.0,0.0,0.0,0.0,0.0,0.0,0.0,0.0,0.0,0.0,0.0,0.0,0.0,0.0,0.0,0.0,0.0,0.0,0.0,0.0,0.0,0.0,0.0,0.0,0.0,0.0,0.0,0.0,0.0,0.0,0.0,0.0,0.0,0.0,0.0,0.0,0.0,0.0,0.0,0.0,0.0,0.0,0.0,0.0,0.0,0.0,0.0,0.0,0.0,0.0,0.0,0.0,0.0,0.0,0.0,0.0,0.0,0.0,0.0,0.0,0.0,0.0,0.0,0.0,0.0,0.0,0.0,0.0,0.0,0.0,0.0,0.0,0.0,0.0,0.0,0.0,0.0,0.0,0.0,0.0,0.0,0.0,0.0,0.0,0.0,0.0,0.0,0.0,0.0,0.0,0.0,0.0,0.0,0.0,0.0,0.0,0.0,0.0,0.0,0.0,0.0,0.0,0.0,0.0,0.0,0.0,0.0,0.0,0.0,0.0,0.0,0.0,0.0,0.0,0.0,0.0,0.0,0.0,0.0,0.0,0.0,0.0,0.0,0.0,0.0,0.0,0.0,0.0,0.0,0.0,0.0,0.0,0.0,0.0,0.0,0.0,0.0,0.0,0.0,0.0,0.0,0.0,0.0,0.0,0.0,0.0,0.0,0.0,0.0,0.0,0.0,0.0,0.0,0.0,0.0,0.0,0.0,0.0,0.0,0.0,0.0,0.0,0.0,0.0,0.0,0.0,0.0,0.0,0.0,0.0,0.0,0.0,0.0,0.0,0.0,0.0,0.0,0.0,0.0,0.0,0.0,0.0,0.0,0.0,0.0,0.0,0.0,0.0,0.0,0.0,0.0,0.0,0.0,0.0,0.0,0.0,0.0,0.0,0.0,0.0,0.0,0.0,0.0,0.0,0.0,0.0,0.0,0.0,0.0,0.0,0.0,0.0,0.0,0.0,0.0,0.0,0.0,0.0,0.0,0.0,0.0,0.0,0.0,0.0,0.0,0.0,0.0,0.0,0.0,0.0,0.0,0.0,0.0,0.0,0.0,0.0,0.0,0.0,0.0,0.0,0.0,0.0,0.0,0.0,0.0,0.0,0.0,0.0,0.0,0.0,0.0,0.0,0.0,0.0,0.0,0.0,0.0,0.0,0.0,0.0,0.0,0.0,0.0,0.0,0.0,0.0,0.0,0.0,0.0,0.0,0.0,0.0,0.0,0.0,0.0,0.0,0.0,0.0,0.0,0.0,0.0,0.0,0.0,0.0,0.0,0.0,0.0,0.0,0.0,0.0,0.0,0.0,0.0,0.0,0.0,0.0,0.0,0.0,0.0,0.0,0.0,0.0,0.0,0.0,0.0,0.0,0.0,0.0,0.0,0.0,0.0,0.0,0.0,0.0,0.0,0.0,0.0,0.0,0.0,0.0,0.0,0.0,0.0,0.0,0.0,0.0,0.0,0.0,0.0,0.0,0.0,0.0,0.0,0.0,0.0,0.0,0.0,0.0,0.0,0.0,0.0,0.0,0.0,0.0,0.0,0.0,0.0,0.0,0.0,0.0,0.0,0.0,0.0,0.0,0.0,0.0,0.0,0.0,0.0,0.0,0.0,0.0,0.0,0.0,0.0,0.0,0.0,0.0,0.0,0.0,0.0,0.0,0.0,0.0,0.0,0.0,0.0,0.0,0.0,0.0,0.0,0.0,0.0,0.0,0.0,0.0,0.0,0.0,0.0,0.0,0.0,0.0,0.0,0.0,0.0,0.0,0.0,0.0,0.0,0.0,0.0,0.0,0.0,0.0,0.0,0.0,0.0,0.0,0.0,0.0,0.0,0.0,0.0,0.0,0.0,0.0,0.0,0.0,0.0,0.0,0.0,0.0,0.0,0.0,0.0,0.0,0.0,0.0,0.0,0.0,0.0,0.0,0.0,0.0,0.0,0.0,0.0,0.0,0.0,0.0,0.0,0.0,0.0,0.0,0.0,0.0,0.0,0.0,0.0,0.0,0.0,0.0,0.0,0.0,0.0,0.0,0.0,0.0,0.0,0.0,0.0,0.0,0.0,0.0,0.0,0.0,0.0,0.0,0.0,0.0,0.0,0.0,0.0,0.0,0.0,0.0,0.0,0.0,0.0,0.0,0.0,0.0,0.0,0.0,0.0,0.0,0.0,0.0,0.0,0.0,0.0,0.0,0.0,0.0,0.0,0.0,0.0,0.0,0.0,0.0,0.0,0.0,0.0,0.0,0.0,0.0,0.0,0.0,0.0,0.0,0.0,0.0,0.0,0.0,0.0,0.0,0.0,0.0,0.0,0.0,0.0,0.0,0.0,0.0,0.0,0.0,0.0,0.0,0.0,0.0,0.0,0.0,0.0,0.0,0.0,0.0,0.0,0.0,0.0,0.0,0.0,0.0,0.0,0.0,0.0,0.0,0.0,0.0,0.0,0.0,0.0,0.0,0.0,0.0,0.0,0.0,0.0,0.0,0.0,0.0,0.0,0.0,0.0,0.0,0.0,0.0,0.0,0.0,0.0,0.0,0.0,0.0,0.0,0.0,0.0,0.0,0.0,0.0,0.0,0.0,0.0,0.0,0.0,0.0,0.0,0.0,0.0,0.0,0.0,0.0,0.0,0.0,0.0,0.0,0.0,0.0,0.0,2.1404,0.0,0.0,0.0,0.0,0.0,0.0,0.0,0.0,0.0,0.0,0.0,0.0,0.0,0.0,0.0,0.0,0.0,0.0,0.0,0.0,0.0,0.0,0.0,0.0,0.0,0.0,0.0,0.0,0.0,0.0,0.0,0.0,0.0,0.0,0.0,0.0,0.0,0.0,0.0,0.0,0.0,0.0,0.0,0.0,0.0,0.0,0.0,0.0,0.0,0.0,0.0,0.0,0.0,0.0,0.0,0.0,0.0,0.0,0.0,0.0,0.0,0.0,0.0,0.0,0.0,0.0,0.0,0.0,0.0,0.0,0.0,0.0,0.0,0.0,0.0,0.0,0.0,0.0,0.0,0.0,0.0,0.0,0.0,0.0,0.0,0.0,0.0,0.0,0.0,0.0,0.0,0.0,0.0,0.0,0.0,0.0,0.0,0.0,0.0,0.0,0.0,0.0,0.0,0.0,0.0,0.0,0.0,0.0,0.0,0.0,2.294,2.2197,2.302,2.294,2.1761,0.0,0.0,0.0,0.0,0.0,0.0,0.0,0.0,0.0,0.0,0.0,0.0,0.0,0.0,0.0,0.0,0.0,0.0,0.0,0.0,0.0,0.0,0.0,0.0,0.0,0.0,0.0,0.0,0.0,0.0,0.0,0.0,0.0,0.0,0.0,0.0,0.0,0.0,0.0,0.0,0.0,0.0,0.0,0.0,0.0,0.0,0.0,0.0,0.0,0.0,0.0,0.0,0.0,0.0,0.0,0.0,0.0,0.0,0.0,0.0,0.0,0.0,0.0,0.0,0.0,0.0,0.0,0.0,0.0,0.0,0.0,0.0,0.0,0.0,0.0,0.0,0.0,0.0,0.0,0.0,0.0,0.0,0.0,0.0,0.0,0.0,0.0,0.0,0.0,0.0,0.0,0.0,0.0,0.0,0.0,0.0,0.0,0.0,0.0,0.0,0.0,0.0,0.0,0.0,0.0,0.0,0.0,0.0,0.0,0.0,0.0,0.0,2.3628,2.345,2.2301,0.0,0.0,0.0,0.0,0.0,0.0,0.0,0.0,0.0,0.0,0.0,0.0,0.0,0.0,0.0,0.0,0.0,0.0,0.0,0.0,0.0,0.0,0.0,0.0,0.0,0.0,0.0,0.0,0.0,0.0,0.0,0.0,0.0,0.0,0.0,0.0,0.0,0.0,0.0,0.0,0.0,0.0,0.0,0.0,0.0,0.0,0.0,0.0,0.0,0.0,0.0,0.0,0.0,0.0,0.0,0.0,0.0,0.0,0.0,0.0,0.0,0.0,0.0,0.0,0.0,0.0,0.0,0.0,0.0,0.0,0.0,0.0,0.0,0.0,0.0,0.0,0.0,0.0,0.0,0.0,0.0,0.0,0.0,0.0,0.0,0.0,0.0,0.0,0.0,0.0,0.0,0.0,0.0,0.0,0.0,0.0,0.0,0.0,0.0,0.0,0.0,0.0,0.0,0.0,0.0,0.0,0.0,0.0,0.0,0.0,2.379,2.3816,2.387,0.0,2.3856,0.0,0.0,0.0,0.0,0.0,0.0,0.0,0.0,0.0,0.0,0.0,0.0,0.0,0.0,0.0,0.0,0.0,0.0,0.0,0.0,0.0,0.0,0.0,0.0,0.0,0.0,0.0,0.0,0.0,0.0,0.0,0.0,0.0,0.0,0.0,0.0,0.0,0.0,0.0,0.0,0.0,0.0,0.0,0.0,0.0,0.0,0.0,0.0,0.0,0.0,0.0,0.0,0.0,0.0,0.0,0.0,0.0,0.0,0.0,0.0,0.0,0.0,0.0,0.0,0.0,0.0,0.0,0.0,0.0,0.0,0.0,0.0,0.0,0.0,0.0,0.0,0.0,0.0,0.0,0.0,0.0,0.0,0.0,0.0,0.0,0.0,0.0,0.0,0.0,0.0,0.0,0.0,0.0,0.0,0.0,0.0,0.0,0.0,0.0,0.0,0.0,0.0,0.0,0.0,0.0,0.0,0.0,0.0,0.0,0.0,2.3806,2.3837,2.3917,2.4006,0.0,0.0,0.0,0.0,0.0,0.0,0.0,0.0,0.0,0.0,0.0,0.0,0.0,0.0,0.0,0.0,0.0,0.0,0.0,0.0,0.0,0.0,0.0,0.0,0.0,0.0,0.0,0.0,0.0,0.0,0.0,0.0,0.0,0.0,0.0,0.0,0.0,0.0,0.0,0.0,0.0,0.0,0.0,0.0,0.0,0.0,0.0,0.0,0.0,0.0,0.0,0.0,0.0,0.0,0.0,0.0,0.0,0.0,0.0,0.0,0.0,0.0,0.0,0.0,0.0,0.0,0.0,0.0,0.0,0.0,0.0,0.0,0.0,0.0,0.0,0.0,0.0,0.0,0.0,0.0,0.0,0.0,0.0,0.0,0.0,0.0,0.0,0.0,0.0,0.0,0.0,0.0,0.0,0.0,0.0,0.0,0.0,0.0,0.0,0.0,0.0,0.0,0.0,0.0,0.0,0.0,0.0,0.0,0.0,0.0,2.3795,2.3795,2.3806,2.3927,2.4016,2.4074,0.0,0.0,0.0,0.0,0.0,0.0,0.0,0.0,0.0,0.0,0.0,0.0,0.0,0.0,0.0,0.0,0.0,0.0,0.0,0.0,0.0,0.0,0.0,0.0,0.0,0.0,0.0,0.0,0.0,0.0,0.0,0.0,0.0,0.0,0.0,0.0,0.0,0.0,0.0,0.0,0.0,0.0,0.0,0.0,0.0,0.0,0.0,0.0,0.0,0.0,0.0,0.0,0.0,0.0,0.0,0.0,0.0,0.0,0.0,0.0,0.0,0.0,0.0,0.0,0.0,0.0,0.0,0.0,0.0,0.0,0.0,0.0,0.0,0.0,0.0,0.0,0.0,0.0,0.0,0.0,0.0,0.0,0.0,0.0,0.0,0.0,0.0,0.0,0.0,0.0,0.0,0.0,0.0,0.0,0.0,0.0,0.0,0.0,0.0,0.0,0.0,0.0,0.0,0.0,0.0,0.0,0.0,0.0,2.3795,2.3795,2.3795,2.3806,2.3927,2.4006,0.0,0.0,0.0,0.0,0.0,0.0,0.0,0.0,0.0,0.0,0.0,0.0,0.0,0.0,0.0,0.0,0.0,0.0,0.0,0.0,0.0,0.0,0.0,0.0,0.0,0.0,0.0,0.0,0.0,0.0,0.0,0.0,0.0,0.0,0.0,0.0,0.0,0.0,0.0,0.0,0.0,0.0,0.0,0.0,0.0,0.0,0.0,0.0,0.0,0.0,0.0,0.0,0.0,0.0,0.0,0.0,0.0,0.0,0.0,0.0,0.0,0.0,0.0,0.0,0.0,0.0,0.0,0.0,0.0,0.0,0.0,0.0,0.0,0.0,0.0,0.0,0.0,0.0,0.0,0.0,0.0,0.0,0.0,0.0,0.0,0.0,0.0,0.0,0.0,0.0,0.0,0.0,0.0,0.0,0.0,0.0,0.0,0.0,0.0,0.0,0.0,0.0,0.0,0.0,0.0,0.0,0.0,0.0,0.0,2.3795,2.3795,2.3795,2.3806,2.3945,2.3988,0.0,0.0,0.0,0.0,0.0,0.0,0.0,0.0,0.0,0.0,0.0,0.0,0.0,0.0,0.0,0.0,0.0,0.0,0.0,0.0,0.0,0.0,0.0,0.0,0.0,0.0,0.0,0.0,0.0,0.0,0.0,0.0,0.0,0.0,0.0,0.0,0.0,0.0,0.0,0.0,0.0,0.0,0.0,0.0,0.0,0.0,0.0,0.0,0.0,0.0,0.0,0.0,0.0,0.0,0.0,0.0,0.0,0.0,0.0,0.0,0.0,0.0,0.0,0.0,0.0,0.0,0.0,0.0,0.0,0.0,0.0,0.0,0.0,0.0,0.0,0.0,0.0,0.0,0.0,0.0,0.0,0.0,0.0,0.0,0.0,0.0,0.0,0.0,0.0,0.0,0.0,0.0,0.0,0.0,0.0,0.0,0.0,0.0,0.0,0.0,0.0,0.0,0.0,0.0,0.0,0.0,0.0,0.0,0.0,2.3795,0.0,2.3795,2.3806,2.3927,2.3988,0.0,0.0,0.0,0.0,0.0,0.0,0.0,0.0,0.0,0.0,0.0,0.0,0.0,0.0,0.0,0.0,0.0,0.0,0.0,0.0,0.0,0.0,0.0,0.0,0.0,0.0,0.0,0.0,0.0,0.0,0.0,0.0,0.0,0.0,0.0,0.0,0.0,0.0,0.0,0.0,0.0,0.0,0.0,0.0,0.0,0.0,0.0,0.0,0.0,0.0,0.0,0.0,0.0,0.0,0.0,0.0,0.0,0.0,0.0,0.0,0.0,0.0,0.0,0.0,0.0,0.0,0.0,0.0,0.0,0.0,0.0,0.0,0.0,0.0,0.0,0.0,0.0,0.0,0.0,0.0,0.0,0.0,0.0,0.0,0.0,0.0,0.0,0.0,0.0,0.0,0.0,0.0,0.0,0.0,0.0,0.0,0.0,0.0,0.0,0.0,0.0,0.0,0.0,0.0,0.0,0.0,0.0,0.0,2.3831,2.3795,2.3795,2.3795,2.3806,2.3945,2.3988,0.0,0.0,0.0,0.0,0.0,0.0,0.0,0.0,0.0,0.0,0.0,0.0,0.0,0.0,0.0,0.0,0.0,0.0,0.0,0.0,0.0,0.0,0.0,0.0,0.0,0.0,0.0,0.0,0.0,0.0,0.0,0.0,0.0,0.0,0.0,0.0,0.0,0.0,0.0,0.0,0.0,0.0,0.0,0.0,0.0,0.0,0.0,0.0,0.0,0.0,0.0,0.0,0.0,0.0,0.0,0.0,0.0,0.0,0.0,0.0,0.0,0.0,0.0,0.0,0.0,0.0,0.0,0.0,0.0,0.0,0.0,0.0,0.0,0.0,0.0,0.0,0.0,0.0,0.0,0.0,0.0,0.0,0.0,0.0,0.0,0.0,0.0,0.0,0.0,0.0,0.0,0.0,0.0,0.0,0.0,0.0,0.0,0.0,0.0,0.0,0.0,0.0,0.0,0.0,0.0,0.0,0.0,0.0,0.0,2.3813,2.3795,2.3795,2.3806,2.3927,2.3988,0.0,0.0,0.0,0.0,0.0,0.0,0.0,0.0,0.0,0.0,0.0,0.0,0.0,0.0,0.0,0.0,0.0,0.0,0.0,0.0,0.0,0.0,0.0,0.0,0.0,0.0,0.0,0.0,0.0,0.0,0.0,0.0,0.0,0.0,0.0,0.0,0.0,0.0,0.0,0.0,0.0,0.0,0.0,0.0,0.0,0.0,0.0,0.0,0.0,0.0,0.0,0.0,0.0,0.0,0.0,0.0,0.0,0.0,0.0,0.0,0.0,0.0,0.0,0.0,0.0,0.0,0.0,0.0,0.0,0.0,0.0,0.0,0.0,0.0,0.0,0.0,0.0,0.0,0.0,0.0,0.0,0.0,0.0,0.0,0.0,0.0,0.0,0.0,0.0,0.0,0.0,0.0,0.0,0.0,0.0,0.0,0.0,0.0,0.0,0.0,0.0,0.0,0.0,0.0,0.0,0.0,0.0,0.0,0.0,2.4624,2.4082,2.3795,2.3795,2.3907,2.3968,2.3996,0.0,0.0,0.0,0.0,0.0,0.0,0.0,0.0,0.0,0.0,0.0,0.0,0.0,0.0,0.0,0.0,0.0,0.0,0.0,0.0,0.0,0.0,0.0,0.0,0.0,0.0,0.0,0.0,0.0,0.0,0.0,0.0,0.0,0.0,0.0,0.0,0.0,0.0,0.0,0.0,0.0,0.0,0.0,0.0,0.0,0.0,0.0,0.0,0.0,0.0,0.0,0.0,0.0,0.0,0.0,0.0,0.0,0.0,0.0,0.0,0.0,0.0,0.0,0.0,0.0,0.0,0.0,0.0,0.0,0.0,0.0,0.0,0.0,0.0,0.0,0.0,0.0,0.0,0.0,0.0,0.0,0.0,0.0,0.0,0.0,0.0,0.0,0.0,0.0,0.0,0.0,0.0,0.0,0.0,0.0,0.0,0.0,0.0,0.0,0.0,0.0,0.0,0.0,0.0,0.0,0.0,0.0,0.0,2.6063,2.466,2.3911,2.3886,2.3993,2.4036,0.0,0.0,0.0,0.0,0.0,0.0,0.0,0.0,0.0,0.0,0.0,0.0,0.0,0.0,0.0,0.0,0.0,0.0,0.0,0.0,0.0,0.0,0.0,0.0,0.0,0.0,0.0,0.0,0.0,0.0,0.0,0.0,0.0,0.0,0.0,0.0,0.0,0.0,0.0,0.0,0.0,0.0,0.0,0.0,0.0,0.0,0.0,0.0,0.0,0.0,0.0,0.0,0.0,0.0,0.0,0.0,0.0,0.0,0.0,0.0,0.0,0.0,0.0,0.0,0.0,0.0,0.0,0.0,0.0,0.0,0.0,0.0,0.0,0.0,0.0,0.0,0.0,0.0,0.0,0.0,0.0,0.0,0.0,0.0,0.0,0.0,0.0,0.0,0.0,0.0,0.0,0.0,0.0,0.0,0.0,0.0,0.0,0.0,0.0,0.0,0.0,0.0,0.0,0.0,0.0,0.0,0.0,0.0,0.0,2.6701,2.5871,2.5197,2.4737,2.5336,2.5114,0.0,0.0,0.0,0.0,0.0,0.0,0.0,0.0,0.0,0.0,0.0,0.0,0.0,0.0,0.0,0.0,0.0,0.0,0.0,0.0,0.0,0.0,0.0,0.0,0.0,0.0,0.0,0.0,0.0,0.0,0.0,0.0,0.0,0.0,0.0,0.0,0.0,0.0,0.0,0.0,0.0,0.0,0.0,0.0,0.0,0.0,0.0,0.0,0.0,0.0,0.0,0.0,0.0,0.0,0.0,0.0,0.0,0.0,0.0,0.0,0.0,0.0,0.0,0.0,0.0,0.0,0.0,0.0,0.0,0.0,0.0,0.0,0.0,0.0,0.0,0.0,0.0,0.0,0.0,0.0,0.0,0.0,0.0,0.0,0.0,0.0,0.0,0.0,0.0,0.0,0.0,0.0,0.0,0.0,0.0,0.0,0.0,0.0,0.0,0.0,0.0,0.0,0.0,0.0,0.0,0.0,0.0,0.0,2.7437,2.7405,2.7089,2.662,2.593,2.6149,2.5844,0.0,0.0,0.0,0.0,0.0,0.0,0.0,0.0,0.0,0.0,0.0,0.0,0.0,0.0,0.0,0.0,0.0,0.0,0.0,0.0,0.0,0.0,0.0,0.0,0.0,0.0,0.0,0.0,0.0,0.0,0.0,0.0,0.0,0.0,0.0,0.0,0.0,0.0,0.0,0.0,0.0,0.0,0.0,0.0,0.0,0.0,0.0,0.0,0.0,0.0,0.0,0.0,0.0,0.0,0.0,0.0,0.0,0.0,0.0,0.0,0.0,0.0,0.0,0.0,0.0,0.0,0.0,0.0,0.0,0.0,0.0,0.0,0.0,0.0,0.0,0.0,0.0,0.0,0.0,0.0,0.0,0.0,0.0,0.0,0.0,0.0,0.0,0.0,0.0,0.0,0.0,0.0,0.0,0.0,0.0,0.0,0.0,0.0,0.0,0.0,0.0,0.0,0.0,0.0,0.0,0.0,0.0,0.0,2.794,2.7879,2.8081,2.7875,2.7269,2.6712,2.6367,0.0,0.0,0.0,0.0,0.0,0.0,0.0,0.0,0.0,0.0,0.0,0.0,0.0,0.0,0.0,0.0,0.0,0.0,0.0,0.0,0.0,0.0,0.0,0.0,0.0,0.0,0.0,0.0,0.0,0.0,0.0,0.0,0.0,0.0,0.0,0.0,0.0,0.0,0.0,0.0,0.0,0.0,0.0,0.0,0.0,0.0,0.0,0.0,0.0,0.0,0.0,0.0,0.0,0.0,0.0,0.0,0.0,0.0,0.0,0.0,0.0,0.0,0.0,0.0,0.0,0.0,0.0,0.0,0.0,0.0,0.0,0.0,0.0,0.0,0.0,0.0,0.0,0.0,0.0,0.0,0.0,0.0,0.0,0.0,0.0,0.0,0.0,0.0,0.0,0.0,0.0,0.0,0.0,0.0,0.0,0.0,0.0,0.0,0.0,0.0,0.0,0.0,0.0,0.0,0.0,0.0,0.0,0.0,2.7582,2.7246,2.7766,2.7922,2.7671,2.7843,2.7397,0.0,0.0,0.0,0.0,0.0,0.0,0.0,0.0,0.0,0.0,0.0,0.0,0.0,0.0,0.0,0.0,0.0,0.0,0.0,0.0,0.0,0.0,0.0,0.0,0.0,0.0,0.0,0.0,0.0,0.0,0.0,0.0,0.0,0.0,0.0,0.0,0.0,0.0,0.0,0.0,0.0,0.0,0.0,0.0,0.0,0.0,0.0,0.0,2.5701,0.0,0.0,0.0,0.0,0.0,0.0,0.0,0.0,0.0,0.0,0.0,0.0,0.0,0.0,0.0,0.0,0.0,0.0,0.0,0.0,0.0,0.0,0.0,0.0,0.0,0.0,0.0,0.0,0.0,0.0,0.0,0.0,0.0,0.0,0.0,0.0,0.0,0.0,0.0,0.0,0.0,0.0,0.0,0.0,0.0,0.0,0.0,0.0,0.0,0.0,0.0,0.0,0.0,0.0,0.0,0.0,0.0,0.0,0.0,2.8314,2.825,2.8591,2.8568,2.8248,2.861,2.8344,0.0,0.0,0.0,0.0,0.0,0.0,0.0,0.0,0.0,0.0,0.0,0.0,0.0,0.0,0.0,0.0,0.0,0.0,0.0,0.0,0.0,0.0,0.0,0.0,0.0,0.0,0.0,0.0,0.0,0.0,0.0,0.0,0.0,0.0,0.0,0.0,0.0,0.0,0.0,0.0,0.0,0.0,0.0,0.0,0.0,0.0,0.0,0.0,0.0,0.0,0.0,0.0,0.0,0.0,0.0,0.0,0.0,0.0,0.0,0.0,0.0,0.0,0.0,0.0,0.0,0.0,0.0,0.0,0.0,0.0,0.0,0.0,0.0,0.0,0.0,0.0,0.0,0.0,0.0,0.0,0.0,0.0,0.0,0.0,0.0,0.0,0.0,0.0,0.0,0.0,0.0,0.0,0.0,0.0,0.0,0.0,0.0,0.0,0.0,0.0,0.0,0.0,0.0,0.0,0.0,0.0,0.0,2.9212,2.9229,2.9455,2.954,2.9363,2.8914,2.9263,2.9239,2.8766,0.0,0.0,0.0,0.0,0.0,0.0,0.0,0.0,0.0,0.0,0.0,0.0,0.0,0.0,0.0,0.0,0.0,0.0,0.0,0.0,0.0,0.0,0.0,0.0,0.0,0.0,0.0,0.0,0.0,0.0,0.0,0.0,0.0,0.0,0.0,0.0,0.0,0.0,2.5486,2.548,0.0,0.0,0.0,0.0,0.0,0.0,0.0,0.0,2.5696,0.0,0.0,0.0,0.0,0.0,0.0,0.0,0.0,0.0,0.0,0.0,0.0,0.0,0.0,0.0,0.0,0.0,0.0,0.0,0.0,0.0,0.0,0.0,0.0,0.0,0.0,0.0,0.0,0.0,0.0,0.0,0.0,0.0,0.0,0.0,0.0,0.0,0.0,0.0,0.0,0.0,0.0,0.0,0.0,0.0,0.0,0.0,0.0,0.0,0.0,0.0,0.0,0.0,0.0,0.0,0.0,2.8854,2.9017,2.9051,2.8943,2.9368,2.9623,2.9715,2.9986,2.992,2.9449,0.0,0.0,0.0,0.0,0.0,0.0,0.0,0.0,0.0,0.0,0.0,0.0,0.0,0.0,0.0,0.0,0.0,0.0,0.0,0.0,0.0,0.0,0.0,0.0,0.0,0.0,0.0,0.0,0.0,0.0,0.0,0.0,0.0,0.0,0.0,0.0,0.0,0.0,0.0,2.5365,2.5363,0.0,0.0,0.0,0.0,0.0,0.0,0.0,0.0,2.5688,0.0,0.0,0.0,0.0,0.0,0.0,0.0,0.0,0.0,0.0,0.0,0.0,0.0,0.0,0.0,0.0,0.0,0.0,0.0,0.0,0.0,0.0,0.0,0.0,0.0,0.0,0.0,0.0,0.0,0.0,0.0,0.0,0.0,0.0,0.0,0.0,0.0,0.0,0.0,0.0,0.0,0.0,0.0,0.0,0.0,0.0,0.0,0.0,0.0,0.0,0.0,0.0,0.0,0.0,0.0,2.9677,2.9772,2.9864,2.9957,3.0371,3.0436,3.0127,3.0582,3.0627,0.0,0.0,0.0,0.0,0.0,0.0,0.0,0.0,0.0,0.0,0.0,0.0,0.0,0.0,0.0,0.0,0.0,0.0,0.0,0.0,0.0,0.0,0.0,0.0,0.0,0.0,0.0,0.0,0.0,0.0,0.0,0.0,0.0,0.0,0.0,0.0,0.0,0.0,0.0,0.0,2.5337,2.5336,2.5441,0.0,0.0,0.0,0.0,0.0,0.0,2.5613,2.5593,0.0,0.0,0.0,0.0,0.0,0.0,0.0,0.0,0.0,0.0,0.0,0.0,0.0,0.0,0.0,0.0,0.0,0.0,0.0,0.0,0.0,0.0,0.0,0.0,0.0,0.0,0.0,0.0,0.0,0.0,0.0,0.0,0.0,0.0,0.0,0.0,0.0,0.0,0.0,0.0,0.0,0.0,0.0,0.0,0.0,0.0,0.0,0.0,0.0,0.0,0.0,0.0,0.0,0.0,0.0,3.0406,3.0282,3.0443,3.0902,3.0946,3.0849,3.0633,3.1062,3.1103,0.0,0.0,0.0,0.0,0.0,0.0,0.0,0.0,0.0,0.0,0.0,0.0,0.0,0.0,0.0,0.0,0.0,0.0,0.0,0.0,0.0,0.0,0.0,0.0,0.0,0.0,0.0,0.0,0.0,0.0,0.0,0.0,0.0,0.0,0.0,0.0,0.0,0.0,0.0,0.0,0.0,2.5322,2.5367,2.5385,0.0,0.0,0.0,0.0,2.5492,2.5486,0.0,0.0,0.0,0.0,0.0,0.0,0.0,0.0,0.0,0.0,0.0,0.0,0.0,0.0,0.0,0.0,0.0,0.0,0.0,0.0,0.0,0.0,0.0,0.0,0.0,0.0,0.0,0.0,0.0,0.0,0.0,0.0,0.0,0.0,0.0,0.0,0.0,0.0,0.0,0.0,0.0,0.0,0.0,0.0,0.0,0.0,0.0,0.0,0.0,0.0,0.0,0.0,0.0,0.0,0.0,0.0,2.9886,2.9471,2.9704,3.0562,2.9664,2.9938,3.1631,3.1168,3.1091,0.0,0.0,0.0,0.0,0.0,0.0,0.0,0.0,0.0,0.0,0.0,0.0,0.0,0.0,0.0,0.0,0.0,0.0,0.0,0.0,0.0,0.0,0.0,0.0,0.0,0.0,0.0,0.0,0.0,0.0,0.0,0.0,0.0,0.0,0.0,0.0,0.0,0.0,0.0,0.0,0.0,2.5297,2.5307,2.5312,2.5322,0.0,0.0,2.5418,2.5415,2.5421,0.0,0.0,0.0,0.0,0.0,0.0,0.0,0.0,0.0,0.0,0.0,0.0,0.0,0.0,0.0,0.0,0.0,0.0,0.0,0.0,0.0,0.0,0.0,0.0,0.0,0.0,0.0,0.0,0.0,0.0,0.0,0.0,0.0,0.0,0.0,0.0,0.0,0.0,0.0,0.0,0.0,0.0,0.0,0.0,0.0,0.0,0.0,0.0,0.0,0.0,0.0,0.0,0.0,0.0,0.0,3.0545,3.081,3.0733,3.0985,3.1534,3.1424,3.1647,3.2219,3.2279,3.2283,0.0,0.0,0.0,0.0,0.0,0.0,0.0,0.0,0.0,0.0,0.0,0.0,0.0,0.0,0.0,0.0,0.0,0.0,0.0,0.0,0.0,0.0,0.0,0.0,0.0,0.0,0.0,0.0,0.0,0.0,0.0,0.0,0.0,0.0,0.0,0.0,0.0,0.0,0.0,0.0,0.0,0.0,2.5904,2.5562,0.0,0.0,0.0,2.6173,2.6685,0.0,0.0,0.0,0.0,0.0,0.0,0.0,0.0,0.0,0.0,0.0,0.0,0.0,0.0,0.0,0.0,0.0,0.0,0.0,0.0,0.0,0.0,0.0,0.0,0.0,0.0,0.0,0.0,0.0,0.0,0.0,0.0,0.0,0.0,0.0,0.0,0.0,0.0,0.0,0.0,0.0,0.0,0.0,0.0,0.0,0.0,0.0,0.0,0.0,0.0,0.0,0.0,0.0,0.0,0.0,0.0,0.0,3.1477,3.1526,3.1722,3.2111,3.2282,3.2433,3.2591,3.2972,0.0,0.0,0.0,0.0,0.0,0.0,0.0,0.0,0.0,0.0,0.0,0.0,0.0,0.0,0.0,0.0,0.0,0.0,0.0,0.0,0.0,0.0,0.0,0.0,0.0,0.0,0.0,2.4693,0.0,0.0,0.0,0.0,0.0,0.0,0.0,0.0,0.0,0.0,0.0,0.0,0.0,0.0,2.5901,2.6681,2.6257,2.6276,0.0,0.0,2.7024,2.7674,2.7733,2.7713,0.0,0.0,0.0,0.0,0.0,0.0,0.0,0.0,0.0,0.0,0.0,0.0,0.0,0.0,0.0,0.0,0.0,0.0,0.0,0.0,0.0,0.0,0.0,0.0,0.0,0.0,0.0,0.0,0.0,0.0,0.0,0.0,0.0,0.0,0.0,0.0,0.0,0.0,0.0,0.0,0.0,0.0,0.0,0.0,0.0,0.0,0.0,0.0,0.0,0.0,0.0,0.0,0.0,0.0,3.12,3.1216,3.0816,3.0966,3.159,3.0532,3.0844,3.269,3.2454,3.2911,0.0,0.0,0.0,0.0,0.0,0.0,0.0,0.0,0.0,0.0,0.0,0.0,0.0,0.0,0.0,0.0,0.0,0.0,0.0,0.0,0.0,0.0,0.0,0.0,0.0,0.0,0.0,0.0,0.0,0.0,0.0,0.0,0.0,0.0,0.0,0.0,0.0,0.0,0.0,0.0,0.0,2.7345,2.7587,2.7567,2.758,0.0,2.765,2.7657,2.7708,2.7727,2.7707,2.7783,0.0,0.0,0.0,0.0,0.0,0.0,0.0,0.0,0.0,0.0,0.0,0.0,0.0,0.0,0.0,0.0,0.0,0.0,0.0,0.0,0.0,0.0,0.0,0.0,0.0,0.0,0.0,0.0,0.0,0.0,0.0,0.0,0.0,0.0,0.0,0.0,0.0,0.0,0.0,0.0,0.0,0.0,0.0,0.0,0.0,0.0,0.0,0.0,0.0,0.0,0.0,0.0,0.0,3.2076,3.2487,3.2311,3.2437,3.2837,3.2628,3.2702,3.3211,3.3443,3.3713,0.0,0.0,0.0,0.0,0.0,0.0,0.0,0.0,0.0,0.0,0.0,0.0,0.0,0.0,0.0,0.0,0.0,0.0,0.0,0.0,0.0,0.0,0.0,0.0,0.0,0.0,0.0,0.0,2.5652,2.6137,2.6098,0.0,0.0,0.0,0.0,0.0,0.0,0.0,0.0,0.0,0.0,2.7288,2.7878,2.7699,0.0,0.0,2.8641,2.8597,2.9166,2.9249,2.925,2.927,2.9277,0.0,0.0,0.0,0.0,0.0,0.0,0.0,0.0,0.0,0.0,0.0,0.0,0.0,0.0,0.0,0.0,0.0,0.0,0.0,0.0,0.0,0.0,0.0,0.0,0.0,0.0,0.0,0.0,0.0,0.0,0.0,0.0,0.0,0.0,0.0,0.0,0.0,0.0,0.0,0.0,0.0,0.0,0.0,0.0,0.0,0.0,0.0,0.0,0.0,0.0,0.0,0.0,3.294,3.3577,3.3593,3.381,3.4202,3.4233,3.4108,3.3868,3.4332,3.4496,0.0,0.0,0.0,0.0,0.0,0.0,0.0,0.0,0.0,0.0,0.0,0.0,0.0,0.0,0.0,0.0,0.0,0.0,0.0,0.0,0.0,0.0,0.0,0.0,0.0,0.0,0.0,0.0,2.6282,2.6745,2.6722,0.0,0.0,0.0,0.0,0.0,0.0,0.0,0.0,0.0,0.0,2.7883,2.8715,2.8575,2.8858,3.0207,3.0048,3.0005,3.0684,3.0826,3.0849,3.0868,0.0,0.0,0.0,0.0,0.0,0.0,0.0,0.0,0.0,0.0,0.0,0.0,0.0,0.0,0.0,0.0,0.0,0.0,0.0,0.0,0.0,0.0,0.0,0.0,0.0,0.0,0.0,2.9541,0.0,0.0,2.8809,0.0,0.0,0.0,0.0,0.0,0.0,0.0,0.0,0.0,0.0,0.0,0.0,0.0,0.0,0.0,0.0,0.0,0.0,0.0,0.0,0.0,0.0,3.3625,3.4284,3.4273,3.4604,3.5296,3.4663,3.4419,3.467,3.489,3.5124,3.5436,0.0,0.0,0.0,0.0,0.0,0.0,0.0,0.0,0.0,0.0,0.0,0.0,0.0,0.0,0.0,0.0,0.0,0.0,0.0,0.0,0.0,0.0,0.0,0.0,0.0,0.0,2.6435,2.7103,2.7583,0.0,0.0,0.0,0.0,0.0,0.0,0.0,0.0,0.0,2.788,2.855,2.9402,3.0362,3.0516,3.074,3.1595,3.1854,3.2013,3.2023,3.2194,3.2361,0.0,0.0,0.0,0.0,0.0,0.0,0.0,0.0,0.0,0.0,0.0,0.0,0.0,0.0,0.0,0.0,0.0,0.0,0.0,0.0,0.0,0.0,0.0,0.0,0.0,0.0,0.0,3.1756,3.1773,0.0,0.0,0.0,0.0,0.0,0.0,0.0,0.0,0.0,0.0,0.0,3.1462,3.0977,0.0,0.0,0.0,0.0,0.0,0.0,0.0,0.0,0.0,0.0,0.0,0.0,3.4794,3.5015,3.5015,3.5142,3.5379,3.5157,3.5086,3.5169,3.5412,3.5719,3.6074,0.0,0.0,0.0,0.0,0.0,0.0,0.0,0.0,0.0,0.0,0.0,0.0,0.0,0.0,0.0,0.0,0.0,0.0,0.0,0.0,0.0,0.0,0.0,0.0,0.0,2.7483,0.0,0.0,0.0,0.0,0.0,0.0,0.0,0.0,0.0,0.0,2.9691,2.9893,2.9933,3.0295,3.0619,3.0851,3.1065,3.1298,0.0,0.0,0.0,0.0,0.0,0.0,0.0,0.0,0.0,0.0,0.0,0.0,0.0,0.0,3.1215,3.1101,3.109,3.1111,3.1166,0.0,0.0,0.0,0.0,0.0,0.0,0.0,0.0,0.0,0.0,0.0,0.0,0.0,0.0,3.2641,3.2619,3.2597,0.0,0.0,0.0,0.0,0.0,0.0,0.0,0.0,3.2367,3.2562,3.2347,3.199,3.2372,3.3342,3.329,3.2857,0.0,0.0,0.0,0.0,0.0,0.0,0.0,0.0,3.532,3.5556,3.5644,3.5767,3.5988,3.584,3.5758,3.5742,3.5906,3.6199,3.6616,3.6945,3.6813,0.0,0.0,0.0,0.0,0.0,0.0,0.0,0.0,0.0,0.0,0.0,0.0,0.0,0.0,0.0,0.0,0.0,0.0,0.0,0.0,0.0,0.0,0.0,2.8896,0.0,0.0,0.0,0.0,0.0,0.0,0.0,0.0,0.0,3.0826,3.0818,3.0818,3.0818,3.093,3.1079,3.1225,0.0,0.0,0.0,0.0,0.0,0.0,0.0,3.2804,3.292,3.3059,3.3157,3.326,3.326,3.3279,3.3279,0.0,0.0,3.2735,3.2672,3.2684,3.2742,3.2359,3.203,3.2058,3.1744,3.1437,0.0,0.0,0.0,0.0,3.2192,0.0,0.0,0.0,3.2255,3.2271,0.0,3.2219,0.0,0.0,0.0,0.0,3.1705,3.3511,0.0,0.0,3.4581,3.5259,3.5172,3.4674,3.4489,3.4536,3.4505,3.4536,3.4565,3.4812,0.0,0.0,0.0,0.0,0.0,0.0,3.5299,3.5939,3.6133,3.655,3.7145,3.6697,3.6424,3.6453,3.6355,3.6581,3.7053,3.7153,3.7112,3.6911,3.6236,0.0,0.0,0.0,0.0,0.0,0.0,0.0,0.0,0.0,0.0,0.0,0.0,0.0,0.0,0.0,0.0,0.0,0.0,0.0,0.0,3.052,0.0,0.0,0.0,0.0,0.0,0.0,0.0,0.0,0.0,3.1535,3.0843,3.0662,3.0591,3.0659,0.0,0.0,0.0,0.0,3.2295,3.3065,3.3484,3.3744,3.3771,3.3947,3.4072,3.4085,0.0,0.0,3.4887,3.4936,3.4936,3.4965,3.4936,3.451,3.3109,3.2841,3.2779,3.2821,3.285,3.2825,3.2838,3.2801,3.2848,3.4136,0.0,0.0,0.0,0.0,3.3818,3.4049,3.4367,3.4367,3.4394,3.4383,3.4356,0.0,0.0,0.0,0.0,0.0,0.0,3.4361,3.4162,3.4565,3.4752,3.4707,3.4593,3.4751,3.5213,3.5229,3.5475,3.5891,3.5998,3.5796,3.5333,0.0,0.0,0.0,0.0,3.65,3.6687,3.6733,3.6901,3.7178,3.7065,3.703,3.7164,3.7163,3.7167,3.7166,3.7235,3.7204,3.7058,3.6904,0.0,0.0,0.0,0.0,0.0,0.0,0.0,0.0,0.0,0.0,0.0,0.0,0.0,0.0,0.0,0.0,0.0,0.0,0.0,3.0502,3.1001,3.1569,0.0,0.0,0.0,0.0,0.0,0.0,0.0,0.0,0.0,3.3512,3.274,3.242,0.0,0.0,3.3298,3.41,3.4222,3.4345,3.4577,3.4711,0.0,3.5145,3.525,3.5381,3.5671,3.5792,3.5879,3.5969,3.6086,3.6183,3.6164,3.6348,3.633,3.5934,3.4965,3.43,3.4232,3.3872,3.3519,3.3489,3.319,3.2878,3.643,3.6014,3.4967,3.4489,3.4489,3.4489,3.4694,3.4995,3.4979,3.4995,3.4979,3.4964,3.4823,3.452,3.4782,0.0,0.0,0.0,3.5167,3.4921,3.5183,3.5306,3.5276,3.529,3.5476,3.5907,3.5876,3.6091,3.6492,3.6492,3.6292,3.5907,0.0,3.6229,3.6631,3.6754,3.6816,3.6816,3.6877,3.6923,3.7013,3.7089,3.721,3.7359,3.7375,3.7361,3.7335,3.7355,3.7323,3.714,3.7178,3.7268,0.0,0.0,0.0,0.0,0.0,0.0,0.0,0.0,0.0,0.0,0.0,3.3477,3.1864,0.0,0.0,0.0,3.2048,3.2048,3.2048,3.2504,0.0,0.0,0.0,0.0,0.0,0.0,0.0,3.4021,3.4389,3.4688,3.4689,3.4058,3.3772,3.4198,3.4269,3.4464,3.4942,0.0,3.5083,3.5083,3.5153,3.529,3.5521,3.557,3.5664,3.5987,3.6047,3.6091,3.6146,3.6251,3.6367,3.6467,3.6586,3.6771,3.6946,3.6224,3.556,3.5418,3.4784,3.4251,3.4241,3.3917,3.3635,3.8585,3.8385,3.5861,3.4844,3.4828,3.4828,3.4828,3.4813,3.4782,3.4751,3.4736,3.469,3.4674,3.469,3.5306,0.0,3.5614,3.6199,3.6138,3.5614,3.623,3.6522,3.6569,3.6569,3.6599,3.6661,3.6645,3.6645,3.6676,3.6676,3.6645,3.6661,3.6645,3.6599,3.6492,3.6492,3.6492,3.6492,3.6631,3.6693,3.6723,3.6908,3.7044,3.7164,3.7194,3.73,3.7464,3.748,3.7427,3.7266,3.7229,3.7205,3.7159,0.0,0.0,0.0,0.0,0.0,0.0,0.0,0.0,0.0,0.0,0.0,0.0,0.0,0.0,3.4401,3.4384,0.0,3.4384,3.4463,0.0,0.0,0.0,3.4792,3.4862,3.4862,3.4862,3.4862,0.0,0.0,3.495,3.5003,3.5038,3.5056,3.4898,3.4811,3.4882,3.5064,3.5048,3.5154,3.5244,3.5367,3.5526,3.5525,3.5646,3.5828,3.5666,3.5836,3.6009,3.6051,3.6091,3.6333,3.6285,3.6448,3.6822,3.6875,3.669,3.6434,3.5712,3.5107,3.5145,3.5145,3.5126,3.9244,3.9152,3.8046,3.7554,3.7554,3.7554,3.7554,3.7507,3.7015,3.6784,3.6738,3.623,3.6014,3.6014,3.6184,3.6261,3.6245,3.6415,3.6415,3.6276,3.643,3.6769,3.7261,3.7261,3.7538,3.8,3.8031,3.8031,3.8031,3.8031,3.8031,3.8031,3.8046,3.7523,3.6538,3.6492,3.6492,3.6492,3.6523,3.66,3.6693,3.6892,3.6999,3.706,3.715,3.7224,3.7254,3.7405,3.7474,3.7433,3.7417,3.7623,3.797,3.7002,0.0,0.0,0.0,0.0,0.0,0.0,0.0,0.0,0.0,3.4983,3.371,0.0,3.4193,0.0,3.4384,3.4384,3.4384,3.4422,0.0,0.0,3.5298,3.5562,3.6155,3.6225,3.6225,3.6242,3.671,3.7076,3.7059,3.763,3.8058,3.8023,3.6578,3.5759,3.634,3.6484,3.6503,3.6503,3.6543,3.6635,3.6767,3.6951,3.7041,3.7077,3.7113,3.7113,3.7165,3.7302,3.7436,3.7484,3.7646,3.7912,3.8243,3.7905,3.7594,3.7699,3.7189,3.665,3.665,3.6713,3.6793,4.0893,4.0863,4.0493,4.0339,4.0247,3.9031,3.8508,3.8477,3.8123,3.7954,3.7923,3.7554,3.7384,3.7384,3.74,3.7384,3.7384,3.74,3.7384,3.7384,3.74,3.7584,3.7954,3.7954,3.8154,3.8508,3.8508,3.8508,3.8508,3.8508,3.8508,3.8508,3.8508,3.8123,3.7415,3.74,3.74,3.7384,3.74,3.7262,3.7079,3.7157,3.7126,3.6893,3.6938,3.7013,3.7089,3.7241,3.7331,3.7359,3.7359,3.7522,3.7899,3.729,3.7253,0.0,0.0,0.0,0.0,0.0,0.0,0.0,0.0,0.0,0.0,0.0,3.6103,3.6253,3.6277,3.626,3.6277,3.6318,3.6533,3.6932,3.6991,3.7186,3.7621,3.7673,3.7673,3.769,3.8038,3.8299,3.8299,3.8711,3.9033,3.9015,3.7958,3.7373,3.7898,3.8006,3.8041,3.8023,3.8023,3.8063,3.8183,3.8265,3.836,3.838,3.8362,3.8343,3.8362,3.8122,3.8023,3.8079,3.7972,3.7998,3.835,3.8135,3.7959,3.8334,3.8233,3.7796,3.728,3.7189,3.7271,4.2725,4.2725,4.2648,4.2602,4.2417,4.0047,3.8985,3.8893,3.8816,3.8662,3.8508,3.8508,3.8508,3.8508,3.8508,3.8508,3.8508,3.8508,3.8508,3.8508,3.8508,3.8521,3.8631,3.8631,3.8677,3.8769,3.8769,3.8769,3.8769,3.8769,3.8736,3.8769,3.8736,3.8769,3.8769,3.8754,3.8677,3.8523,3.8508,3.8231,3.7646,3.7631,3.7402,3.6956,3.6879,3.6925,3.7078,3.7031,3.7044,3.718,3.7164,3.724,3.7421,3.7421,3.7655,0.0,3.8124,0.0,0.0,0.0,0.0,0.0,0.0,0.0,0.0,3.7787,3.8357,3.8288,3.8334,3.838,3.838,3.8567,3.8656,3.8679,3.8794,3.8842,3.8864,3.8864,3.8864,3.8847,3.8951,3.902,3.8981,3.909,3.9199,3.9268,3.9238,3.9255,3.9462,3.9312,3.9098,3.9259,3.9263,3.907,3.9164,3.9234,3.9255,3.9269,3.922,3.9322,3.9255,3.8728,3.8332,3.8422,3.8074,3.7802,3.8079,3.8202,3.8405,3.9065,3.9238,3.8873,3.7859,3.7561,3.7411,4.3424,4.3377,4.2817,4.2602,4.2556,4.2048,4.1509,4.0986,4.0366,3.949,3.8523,3.8508,3.8508,3.8508,3.8508,3.8508,3.8508,3.8508,3.8508,3.8508,3.8508,3.88,3.9275,3.929,3.9582,4.009,4.012,4.012,4.0105,4.0105,4.012,4.0105,4.0105,4.0105,4.0105,0.0,0.0,0.0,3.8508,3.8431,3.8323,3.8323,3.8262,3.8155,3.7744,0.0,3.7561,3.7203,3.7015,3.703,3.703,0.0,0.0,0.0,0.0,0.0,0.0,0.0,0.0,0.0,0.0,0.0,3.7438,3.736,3.6377,3.6876,3.7053,3.6629,3.6977,3.7228,3.7228,3.7684,3.798,3.8003,3.8397,3.8661,3.8661,3.8661,3.8661,3.8661,3.918,3.9542,3.9577,4.0181,4.0649,4.0597,4.0723,4.0774,4.0784,3.9774,3.9025,3.899,3.918,3.9217,3.9284,3.9354,3.9442,3.9322,3.9322,3.9336,3.9354,3.9249,3.9073,3.9139,3.9033,3.902,3.9382,3.9512,3.9662,4.0551,4.0708,4.0415,3.93,3.9071,3.912,4.3815,4.3784,4.3425,4.3288,0.0,4.3288,4.298,4.2379,4.1776,4.097,4.0047,4.0031,3.9831,3.9474,3.9508,3.9508,3.949,3.9878,4.0031,4.0062,4.0385,4.0724,4.1047,4.1047,4.1217,4.154,4.1555,4.1555,4.1571,4.1555,4.1555,4.1555,4.152,4.152,4.152,4.152,4.0843,3.9508,3.9508,3.9354,3.8998,3.8967,3.8846,3.8523,3.8234,0.0,0.0,0.0,0.0,0.0,0.0,0.0,0.0,3.6999,0.0,3.6999,3.7254,3.7387,3.7417,3.7679,3.7725,3.7417,3.7417,3.7406,3.7378,3.7625,3.7705,3.7518,3.7732,3.7932,3.8044,3.8302,3.8598,3.8854,3.8886,3.9074,3.96,3.9448,3.9289,3.9347,3.9886,4.0197,3.9901,4.0507,4.0982,4.0982,4.1035,4.1065,4.1013,4.0474,4.0038,4.0021,4.0065,4.0149,4.0215,4.0215,4.0237,4.0254,4.0298,4.032,4.032,4.0087,3.9884,3.9866,3.9603,3.9391,3.9522,3.9623,3.9784,4.0348,4.0524,4.058,4.0274,4.0514,4.0688,4.4261,4.4155,4.4155,4.4094,4.4003,4.4003,4.3784,4.341,4.283,0.0,0.0,4.1771,4.1447,4.0874,4.0858,4.0858,4.0905,4.1509,4.1786,4.1801,4.234,4.2602,4.2602,4.2602,4.2602,4.2602,4.2602,4.2602,4.2602,4.2602,4.2602,4.2602,4.2602,4.2602,4.2602,4.2602,4.2048,4.092,4.0751,4.0413,3.9874,3.9736,3.9413,3.8877,3.8754,3.8692,3.8677,3.8569,3.8294,3.7852,3.7821,3.7684,3.7281,3.7266,3.7219,3.7125,3.7501,3.7687,3.7576,3.8035,3.8092,3.7589,3.7164,3.7344,3.8318,3.8402,3.8458,3.8569,3.8569,3.8613,3.8783,3.8892,3.9119,3.9577,3.9411,3.9697,4.0507,4.041,4.0152,4.022,4.057,4.071,4.026,4.0621,4.0894,4.0894,4.0894,4.0894,4.0918,4.0972,4.0978,4.1024,4.0972,4.1116,4.1174,4.1122,4.1209,4.1093,4.123,4.1403,4.1338,4.1007,4.0709,4.0674,4.0112,3.9849,3.9761,3.9852,3.9837,4.0172,4.0292,4.0542,4.1306,4.1792,4.1982,4.5298,4.4853,4.4838,4.4543,4.4003,4.4003,4.3966,4.3807,4.2993,4.2556,4.2463,4.2479,4.2417,4.2325,4.2325,4.2309,4.2325,4.2417,4.2463,4.2463,4.2571,4.2602,4.2602,4.2602,4.2602,4.2602,4.2617,4.2602,4.2602,4.2617,4.2602,4.2617,4.2602,4.2633,4.2602,4.2602,4.2509,4.2294,4.174,4.1401,4.1309,4.0709,4.032,4.0197,3.9659,3.9385,3.937,3.8831,3.8462,3.8417,3.8402,3.8356,3.8311,3.8265,3.8034,3.7479,3.7512,3.7297,3.6739,3.6769,3.6769,3.6677,3.66,3.677,3.718,3.724,3.724,3.7285,3.7314,3.7285,3.7329,3.7738,3.808,3.8234,3.9069,3.9783,4.0028,4.0427,4.0686,4.0686,4.0823,4.0871,4.071,4.0799,4.0894,4.0894,4.0894,4.0894,4.0894,4.0935,4.1006,4.1093,4.1117,4.1146,4.118,4.1209,4.1186,4.1209,4.1295,4.138,4.138,4.1353,4.1314,4.1429,4.1196,4.1161,4.1183,4.1288,4.1304,4.1555,4.164,4.1957,4.2647,4.2943,4.2825,4.5413,4.5157,4.5197,4.5016,4.47,4.4433,4.4149,4.384,4.3617,4.3315,4.3008,4.3088,4.294,4.2617,4.2602,4.2602,4.2617,4.2971,4.3125,4.3171,4.351,4.3679,4.3679,4.3679,4.3679,4.3679,4.3679,4.3679,4.3664,4.3664,4.3679,4.3679,4.3679,4.3679,4.3679,4.3679,4.3679,4.3648,4.2663,4.214,4.214,4.1832,4.1612,4.1663,4.134,4.1016,4.0662,4.0355,3.9847,3.9077,3.9062,3.8859,3.8539,3.8508,3.8369,3.8061,3.8046,3.7908,3.76,3.76,3.7584,3.76,3.7584,3.7648,3.7791,3.7142,3.6754,3.6847,3.6831,3.6892,3.6969,3.724,3.7592,3.8222,3.8613,3.9183,4.0087,4.0237,4.0311,4.0451,4.071,4.0776,4.0451,4.0704,4.0894,4.0894,4.0894,4.0894,4.0894,4.0894,4.0935,4.1,4.1,4.1006,4.1035,4.1041,4.1041,4.1041,4.1169,4.1238,4.1238,4.1335,4.1426,4.1471,4.1493,4.1538,4.1582,4.1604,4.1697,4.1805,4.1856,4.2154,4.2619,4.3051,4.3135,4.5648,4.5529,4.5529,4.5439,4.5244,4.4899,4.4409,4.3877,4.4224,4.4014,4.3472,4.369,4.351,4.3079,4.3063,4.3063,4.3125,4.3556,4.3824,4.3886,4.4363,4.461,4.461,4.461,4.461,4.461,4.461,4.461,4.461,4.461,4.461,4.461,4.461,4.461,4.461,4.461,4.461,4.4548,4.3587,4.2987,4.2833,4.2679,4.2602,4.2602,4.2602,4.2371,4.1863,4.1817,4.134,4.0274,4.0062,3.9754,3.9247,3.9046,3.8908,3.8769,3.8739,3.8677,3.8523,3.8508,3.8573,3.8721,3.8721,3.8705,3.8643,3.7793,3.7157,3.7111,3.7188,3.7204,3.7375,3.7375,3.7695,3.8505,3.8463,3.893,4.0139,4.0279,4.0279,4.0468,4.0834,4.0937,4.0649,4.07,4.0871,4.0894,4.0894,4.0894,4.0894,4.0894,4.0894,4.0894,4.0894,4.0894,4.0894,4.0894,4.0894,4.0894,4.1023,4.1093,4.114,4.1175,4.1232,4.134,4.1363,4.1408,4.1515,4.156,4.1582,4.1609,4.1653,4.1766,4.2216,4.2978,4.3463,4.6756,4.6262,4.6232,4.5858,4.5334,4.5271,4.4881,4.4312,4.4494,4.4227,4.3801,4.4266,4.4464,4.4402,4.4356,4.4326,4.4341,4.4449,4.4464,4.4464,4.4579,4.461,4.461,4.461,4.461,4.461,4.461,4.461,4.461,4.461,4.461,4.461,4.461,4.461,4.461,4.461,4.461,4.461,4.4464,4.4095,4.3531,4.291,4.2602,4.2602,4.2617,4.2586,4.2525,4.2525,4.2448,4.2279,4.1709,4.137,4.1247,4.0693,4.0043,3.949,3.9413,3.9154,3.8616,3.8508,3.8815,3.933,3.9409,3.9409,3.9409,3.9314,3.8968,3.852,3.8356,3.8232,3.834,3.8359,3.846,3.8748,3.917,3.9543,3.9944,4.0828,4.158,4.1715,4.1699,4.1717,4.168,4.1357,4.105,4.1136,4.1084,4.1032,4.1015,4.0929,4.0894,4.0894,4.0894,4.0894,4.0894,4.0894,4.0894,4.0912,4.1006,4.107,4.1093,4.1129,4.1209,4.1226,4.1232,4.1272,4.138,4.1426,4.1471,4.1542,4.1609,4.1762,4.2198,4.3051,4.3733,4.716,4.692,4.6905,4.6516,4.5948,4.5888,4.5514,4.4956,4.5075,4.5046,4.4891,4.5221,4.4952,4.4274,4.4243,4.4243,4.4243,4.4228,4.432,4.4435,4.4435,4.4473,4.4572,4.461,4.461,4.461,4.461,4.461,4.461,4.461,4.461,4.461,4.461,4.461,4.461,4.461,4.461,4.461,4.461,4.4471,4.4225,4.3925,4.3771,4.3771,4.3771,4.3556,4.3217,4.3171,4.3002,4.2633,4.234,4.2186,4.2202,4.1909,4.1648,4.134,4.0955,4.0447,3.9705,3.9674,3.9794,4.0098,4.0098,4.0113,4.0098,4.0444,4.0558,4.0235,3.9234,3.8656,3.9043,3.9092,3.9377,4.0055,4.0504,4.0798,4.1297,4.1776,4.2226,4.2351,4.2355,4.2372,4.248,4.2381,4.2275,4.2189,4.1912,4.1567,4.1533,4.1188,4.0912,4.0894,4.0894,4.0894,4.0894,4.0894,4.0894,4.0912,4.0935,4.0959,4.0982,4.1006,4.1018,4.1105,4.1129,4.1157,4.1272,4.138,4.1426,4.152,4.1835,4.2071,4.2462,4.3141,4.366,4.7309,4.7309,4.7309,4.7025,4.6563,4.6591,4.6217,4.5618,4.5725,4.5661,4.5522,4.566,4.5228,4.4452,4.4479,4.4443,4.4261,4.4339,4.431,4.4335,4.4358,4.4435,4.4496,4.4587,4.4572,4.4534,4.4587,4.461,4.461,4.461,4.461,4.461,4.461,4.461,4.461,4.461,4.461,4.461,4.461,4.461,4.4594,4.461,4.461,4.461,4.461,4.4379,4.3901,4.3886,4.367,4.3171,4.2987,4.2863,4.2879,4.2709,4.2602,4.2571,4.2155,4.1648,4.1089,4.1074,4.1163,4.1357,4.1513,4.1551,4.1513,4.1976,4.226,4.1998,4.0781,4.0202,4.0229,4.0323,4.0739,4.1563,4.1725,4.1939,4.2401,4.2633,4.2848,4.2986,4.2974,4.2911,4.292,4.2961,4.3019,4.3017,4.2654,4.2327,4.2292,4.1912,4.1533,4.1257,4.1222,4.1119,4.0963,4.0894,4.0894,4.0894,4.0912,4.0912,4.0894,4.0894,4.0912,4.1029,4.1029,4.1099,4.1203,4.1295,4.1403,4.152,4.1856,4.2259,4.248,4.3032,4.3457,4.7309,4.7309,4.7309,4.7279,4.7249,4.7234,4.689,4.6277,4.6262,4.5933,4.548,4.5421,4.5331,4.5297,4.5641,4.5496,4.5029,4.5102,4.4876,4.445,4.4565,4.4504,4.432,4.4496,4.4542,4.4565,4.4734,4.4748,4.4702,4.4671,4.461,4.4618,4.4733,4.4671,4.4695,4.4748,4.4618,4.4764,4.4764,4.4671,4.4671,4.4671,4.4702,4.4671,4.461,4.4579,4.4533,4.4526,4.4479,4.4502,4.3886,4.3562,4.3516,4.2987,4.2694,4.2648,4.2602,4.2576,4.2484,4.2479,4.2765,4.3346,4.3834,4.4131,4.3377,4.392,4.412,4.3625,4.3439,4.3115,4.2556,4.2342,4.2341,4.2463,4.2497,4.2557,4.2559,4.3181,4.3514,4.3671,4.3635,4.3479,4.3066,4.2911,4.3159,4.3294,4.3207,4.3138,4.3103,4.3069,4.2654,4.2171,4.1912,4.1698,4.1119,4.0912,4.0912,4.0894,4.0894,4.0894,4.0894,4.0894,4.0912,4.0912,4.0935,4.1012,4.114,4.1255,4.1363,4.1569,4.1966,4.232,4.2519,4.2996,4.344,4.7309,4.7309,4.7309,4.7309,4.7309,4.7309,4.7174,4.695,4.6965,4.6815,4.6621,4.6576,4.6576,4.6576,4.6704,4.6187,4.5266,4.5288,4.5218,4.5152,4.5392,4.5526,4.559,4.5802,4.5865,4.5802,4.5825,4.5865,4.5865,4.5865,4.5865,4.5865,4.5865,4.588,4.5865,4.5865,4.5865,4.5865,4.5865,4.5865,4.5834,4.5865,4.568,4.5234,4.4841,4.461,4.461,4.461,4.461,4.461,4.4379,4.424,4.424,4.4002,4.3664,4.3353,4.3661,4.3744,4.3423,4.3746,4.4088,4.4341,4.4607,4.4739,4.4541,4.4984,4.5273,4.5162,4.5497,4.5462,4.5175,4.4478,4.3894,4.3839,4.3844,4.3835,4.3873,4.4047,4.4236,4.4305,4.4321,4.4286,4.4165,4.4264,4.4396,4.4397,4.4173,4.3949,4.3828,4.3534,4.3138,4.2879,4.2758,4.2689,4.2482,4.1429,4.0912,4.0912,4.0894,4.0894,4.0894,4.0894,4.0912,4.0912,4.0894,4.0918,4.1065,4.1186,4.1295,4.148,4.1903,4.2259,4.258,4.3069,4.3491,4.7309,4.7309,4.7309,4.7309,4.7309,4.7309,4.7309,4.7309,4.7309,4.7309,4.7309,4.7309,4.7309,4.7309,4.7309,4.6845,4.5963,4.5807,4.5665,4.5619,4.5839,4.6001,4.6123,4.6364,4.6484,4.6429,4.6548,4.6603,4.6603,4.6603,4.6603,4.6588,4.6603,4.6603,4.6603,4.6603,4.6603,4.6603,4.6603,4.6588,4.6603,4.6603,4.6403,4.5926,4.5503,4.5003,4.4656,4.461,4.461,4.461,4.461,4.461,4.461,4.461,4.4409,4.4068,4.4622,4.4847,4.4526,4.5034,4.542,4.5486,4.5685,4.5734,4.5537,4.6076,4.6427,4.6585,4.682,4.714,4.6988,4.628,4.5617,4.5392,4.5309,4.5326,4.5309,4.5297,4.5213,4.4993,4.4772,4.4748,4.4858,4.5015,4.5115,4.5247,4.4871,4.4665,4.4561,4.4268,4.3776,4.3621,4.3569,4.3396,4.3103,4.2309,4.1636,4.1533,4.1136,4.105,4.105,4.1015,4.0963,4.0929,4.0894,4.0918,4.0989,4.1111,4.1249,4.1408,4.1661,4.2029,4.2541,4.3141,4.3491,4.7309,4.7309,4.7309,4.7309,4.7309,4.7309,4.7309,4.7309,4.7309,4.7309,4.7309,4.7309,4.7309,4.7309,4.7309,4.7249,4.7083,4.6716,4.6274,4.5804,4.5964,4.5964,4.5882,4.6336,4.6448,4.6295,4.6496,4.6696,4.6748,4.6819,4.6803,4.6711,4.6788,4.6865,4.668,4.6803,4.6726,4.6788,4.6819,4.6757,4.6634,4.6773,4.6742,4.6619,4.6542,4.5972,4.4779,4.4687,4.4702,4.4671,4.4625,4.461,4.461,4.461,4.4594,4.4646,4.5279,4.5665,4.5746,4.6373,4.6857,4.6891,4.7457,4.7457,4.7027,4.7424,4.7799,4.7798,4.7847,4.7907,4.7899,4.7744,4.7372,4.6904,4.6532,4.6515,4.6616,4.6718,4.6498,4.5805,4.5241,4.4794,4.4947,4.5142,4.524,4.5264,4.5267,4.5242,4.5207,4.5104,4.4975,4.4509,4.4311,4.4173,4.369,4.3155,4.2689,4.224,4.1688,4.136,4.1429,4.1429,4.1291,4.1222,4.0946,4.0953,4.0982,4.1082,4.1203,4.1363,4.1613,4.1924,4.2442,4.2996,4.3406,4.7309,4.7309,4.7309,4.7309,4.7309,4.7309,4.7309,4.7309,4.7309,4.7309,4.7309,4.7309,4.7309,4.7309,4.7309,4.7309,4.7279,4.7156,4.6961,4.6794,4.6933,4.7003,4.7003,4.727,4.7441,4.7426,4.7618,4.7768,4.7753,4.7861,4.7973,4.7989,4.7958,4.7989,4.7927,4.7989,4.7989,4.7989,4.7989,4.7989,4.7989,4.7973,4.7773,4.7342,4.7281,4.685,4.6018,4.5526,4.5295,4.5264,4.4856,4.461,4.461,4.461,4.461,4.4723,4.5805,4.6464,4.6604,4.7572,4.8242,4.8322,4.853,4.8562,4.8354,4.8482,4.8625,4.8656,4.8639,4.8647,4.8652,4.8663,4.8122,4.6938,4.6786,4.687,4.6921,4.6836,4.6701,4.6515,4.6244,4.5981,4.5654,4.5614,4.5603,4.5277,4.5325,4.5449,4.5414,4.5414,4.538,4.507,4.5027,4.4906,4.4509,4.4113,4.3741,4.3224,4.2603,4.2033,4.1999,4.1912,4.1757,4.1602,4.1291,4.1108,4.1103,4.1139,4.1308,4.1475,4.1778,4.2095,4.24,4.2847,4.3371,4.7309,4.7309,4.7309,4.7309,4.7309,4.7309,4.7309,4.7309,4.7309,4.7309,4.7309,4.7309,4.7309,4.7309,4.7309,4.7309,4.7309,4.7309,4.7309,4.7309,4.7424,4.751,4.751,4.7709,4.7922,4.8007,4.8133,4.826,4.8328,4.8412,4.8537,4.8563,4.8604,4.8573,4.8604,4.8604,4.8604,4.8604,4.8589,4.8604,4.8604,4.8604,4.8419,4.8035,4.7989,4.7758,4.7327,4.6957,4.654,4.6051,4.5564,4.5397,4.5403,4.5446,4.5421,4.566,4.6448,4.7221,4.7322,4.8274,4.9018,4.9018,4.9018,4.9001,4.9018,4.9001,4.9018,4.9018,4.9001,4.9018,4.9001,4.9001,4.8528,4.775,4.7665,4.7614,4.7597,4.7378,4.7242,4.7158,4.6938,4.6612,4.636,4.6277,4.6197,4.5675,4.5623,4.5568,4.5508,4.5414,4.5414,4.5414,4.5311,4.5259,4.5294,4.5061,4.4751,4.4216,4.3655,4.3103,4.2792,4.2637,4.2465,4.2447,4.2223,4.1843,4.1781,4.1564,4.1613,4.1801,4.1945,4.216,4.2442,4.3069,4.356,4.7309,4.7309,4.7309,4.7309,4.7309,4.7309,4.7309,4.7309,4.7309,4.7309,4.7309,4.7309,4.7309,4.7309,4.7309,4.7309,4.7309,4.7309,4.7309,4.7309,4.7309,4.7352,4.7352,4.7495,4.7709,4.7922,4.7964,4.8091,4.826,4.8286,4.837,4.8521,4.8563,4.8604,4.8604,4.8604,4.8604,4.8604,4.8604,4.8604,4.8604,4.8728,4.8713,4.8723,4.8692,4.8661,4.8614,4.8592,4.8098,4.6982,4.6825,4.6861,4.6845,4.6895,4.6897,4.6832,4.7538,4.782,4.8032,4.8513,4.9001,4.9018,4.9018,4.9018,4.9018,4.9018,4.9018,4.9018,4.9018,4.9018,4.9018,4.9018,4.8934,4.8984,4.8748,4.8765,4.8883,4.8342,4.802,4.7868,4.7378,4.6946,4.7063,4.7041,4.6794,4.6435,4.6306,4.6158,4.5757,4.5629,4.55,4.5449,4.5414,4.5397,4.538,4.5328,4.5061,4.4872,4.4423,4.4096,4.3655,4.3448,4.3051,4.3034,4.3051,4.2689,4.2413,4.2213,4.202,4.2056,4.2158,4.221,4.2667,4.3324,4.3693,4.7309,4.7309,4.7309,4.7309,4.7309,4.7309,4.7309,4.7309,4.7309,4.7309,4.7309,4.7309,4.7309,4.7309,4.7309,4.7309,4.7309,4.7309,4.7309,4.7309,4.7309,4.7309,4.7309,4.7337,4.7495,4.7666,4.7709,4.7852,4.8091,4.8202,4.8301,4.837,4.8537,4.8563,4.8604,4.8604,4.8604,4.8604,4.8604,4.8604,4.8728,4.9244,4.9566,4.9566,4.9566,4.955,4.9566,4.9576,4.9238,4.8498,4.8388,4.8389,4.8389,4.8414,4.8234,4.7932,4.8295,4.8481,4.823,4.866,4.9021,4.9018,4.9086,4.9018,4.9018,4.9018,4.9018,4.9018,4.9018,4.9018,4.9018,4.9018,4.9018,4.9018,4.9018,4.9018,4.8968,4.8866,4.8714,4.8697,4.8477,4.8152,4.781,4.7713,4.7529,4.7062,4.6948,4.6927,4.6364,4.617,4.618,4.5604,4.5432,4.5414,4.5397,4.5397,4.5345,4.5311,4.5121,4.5035,4.4647,4.4337,4.3793,4.3345,4.3534,4.3302,4.312,4.2913,4.2711,4.2556,4.2922,4.3251,4.3307,4.3731,4.3906,4.7309,4.7309,4.7309,4.7309,4.7309,4.7309,4.7309,4.7309,4.7309,4.7309,4.7309,4.7309,4.7309,4.7309,4.7309,4.7309,4.7309,4.7309,4.7309,4.7309,4.7309,4.7309,4.7309,4.7309,4.7381,4.7538,4.751,4.7681,4.7937,4.8007,4.8076,4.8286,4.8412,4.8521,4.8604,4.9,4.8934,4.8769,4.8918,4.9163,4.9203,4.959,5.0104,5.0283,5.04,5.0515,5.0838,5.0881,5.0446,4.9715,4.9673,4.9908,4.9859,4.9928,4.9752,4.934,4.9693,4.9724,4.9455,4.9708,4.9731,4.9543,4.9475,4.9289,4.9103,4.9018,4.9018,4.9018,4.9018,4.9018,4.9018,4.9018,4.9018,4.9018,4.9018,4.9018,4.9018,4.9001,4.9001,4.9018,4.8984,4.89,4.8379,4.8419,4.812,4.7733,4.7612,4.7358,4.6985,4.6966,4.6783,4.6207,4.5811,4.5828,4.5621,4.5518,4.5449,4.5414,4.538,4.5414,4.5242,4.4975,4.4665,4.4182,4.413,4.4009,4.381,4.3637,4.3526,4.3554,4.3991,4.4165,4.4202,4.4431,4.4528,4.7309,4.7309,4.7309,4.7309,4.7309,4.7309,4.7309,4.7309,4.7309,4.7309,4.7309,4.7309,4.7309,4.7309,4.7309,4.7309,4.7309,4.7309,4.7309,4.7309,4.7309,4.7309,4.7309,4.7309,4.7424,4.7553,4.7381,4.7553,4.781,4.7724,4.788,4.816,4.8286,4.8521,4.8877,4.9486,4.9486,4.9269,4.9694,5.001,5.0049,5.0283,5.0707,5.1107,5.122,5.1385,5.1806,5.2004,5.1578,5.0229,5.0899,5.1313,5.1355,5.1429,5.1307,5.119,5.1139,5.1171,5.1102,5.0916,5.0879,5.0338,5.0202,4.9965,4.9576,4.9492,4.9424,4.9272,4.912,4.9154,4.9018,4.9018,4.9018,4.9018,4.9018,4.9018,4.9018,4.9018,4.9018,4.9018,4.9018,4.9018,4.9018,4.8951,4.8761,4.8293,4.8192,4.8029,4.7746,4.7648,4.7348,4.6828,4.6535,4.6362,4.6017,4.5638,4.5535,4.5449,4.5414,4.5414,4.5414,4.5259,4.5328,4.5173,4.4837,4.4613,4.4475,4.4361,4.427,4.4519,4.4865,4.4934,4.5015,4.5424,4.5663,4.7309,4.7309,4.7309,4.7309,4.7309,4.7309,4.7309,4.7309,4.7309,4.7309,4.7309,4.7309,4.7309,4.7309,4.7309,4.7309,4.7309,4.7309,4.7309,4.7309,4.7309,4.7309,4.7309,4.7309,4.7439,4.7525,4.7381,4.7467,4.7639,4.7681,4.7737,4.8076,4.8412,4.8769,4.959,4.9892,5.0206,5.0461,5.0767,5.0805,5.0957,5.1385,5.1733,5.2023,5.2023,5.1753,5.157,5.1967,5.2112,5.2062,5.2441,5.2774,5.2808,5.2859,5.2605,5.2198,5.2063,5.1843,5.1403,5.1336,5.1151,5.1031,5.0963,5.0913,5.0811,5.0659,5.0388,5.005,4.9847,4.9644,4.9187,4.9035,4.9035,4.9052,4.9018,4.9018,4.9018,4.9018,4.9018,4.9018,4.9018,4.9018,4.9018,4.9018,4.8914,4.8809,4.8731,4.866,4.8531,4.8334,4.798,4.7551,4.7379,4.7172,4.6586,4.6155,4.588,4.5656,4.5518,4.5414,4.5414,4.5414,4.5414,4.5414,4.5345,4.5182,4.4941,4.5053,4.4958,4.5344,4.5699,4.5869,4.6059,4.6491,4.669,4.7309,4.7309,4.7309,4.7309,4.7309,4.7309,4.7309,4.7309,4.7309,4.7309,4.7309,4.7309,4.7309,4.7309,4.7309,4.7309,4.7309,4.7309,4.7309,4.7309,4.7309,4.7309,4.7309,4.7309,4.7396,4.7553,4.7396,4.7424,4.7553,4.7709,4.7949,4.8547,4.878,4.9479,5.0438,5.0783,5.0995,5.1107,5.1496,5.1643,5.1753,5.204,5.2572,5.2782,5.2852,5.259,5.2397,5.2626,5.2834,5.2989,5.3246,5.3518,5.3518,5.3518,5.3264,5.2993,5.2858,5.2723,5.2367,5.2266,5.2164,5.1725,5.1725,5.1505,5.1336,5.1234,5.1033,5.0744,5.0557,5.0321,4.9627,4.9526,4.9424,4.9069,4.9018,4.9018,4.9018,4.9018,4.9018,4.9018,4.9018,4.9018,4.9018,4.9018,4.8984,4.8897,4.9002,4.8937,4.915,4.8985,4.8736,4.8437,4.8275,4.7931,4.7276,4.6786,4.6372,4.6017,4.569,4.5518,4.5414,4.5414,4.5414,4.5414,4.5414,4.5414,4.5285,4.545,4.5649,4.609,4.641,4.6753,4.7069,4.7319,4.7478,4.7309,4.7309,4.7309,4.7309,4.7309,4.7309,4.7309,4.7309,4.7309,4.7309,4.7309,4.7309,4.7309,4.7309,4.7309,4.7309,4.7352,4.7538,4.7624,4.7294,4.7822,4.7779,4.7737,4.7822,4.7976,4.7907,4.7752,4.7752,4.8019,4.8019,4.8682,4.9318,4.9583,5.0252,5.122,5.1842,5.2023,5.1826,5.2219,5.2485,5.2485,5.2572,5.292,5.3246,5.3382,5.3348,5.3246,5.3365,5.3433,5.3518,5.3518,5.3518,5.3518,5.3518,5.3518,5.3484,5.3416,5.3331,5.3247,5.3281,5.3061,5.2503,5.2486,5.2249,5.1826,5.1742,5.164,5.1371,5.1168,5.0879,5.0338,5.027,4.9898,4.9424,4.9187,4.912,4.9018,4.9018,4.9018,4.9018,4.9018,4.9018,4.9018,4.9018,4.9018,4.9032,4.9138,4.926,4.9441,4.9551,4.9268,4.92,4.9068,4.8654,4.8,4.731,4.6924,4.6493,4.6035,4.5759,4.5535,4.5414,4.5414,4.5414,4.5414,4.5414,4.5414,4.5423,4.5829,4.6537,4.69,4.7016,4.7461,4.8037,4.8141,4.7309,4.7309,4.7309,4.7309,4.7309,4.7309,4.7352,4.7309,4.7352,4.7309,4.7309,4.7309,4.7309,4.7309,4.7309,4.7309,4.7624,4.8061,4.8046,4.7849,4.8517,4.8938,4.8517,4.8831,4.9222,4.9237,4.8846,4.8805,4.9222,4.9647,4.9686,5.0158,5.0429,5.1054,5.1842,5.2307,5.2642,5.2747,5.3041,5.3161,5.3161,5.3212,5.3246,5.3518,5.3518,5.3518,5.3518,5.3518,5.3518,5.3518,5.3518,5.3518,5.3518,5.3518,5.3518,5.3518,5.3518,5.3518,5.3518,5.3501,5.345,5.3315,5.323,5.3247,5.3061,5.2993,5.2604,5.2147,5.1657,5.1217,5.1082,5.1031,5.0659,5.0168,4.9881,4.9695,4.9255,4.9103,4.9069,4.9018,4.9018,4.9018,4.9018,4.9018,4.9018,4.9063,4.9185,4.929,4.9458,4.9637,4.9664,4.9717,4.9838,4.9338,4.8769,4.8,4.7414,4.7027,4.6596,4.6121,4.5862,4.5518,4.5414,4.5414,4.5414,4.5414,4.5414,4.5414,4.5912,4.6631,4.6913,4.716,4.7797,4.8364,4.8514,4.7309,4.7309,4.7309,4.7309,4.7381,4.7779,4.7694,4.7396,4.7737,4.7694,4.7381,4.7309,4.7309,4.7424,4.7807,4.8157,4.8641,4.8953,4.8953,4.8872,4.9367,4.9647,4.9262,4.9702,5.0057,5.0229,5.0073,4.9781,4.9805,4.9978,5.0467,5.0903,5.1203,5.1862,5.259,5.2886,5.3093,5.3467,5.3518,5.3518,5.3518,5.3518,5.3518,5.3518,5.3518,5.3518,5.3518,5.3518,5.3518,5.3518,5.3518,5.3518,5.3518,5.3518,5.3518,5.3518,5.3518,5.3518,5.3518,5.3518,5.3501,5.3501,5.3518,5.3518,5.3518,5.3416,5.3298,5.2976,5.2723,5.2215,5.186,5.1792,5.142,5.0879,5.0676,5.0321,4.9813,4.9627,4.9407,4.9171,4.9069,4.9069,4.9018,4.9018,4.9018,4.9094,4.9246,4.9367,4.9488,4.9683,4.986,4.9935,4.9993,4.9786,4.9286,4.8752,4.8068,4.7648,4.7234,4.6803,4.6337,4.6035,4.5673,4.5449,4.5449,4.5414,4.5397,4.5423,4.607,4.6631,4.689,4.7291,4.8078,4.8605,4.8713,4.7424,4.7581,4.7581,4.7666,4.7892,4.8517,4.849,4.8061,4.8558,4.8475,4.7849,4.7849,4.7892,4.8019,4.8517,4.9181,4.9805,4.99,4.99,4.9821,5.0252,5.0329,5.0096,5.0329,5.0767,5.1364,5.1364,5.1011,5.0691,5.0805,5.1161,5.1643,5.2095,5.259,5.3144,5.3314,5.3467,5.3518,5.3518,5.3518,5.3518,5.3518,5.3518,5.3518,5.3518,5.3518,5.3518,5.3518,5.3518,5.3518,5.3518,5.3518,5.3518,5.3518,5.3518,5.3518,5.3518,5.3518,5.3518,5.3518,5.3518,5.3518,5.3518,5.3518,5.3518,5.3518,5.3484,5.3518,5.3416,5.3179,5.2655,5.2553,5.2181,5.1657,5.1386,5.1183,5.0608,5.0236,4.9949,4.9661,4.9323,4.9137,4.912,4.9018,4.9018,4.9094,4.9229,4.9398,4.9547,4.9801,4.9964,4.9964,4.9993,4.9993,4.9735,4.9459,4.8872,4.8361,4.8027,4.7631,4.7131,4.6648,4.6224,4.5811,4.5432,4.5414,4.5397,4.5537,4.6045,4.6489,4.6863,4.7356,4.802,4.8514,4.875,4.7737,4.8449,4.8449,4.8846,4.9423,4.9583,4.9623,4.9463,4.9583,4.9607,4.9303,4.9423,4.9383,4.9503,4.9543,4.9726,5.008,5.0615,5.0653,5.0406,5.1273,5.1529,5.1194,5.1798,5.1911,5.2252,5.2324,5.234,5.1984,5.22,5.2466,5.2677,5.2903,5.3365,5.3348,5.3467,5.3518,5.3518,5.3518,5.3518,5.3518,5.3518,5.3518,5.3518,5.3518,5.3518,5.3518,5.3518,5.3518,5.3518,5.3518,5.3518,5.3518,5.3518,5.3518,5.3518,5.3518,5.3518,5.3518,5.3518,5.3518,5.3518,5.3518,5.3518,5.3518,5.3518,5.3518,5.3518,5.3518,5.3467,5.3281,5.3315,5.2926,5.252,5.2164,5.1792,5.1285,5.1048,5.0744,5.0287,4.9999,4.9526,4.9255,4.912,4.9001,4.9124,4.9229,4.9398,4.9577,4.9848,4.9982,5.0011,5.0011,5.0011,4.9993,4.9735,4.9493,4.9016,4.8803,4.8441,4.7889,4.7338,4.6786,4.6345,4.5897,4.5554,4.5589,4.5803,4.6087,4.6513,4.7022,4.7424,4.7842,4.8289,4.8768,4.879,4.8656,4.906,4.9463,4.986,5.0306,5.0252,4.9978,5.0345,5.0252,4.9844,4.9805,5.0041,5.0461,5.0554,5.0821,5.1236,5.1676,5.1786,5.1422,5.2164,5.2447,5.2288,5.2483,5.2711,5.2729,5.2781,5.2694,5.2781,5.2816,5.2903,5.2938,5.3195,5.3264,5.3399,5.3467,5.3467,5.3518,5.3518,5.3518,5.3518,5.3518,5.3518,5.3518,5.3518,5.3518,5.3518,5.3518,5.3518,5.3518,5.3518,5.3518,5.3518,5.3518,5.3518,5.3518,5.3518,5.3518,5.3518,5.3518,5.3518,5.3518,5.3518,5.3518,5.3518,5.3518,5.3518,5.3518,5.3518,5.3518,5.3518,5.3518,5.3331,5.3061,5.2858,5.2469,5.2063,5.1911,5.1606,5.1133,5.0659,5.0219,4.9712,4.9306,4.9154,4.9063,4.9246,4.9458,4.9607,4.9801,4.9935,5.0011,5.0011,5.0011,5.0011,4.9907,4.9873,4.9579,4.9579,4.9166,4.8596,4.8045,4.751,4.6924,4.6379,4.6125,4.5961,4.6013,4.6266,4.6747,4.7266,4.7674,4.8058,4.8402,4.8786,5.0002,4.9278,4.9876,5.0252,5.0499,5.1156,5.1102,5.0615,5.114,5.1065,5.0615,5.056,5.0957,5.1343,5.1529,5.1802,5.2357,5.2535,5.2535,5.2605,5.2694,5.2746,5.2659,5.2764,5.285,5.2972,5.2972,5.3007,5.3058,5.3058,5.3041,5.2972,5.3246,5.3298,5.3332,5.3433,5.3518,5.3518,5.3518,5.3518,5.3518,5.3518,5.3518,5.3518,5.3518,5.3518,5.3518,5.3518,5.3518,5.3518,5.3518,5.3518,5.3518,5.3518,5.3518,5.3518,5.3518,5.3518,5.3518,5.3518,5.3518,5.3518,5.3518,5.3518,5.3518,5.3518,5.3518,5.3518,5.3518,5.3518,5.3518,5.3518,5.345,5.3433,5.3399,5.3061,5.2756,5.2587,5.2283,5.1775,5.1352,5.1048,5.0473,4.9729,4.9371,4.9148,4.9246,4.9488,4.9683,4.9848,4.9906,5.0011,5.0011,5.0011,5.0011,5.0011,5.0011,5.0011,5.0011,4.9838,4.9235,4.8734,4.8252,4.7631,4.7027,4.6759,4.662,4.6537,4.6483,4.6931,4.7378,4.7917,4.8307,4.8642,4.8822,5.1327,5.093,5.1005,5.1434,5.2125,5.225,5.225,5.1964,5.2161,5.2178,5.2,5.2252,5.22,5.2412,5.2324,5.2412,5.2605,5.248,5.248,5.248,5.2445,5.2605,5.2711,5.2799,5.2885,5.311,5.3179,5.3264,5.3382,5.3365,5.3314,5.323,5.3348,5.3416,5.345,5.3467,5.3518,5.3518,5.3518,5.3518,5.3518,5.3518,5.3518,5.3518,5.3518,5.3518,5.3518,5.3518,5.3518,5.3518,5.3518,5.3518,5.3518,5.3518,5.3518,5.3518,5.3518,5.3518,5.3518,5.3518,5.3518,5.3518,5.3518,5.3518,5.3518,5.3518,5.3518,5.3518,5.3518,5.3518,5.3518,5.3518,5.3518,5.3518,5.3518,5.3399,5.3213,5.3247,5.2926,5.2418,5.2063,5.1809,5.1386,5.0676,4.9813,4.9557,4.9341,4.9547,4.9772,4.9935,4.9935,5.0011,5.0011,5.0011,5.0011,5.0011,5.0011,5.0011,5.0011,5.0011,4.9821,4.9355,4.8907,4.8396,4.7848,4.7551,4.727,4.717,4.7121,4.7201,4.7509,4.8096,4.8421,4.8623,4.8785,5.2272,5.202,5.202,5.2161,5.2409,5.2516,5.248,5.2409,5.248,5.2464,5.2409,5.2535,5.2605,5.264,5.2624,5.2659,5.2746,5.2605,5.2605,5.2746,5.285,5.292,5.2972,5.3058,5.3246,5.3348,5.3382,5.3382,5.3467,5.3518,5.3467,5.3467,5.3467,5.3467,5.3501,5.3518,5.3518,5.3518,5.3518,5.3518,5.3518,5.3518,5.3518,5.3518,5.3518,5.3518,5.3518,5.3518,5.3518,5.3518,5.3518,5.3518,5.3518,5.3518,5.3518,5.3518,5.3518,5.3518,5.3518,5.3518,5.3518,5.3518,5.3518,5.3518,5.3518,5.3518,5.3518,5.3518,5.3518,5.3518,5.3518,5.3518,5.3518,5.3518,5.3518,5.3518,5.3518,5.3518,5.3433,5.2875,5.279,5.2689,5.2198,5.1674,5.076,4.998,4.9733,4.9624,4.9848,5.0011,5.0011,5.0011,5.0011,5.0011,5.0011,5.0011,5.0011,5.0011,5.0011,5.0011,5.0011,4.9959,4.951,4.9034,4.8754,4.8485,4.8203,4.7855,4.776,4.7778,4.8002,4.8382,4.8587,4.8678,4.8767,5.2799,5.2694,5.2694,5.2605,5.2464,5.2499,5.2516,5.248,5.2516,5.2535,5.248,5.264,5.2729,5.2781,5.2816,5.2799,5.2834,5.2764,5.2746,5.2799,5.2868,5.3076,5.3195,5.3246,5.328,5.3433,5.3518,5.3518,5.3518,5.3518,5.3467,5.3467,5.3518,5.3518,5.3518,5.3518,5.3518,5.3518,5.3518,5.3518,5.3518,5.3518,5.3518,5.3518,5.3518,5.3518,5.3518,5.3518,5.3518,5.3518,5.3518,5.3518,5.3518,5.3518,5.3518,5.3518,5.3518,5.3518,5.3518,5.3518,5.3518,5.3518,5.3518,5.3518,5.3518,5.3518,5.3518,5.3518,5.3518,5.3518,5.3518,5.3518,5.3518,5.3518,5.3518,5.3518,5.3518,5.3518,5.3518,5.3348,5.3298,5.3179,5.2874,5.2315,5.1395,5.0563,5.0206,4.9984,4.9877,5.0011,5.0011,5.0011,5.0011,5.0011,5.0011,5.0011,5.0011,5.0011,5.0011,5.0011,5.0011,4.9993,5.0114,4.9879,4.961,4.9415,4.9254,4.9072,4.8686,4.8314,4.8483,4.8569,4.8678,4.8767,4.882,5.2903,5.2903,5.292,5.2781,5.2624,5.248,5.2516,5.257,5.248,5.2464,5.2589,5.2799,5.2972,5.3076,5.3093,5.3058,5.2938,5.2868,5.2799,5.2729,5.2799,5.2938,5.3041,5.3161,5.328,5.3433,5.3518,5.3518,5.3518,5.3518,5.3518,5.3518,5.3518,5.3518,5.3518,5.3518,5.3518,5.3518,5.3518,5.3518,5.3518,5.3518,5.3518,5.3518,5.3518,5.3518,5.3518,5.3518,5.3518,5.3518,5.3518,5.3518,5.3518,5.3518,5.3518,5.3518,5.3518,5.3518,5.3518,5.3518,5.3518,5.3518,5.3518,5.3518,5.3518,5.3518,5.3518,5.3518,5.3518,5.3518,5.3518,5.3518,5.3518,5.3518,5.3518,5.3518,5.3518,5.3518,5.3518,5.3518,5.3518,5.345,5.328,5.2872,5.1949,5.1245,5.0758,5.0429,5.0216,5.0011,5.0011,5.0011,5.0011,5.0011,5.0011,5.0011,5.0011,5.0011,5.0011,5.0011,5.0051,5.012,5.0278,5.0462,5.0487,5.0277,5.033,5.0359,4.9902,4.9403,4.8712,4.8642,4.875,4.8839,4.8874,5.3007,5.2903,5.3041,5.3041,5.3007,5.2955,5.2816,5.264,5.257,5.257,5.2659,5.2938,5.311,5.3179,5.3179,5.3161,5.3093,5.2903,5.2834,5.2834,5.2903,5.3041,5.3179,5.328,5.3348,5.3467,5.3518,5.3518,5.3518,5.3518,5.3518,5.3518,5.3518,5.3518,5.3518,5.3518,5.3518,5.3518,5.3518,5.3518,5.3518,5.3518,5.3518,5.3518,5.3518,5.3518,5.3518,5.3518,5.3518,5.3518,5.3518,5.3518,5.3518,5.3518,5.3518,5.3518,5.3518,5.3518,5.3518,5.3518,5.3518,5.3518,5.3518,5.3518,5.3518,5.3518,5.3518,5.3518,5.3518,5.3518,5.3518,5.3518,5.3518,5.3518,5.3518,5.3518,5.3518,5.3518,5.3518,5.3518,5.3518,5.3518,5.3399,5.3397,5.2694,5.2053,5.1583,5.1051,5.0728,5.0252,5.0028,5.0011,5.0011,5.0011,5.0011,5.0011,5.0011,5.0011,5.0011,5.0011,5.008,5.0178,5.0519,5.0733,5.0973,5.1155,5.1211,5.1195,5.0962,5.0468,4.9654,4.8938,4.8845,4.8897,4.8873,5.3161,5.3127,5.3195,5.323,5.3264,5.3161,5.2955,5.2729,5.2694,5.2729,5.2868,5.3076,5.3264,5.3264,5.3298,5.3213,5.3195,5.3161,5.3024,5.3058,5.311,5.3213,5.3348,5.3382,5.3399,5.3467,5.3518,5.3518,5.3518,5.3518,5.3518,5.3518,5.3518,5.3518,5.3518,5.3518,5.3518,5.3518,5.3518,5.3518,5.3518,5.3518,5.3518,5.3518,5.3518,5.3518,5.3518,5.3518,5.3518,5.3518,5.3518,5.3518,5.3518,5.3518,5.3518,5.3518,5.3518,5.3518,5.3518,5.3518,5.3518,5.3518,5.3518,5.3518,5.3518,5.3518,5.3518,5.3518,5.3518,5.3518,5.3518,5.3518,5.3518,5.3518,5.3518,5.3518,5.3518,5.3518,5.3518,5.3518,5.3518,5.3518,5.3501,5.3617,5.3442,5.2936,5.2409,5.1859,5.1274,5.0688,5.0149,5.0011,5.0011,5.0011,5.0011,5.0011,5.0011,5.0011,5.0011,5.0011,5.0022,5.0138,5.0564,5.0964,5.1061,5.132,5.1892,5.1958,5.1499,5.1014,5.0388,4.9712,4.9141,4.8992,4.9004,5.3314,5.3433,5.3298,5.3298,5.3433,5.3127,5.2938,5.2903,5.2903,5.3024,5.3179,5.3179,5.3314,5.3467,5.3501,5.3382,5.3247,5.3348,5.3314,5.323,5.3213,5.3348,5.3382,5.3348,5.3382,5.3467,5.3518,5.3518,5.3518,5.3518,5.3518,5.3518,5.3518,5.3518,5.3518,5.3518,5.3518,5.3518,5.3518,5.3518,5.3518,5.3518,5.3518,5.3518,5.3518,5.3518,5.3518,5.3518,5.3518,5.3518,5.3518,5.3518,5.3518,5.3518,5.3518,5.3518,5.3518,5.3518,5.3518,5.3518,5.3518,5.3518,5.3518,5.3518,5.3518,5.3518,5.3518,5.3518,5.3518,5.3518,5.3518,5.3518,5.3518,5.3518,5.3518,5.3518,5.3518,5.3518,5.3518,5.3518,5.3518,5.3518,5.3534,5.3617,5.3732,5.3622,5.3098,5.2602,5.1985,5.1154,5.0614,5.0011,5.0011,5.0011,5.0011,5.0011,5.0011,5.0011,5.0011,5.0011,5.0022,5.0178,5.0712,5.1044,5.1096,5.1465,5.2281,5.2302,5.1832,5.137,5.1158,5.0319,4.9676,4.9288,4.919,5.3348,5.3298,5.3382,5.3416,5.3467,5.3348,5.328,5.311,5.311,5.3144,5.3213,5.3348,5.3433,5.3518,5.3518,5.3399,5.3348,5.3348,5.3314,5.3314,5.3348,5.3433,5.3467,5.3433,5.3467,5.3467,5.3518,5.3518,5.3518,5.3518,5.3518,5.3518,5.3518,5.3518,5.3518,5.3518,5.3518,5.3518,5.3518,5.3518,5.3518,5.3518,5.3518,5.3518,5.3518,5.3518,5.3518,5.3518,5.3518,5.3518,5.3518,5.3518,5.3518,5.3518,5.3518,5.3518,5.3518,5.3518,5.3518,5.3518,5.3518,5.3518,5.3518,5.3518,5.3518,5.3518,5.3518,5.3518,5.3518,5.3518,5.3518,5.3518,5.3518,5.3518,5.3518,5.3518,5.3518,5.3518,5.3518,5.3501,5.3501,5.3517,5.3551,5.3618,5.3733,5.3864,5.3751,5.3258,5.2643,5.1808,5.0998,5.0378,5.0011,5.0011,5.0011,5.0011,5.0011,5.0011,5.0011,4.9993,5.008,5.0331,5.0857,5.1339,5.1719,5.2221,5.285,5.2688,5.2331,5.2383,5.2151,5.1128,5.0248,4.9843,4.9432,5.3416,5.3348,5.3416,5.3518,5.3518,5.3518,5.3416,5.3348,5.3298,5.3298,5.3348,5.3467,5.3518,5.3518,5.3518,5.3433,5.3348,5.3433,5.3433,5.3433,5.3433,5.3467,5.3518,5.3518,5.3467,5.3518,5.3518,5.3518,5.3518,5.3518,5.3518,5.3518,5.3518,5.3518,5.3518,5.3518,5.3518,5.3518,5.3518,5.3518,5.3518,5.3518,5.3518,5.3518,5.3518,5.3518,5.3518,5.3518,5.3518,5.3518,5.3518,5.3518,5.3518,5.3518,5.3518,5.3518,5.3518,5.3518,5.3518,5.3518,5.3518,5.3518,5.3518,5.3518,5.3518,5.3518,5.3518,5.3518,5.3518,5.3518,5.3518,5.3518,5.3518,5.3518,5.3518,5.3518,5.3518,5.3518,5.3501,5.3484,5.3517,5.3568,5.3601,5.3634,5.3734,5.3963,5.4004,5.3688,5.3074,5.2291,5.1494,5.0757,5.0275,5.0011,5.0011,5.0011,5.0011,5.0011,5.0011,5.0022,5.0109,5.0481,5.1026,5.1793,5.2563,5.2912,5.3143,5.3164,5.2978,5.297,5.2826,5.2099,5.1112,5.0305,4.9898,5.3518,5.3518,5.3518,5.3518,5.3518,5.3518,5.3518,5.3518,5.3467,5.3518,5.3501,5.3501,5.3518,5.3518,5.3518,5.3518,5.3467,5.3467,5.3518,5.3518,5.3484,5.3518,5.3518,5.3518,5.3518,5.3518,5.3518,5.3518,5.3518,5.3518,5.3518,5.3518,5.3518,5.3518,5.3518,5.3518,5.3518,5.3518,5.3518,5.3518,5.3518,5.3518,5.3518,5.3518,5.3518,5.3518,5.3518,5.3518,5.3518,5.3518,5.3518,5.3518,5.3518,5.3518,5.3518,5.3518,5.3518,5.3518,5.3518,5.3518,5.3518,5.3518,5.3518,5.3518,5.3518,5.3518,5.3518,5.3518,5.3518,5.3518,5.3518,5.3518,5.3518,5.3518,5.3518,5.3518,5.3518,5.3518,5.3501,5.3517,5.3568,5.3617,5.3684,5.3717,5.3899,5.411,5.4104,5.3911,5.3573,5.2825,5.2011,5.1205,5.0735,5.0287,5.0011,5.0011,5.0011,5.0011,5.0022,5.0011,5.0051,5.0564,5.1236,5.1891,5.254,5.2955,5.3185,5.3185,5.3185,5.3151,5.3007,5.2847,5.2103,5.1116,5.0306,5.3518,5.3518,5.3518,5.3518,5.3518,5.3518,5.3518,5.3518,5.3518,5.3518,5.3518,5.3518,5.3518,5.3518,5.3518,5.3518,5.3518,5.3518,5.3518,5.3518,5.3518,5.3518,5.3518,5.3518,5.3518,5.3518,5.3518,5.3518,5.3518,5.3518,5.3518,5.3518,5.3518,5.3518,5.3518,5.3518,5.3518,5.3518,5.3518,5.3518,5.3518,5.3518,5.3518,5.3518,5.3518,5.3518,5.3518,5.3518,5.3518,5.3518,5.3518,5.3518,5.3518,5.3518,5.3518,5.3518,5.3518,5.3518,5.3518,5.3518,5.3518,5.3518,5.3518,5.3518,5.3518,5.3518,5.3518,5.3518,5.3518,5.3518,5.3518,5.3518,5.3518,5.3518,5.3518,5.3518,5.3518,5.3518,5.3518,5.3551,5.3634,5.3717,5.3733,5.3865,5.4045,5.4143,5.4175,5.4117,5.4055,5.3511,5.2563,5.1787,5.12,5.0735,5.0355,5.0022,5.0051,5.0109,5.0138,5.008,5.0051,5.083,5.1644,5.1915,5.2361,5.2868,5.3185,5.3185,5.3185,5.3185,5.317,5.2989,5.2909,5.2128,5.1155,5.3518,5.3518,5.3518,5.3518,5.3518,5.3518,5.3518,5.3518,5.3518,5.3518,5.3518,5.3518,5.3518,5.3518,5.3518,5.3518,5.3518,5.3518,5.3518,5.3518,5.3518,5.3518,5.3518,5.3518,5.3518,5.3518,5.3518,5.3518,5.3518,5.3518,5.3518,5.3518,5.3518,5.3518,5.3518,5.3518,5.3518,5.3518,5.3518,5.3518,5.3518,5.3518,5.3518,5.3518,5.3518,5.3518,5.3518,5.3518,5.3518,5.3518,5.3518,5.3518,5.3518,5.3518,5.3518,5.3518,5.3518,5.3518,5.3518,5.3518,5.3518,5.3518,5.3518,5.3518,5.3518,5.3518,5.3518,5.3518,5.3518,5.3518,5.3518,5.3518,5.3518,5.3518,5.3518,5.3518,5.3518,5.3518,5.3501,5.3534,5.3634,5.3849,5.3915,5.3996,5.4143,5.4289,5.4303,5.4303,5.421,5.4167,5.3218,5.2408,5.1856,5.1235,5.0769,5.0397,5.0138,5.0178,5.0291,5.0564,5.0776,5.1467,5.206,5.2221,5.2495,5.2955,5.3185,5.3185,5.3185,5.3185,5.3206,5.3151,5.3072,5.2952,5.2167,5.3518,5.3518,5.3518,5.3518,5.3518,5.3518,5.3518,5.3518,5.3518,5.3518,5.3518,5.3518,5.3518,5.3518,5.3518,5.3518,5.3518,5.3518,5.3518,5.3518,5.3518,5.3518,5.3518,5.3518,5.3518,5.3518,5.3518,5.3518,5.3518,5.3518,5.3518,5.3518,5.3518,5.3518,5.3518,5.3518,5.3518,5.3518,5.3518,5.3518,5.3518,5.3518,5.3518,5.3518,5.3518,5.3518,5.3518,5.3518,5.3518,5.3518,5.3518,5.3518,5.3518,5.3518,5.3518,5.3518,5.3518,5.3518,5.3518,5.3518,5.3518,5.3518,5.3518,5.3518,5.3518,5.3518,5.3518,5.3518,5.3518,5.3518,5.3518,5.3518,5.3518,5.3518,5.3518,5.3518,5.3518,5.3518,5.3501,5.3501,5.3718,5.3932,5.4045,5.411,5.4271,5.4416,5.4448,5.4431,5.4397,5.4325,5.3873,5.3184,5.2615,5.1994,5.1218,5.0794,5.0432,5.0471,5.0647,5.107,5.1475,5.1891,5.2203,5.2384,5.2717,5.3082,5.3185,5.3185,5.3185,5.3185,5.3185,5.3188,5.3193,5.3074,5.2974,5.3518,5.3518,5.3518,5.3518,5.3518,5.3518,5.3518,5.3518,5.3518,5.3518,5.3518,5.3518,5.3518,5.3518,5.3518,5.3518,5.3518,5.3518,5.3518,5.3518,5.3518,5.3518,5.3518,5.3518,5.3518,5.3518,5.3518,5.3518,5.3518,5.3518,5.3518,5.3518,5.3518,5.3518,5.3518,5.3518,5.3518,5.3518,5.3518,5.3518,5.3518,5.3518,5.3518,5.3518,5.3518,5.3518,5.3518,5.3518,5.3518,5.3518,5.3518,5.3518,5.3518,5.3518,5.3518,5.3518,5.3518,5.3518,5.3518,5.3518,5.3518,5.3518,5.3518,5.3518,5.3518,5.3518,5.3518,5.3518,5.3518,5.3518,5.3518,5.3518,5.3518,5.3518,5.3518,5.3518,5.3518,5.3518,5.3501,5.3584,5.3767,5.3932,5.403,5.4175,5.4399,5.448,5.448,5.4463,5.4463,5.4428,5.4425,5.3908,5.3322,5.2321,5.139,5.1114,5.0847,5.084,5.0991,5.1442,5.1799,5.206,5.2338,5.2454,5.2761,5.3143,5.3185,5.3185,5.3185,5.3185,5.3185,5.3206,5.3227,5.3214,5.3116]}]]